[[{"header":{"parameterUnit":"m.s-1","parameterCategory":1,"la1":30.6,"la2":29.2853,"lo1":-89.7004,"lo2":-87.6739,"dy":0.0162,"dx":0.0183,"nx":112,"ny":82,"refTime":"2026-05-22T00:00:00:Z","depth":0,"parameterNumber":2,"parameterNumberName":"U-component_of_WINDS"},"data":[0.0,0.0,0.0,0.0,0.0,0.0,0.0,0.0,0.0,0.0,0.0,0.0,0.0,0.0,0.0,0.0,0.0,0.0,0.0,0.0,0.0,0.0,0.0,0.0,0.0,0.0,0.0,0.0,0.0,0.0,0.0,0.0,0.0,0.0,0.0,0.0,0.0,0.0,0.0,0.0,0.0,0.0,0.0,0.0,0.0,0.0,0.0,0.0,0.0,0.0,0.0,0.0,0.0,0.0,0.0,0.0,0.0,0.0,0.0,0.0,0.0,0.0,0.0,0.0,0.0,0.0,0.0,0.0,0.0,0.0,0.0,0.0,0.0,0.0,0.0,0.0,0.0,0.0,0.0,0.0,0.0,0.0,0.0,0.0,0.0,0.0,0.0,0.0,0.0,0.0,-1.9969,-2.1092,-2.3487,-2.4842,-2.4448,-2.4313,-2.39,-2.3004,0.0,0.0,0.0,0.0,0.0,0.0,0.0,0.0,0.0,0.0,0.0,0.0,0.0,0.0,0.0,0.0,0.0,0.0,0.0,0.0,0.0,0.0,0.0,0.0,0.0,0.0,0.0,0.0,0.0,0.0,0.0,0.0,0.0,0.0,0.0,0.0,0.0,0.0,0.0,0.0,0.0,0.0,0.0,0.0,0.0,0.0,0.0,0.0,0.0,0.0,0.0,0.0,0.0,0.0,0.0,0.0,0.0,0.0,0.0,0.0,0.0,0.0,0.0,0.0,0.0,0.0,0.0,0.0,0.0,0.0,0.0,0.0,0.0,0.0,0.0,0.0,0.0,0.0,0.0,0.0,0.0,0.0,0.0,0.0,0.0,0.0,0.0,0.0,0.0,0.0,0.0,0.0,0.0,0.0,0.0,0.0,0.0,0.0,0.0,0.0,0.0,0.0,0.0,0.0,-2.1706,-2.3396,-2.4442,-2.4966,-2.4904,-2.4416,-2.3714,-2.2709,0.0,0.0,0.0,0.0,0.0,0.0,0.0,0.0,0.0,0.0,0.0,0.0,0.0,0.0,0.0,0.0,0.0,0.0,0.0,0.0,0.0,0.0,0.0,0.0,0.0,0.0,0.0,0.0,0.0,0.0,0.0,0.0,0.0,0.0,0.0,0.0,0.0,0.0,0.0,0.0,0.0,0.0,0.0,0.0,0.0,0.0,0.0,0.0,0.0,0.0,0.0,0.0,0.0,0.0,0.0,0.0,0.0,0.0,0.0,0.0,0.0,0.0,0.0,0.0,0.0,0.0,0.0,0.0,0.0,0.0,0.0,0.0,0.0,0.0,0.0,0.0,0.0,0.0,0.0,0.0,0.0,0.0,0.0,0.0,0.0,0.0,0.0,0.0,0.0,0.0,0.0,0.0,0.0,0.0,0.0,0.0,0.0,0.0,0.0,0.0,0.0,0.0,0.0,-2.2253,-2.3406,-2.4826,-2.5412,-2.5532,-2.5139,-2.5074,-2.4341,-2.2695,-2.1232,0.0,0.0,0.0,0.0,0.0,0.0,0.0,0.0,0.0,0.0,0.0,0.0,0.0,0.0,0.0,0.0,0.0,0.0,0.0,0.0,0.0,0.0,0.0,0.0,0.0,0.0,0.0,0.0,0.0,0.0,0.0,0.0,0.0,0.0,0.0,0.0,0.0,0.0,0.0,0.0,0.0,0.0,0.0,0.0,0.0,0.0,0.0,0.0,0.0,0.0,0.0,0.0,0.0,0.0,0.0,0.0,0.0,0.0,0.0,0.0,0.0,0.0,0.0,0.0,0.0,0.0,0.0,0.0,0.0,0.0,0.0,0.0,0.0,0.0,0.0,0.0,0.0,0.0,0.0,0.0,0.0,0.0,0.0,0.0,0.0,0.0,0.0,0.0,0.0,0.0,0.0,0.0,0.0,0.0,0.0,0.0,0.0,0.0,0.0,0.0,0.0,0.0,-2.4032,-2.486,-2.5823,-2.6085,-2.5885,-2.5163,-2.5279,-2.4521,-2.247,-2.1221,0.0,0.0,0.0,0.0,0.0,0.0,0.0,0.0,0.0,0.0,0.0,0.0,0.0,0.0,0.0,0.0,0.0,0.0,0.0,0.0,0.0,0.0,0.0,0.0,0.0,0.0,0.0,0.0,0.0,0.0,0.0,0.0,0.0,0.0,0.0,0.0,0.0,0.0,0.0,0.0,0.0,0.0,0.0,0.0,0.0,0.0,0.0,0.0,0.0,0.0,0.0,0.0,0.0,0.0,0.0,0.0,0.0,0.0,0.0,0.0,0.0,0.0,0.0,0.0,0.0,0.0,0.0,0.0,0.0,0.0,0.0,0.0,0.0,0.0,0.0,0.0,0.0,0.0,0.0,0.0,0.0,0.0,0.0,0.0,0.0,0.0,0.0,0.0,0.0,0.0,0.0,0.0,0.0,0.0,0.0,0.0,0.0,0.0,0.0,0.0,0.0,0.0,-2.556,-2.5896,-2.6497,-2.612,-2.5567,-2.4899,-2.4466,-2.3472,-2.1681,-2.0492,0.0,0.0,0.0,0.0,0.0,0.0,0.0,0.0,0.0,0.0,0.0,0.0,0.0,0.0,0.0,0.0,0.0,0.0,0.0,0.0,0.0,0.0,0.0,0.0,0.0,0.0,0.0,0.0,0.0,0.0,0.0,0.0,0.0,0.0,0.0,0.0,0.0,0.0,0.0,0.0,0.0,0.0,0.0,0.0,0.0,0.0,0.0,0.0,0.0,0.0,0.0,0.0,0.0,0.0,0.0,0.0,0.0,0.0,0.0,0.0,0.0,0.0,0.0,0.0,0.0,0.0,0.0,0.0,0.0,0.0,0.0,0.0,0.0,0.0,0.0,0.0,0.0,0.0,0.0,0.0,0.0,0.0,0.0,0.0,0.0,0.0,0.0,0.0,0.0,0.0,0.0,0.0,0.0,0.0,0.0,0.0,0.0,0.0,0.0,0.0,0.0,0.0,-2.652,-2.7139,-2.7556,-2.7559,-2.7026,-2.5729,-2.5213,-2.4019,-2.1773,0.0,0.0,0.0,0.0,0.0,0.0,0.0,0.0,0.0,0.0,0.0,0.0,0.0,0.0,0.0,0.0,0.0,0.0,0.0,0.0,0.0,0.0,0.0,0.0,0.0,0.0,0.0,0.0,0.0,0.0,0.0,0.0,0.0,0.0,0.0,0.0,0.0,0.0,0.0,0.0,0.0,0.0,0.0,0.0,0.0,0.0,0.0,0.0,0.0,0.0,0.0,0.0,0.0,0.0,0.0,0.0,0.0,0.0,0.0,0.0,0.0,0.0,0.0,0.0,0.0,0.0,0.0,0.0,0.0,0.0,0.0,0.0,0.0,0.0,0.0,0.0,0.0,0.0,0.0,0.0,0.0,0.0,0.0,0.0,0.0,0.0,0.0,0.0,0.0,0.0,0.0,0.0,0.0,0.0,0.0,0.0,0.0,0.0,0.0,0.0,0.0,0.0,-2.609,-2.7368,-2.8132,-2.8537,-2.8769,-2.8146,-2.6314,-2.5852,-2.4558,-2.2033,0.0,0.0,0.0,0.0,0.0,0.0,0.0,0.0,0.0,0.0,0.0,0.0,0.0,0.0,0.0,0.0,0.0,0.0,0.0,0.0,0.0,0.0,0.0,0.0,0.0,0.0,0.0,0.0,0.0,0.0,0.0,0.0,0.0,0.0,0.0,0.0,0.0,0.0,0.0,0.0,0.0,0.0,0.0,0.0,0.0,0.0,0.0,0.0,0.0,0.0,0.0,0.0,0.0,0.0,0.0,0.0,0.0,0.0,0.0,0.0,0.0,0.0,0.0,0.0,0.0,0.0,0.0,0.0,0.0,0.0,0.0,0.0,0.0,0.0,0.0,0.0,0.0,0.0,0.0,0.0,0.0,0.0,0.0,0.0,0.0,0.0,0.0,0.0,0.0,0.0,0.0,0.0,0.0,0.0,0.0,0.0,0.0,0.0,0.0,0.0,0.0,0.0,-2.718,-2.8188,-2.8808,-2.9327,-2.946,-2.8655,-2.6467,-2.6119,-2.4912,0.0,0.0,0.0,0.0,0.0,0.0,0.0,0.0,0.0,0.0,0.0,0.0,0.0,0.0,0.0,0.0,0.0,0.0,0.0,0.0,0.0,0.0,0.0,0.0,0.0,0.0,0.0,0.0,0.0,0.0,0.0,0.0,0.0,0.0,0.0,0.0,0.0,0.0,0.0,0.0,0.0,0.0,0.0,0.0,0.0,0.0,0.0,0.0,0.0,0.0,0.0,0.0,0.0,0.0,0.0,0.0,0.0,0.0,0.0,0.0,0.0,0.0,0.0,0.0,0.0,0.0,0.0,0.0,0.0,0.0,0.0,0.0,0.0,0.0,0.0,0.0,0.0,0.0,0.0,0.0,0.0,0.0,0.0,0.0,0.0,0.0,0.0,0.0,0.0,0.0,0.0,0.0,0.0,0.0,0.0,0.0,0.0,0.0,0.0,0.0,0.0,0.0,0.0,-2.718,-2.8966,-2.9794,-2.9431,-2.9702,-2.8982,-2.6642,-2.5951,-2.4682,-2.2478,0.0,0.0,0.0,0.0,0.0,0.0,0.0,0.0,0.0,0.0,0.0,0.0,0.0,0.0,0.0,0.0,0.0,0.0,0.0,0.0,0.0,0.0,0.0,0.0,0.0,0.0,0.0,0.0,0.0,0.0,0.0,0.0,0.0,0.0,0.0,0.0,0.0,0.0,0.0,0.0,0.0,0.0,0.0,0.0,0.0,0.0,0.0,0.0,0.0,0.0,0.0,0.0,0.0,0.0,0.0,0.0,0.0,0.0,0.0,0.0,0.0,0.0,0.0,0.0,0.0,0.0,0.0,0.0,0.0,0.0,0.0,0.0,0.0,0.0,0.0,0.0,0.0,0.0,0.0,0.0,0.0,0.0,0.0,0.0,0.0,0.0,0.0,0.0,0.0,0.0,0.0,0.0,0.0,0.0,0.0,0.0,0.0,0.0,0.0,0.0,0.0,0.0,-2.6851,-2.8906,-2.9866,-2.917,-2.9555,-2.9051,-2.696,-2.6309,-2.5036,-2.2704,0.0,0.0,0.0,0.0,0.0,0.0,0.0,0.0,0.0,0.0,0.0,0.0,0.0,0.0,0.0,0.0,0.0,0.0,0.0,0.0,0.0,0.0,0.0,0.0,0.0,0.0,0.0,0.0,0.0,0.0,0.0,0.0,0.0,0.0,0.0,0.0,0.0,0.0,0.0,0.0,0.0,0.0,0.0,0.0,0.0,0.0,0.0,0.0,0.0,0.0,0.0,0.0,0.0,0.0,0.0,0.0,0.0,0.0,0.0,0.0,0.0,0.0,0.0,0.0,0.0,0.0,0.0,0.0,0.0,0.0,0.0,0.0,0.0,0.0,0.0,0.0,0.0,0.0,0.0,0.0,0.0,0.0,0.0,0.0,0.0,0.0,0.0,0.0,0.0,0.0,0.0,0.0,0.0,0.0,0.0,0.0,0.0,0.0,0.0,0.0,0.0,0.0,-2.6333,-2.8442,-2.946,-2.8682,-2.919,-2.8961,-2.7351,-2.6863,-2.5585,-2.305,0.0,0.0,0.0,0.0,0.0,0.0,0.0,0.0,0.0,0.0,0.0,0.0,0.0,0.0,0.0,0.0,0.0,0.0,0.0,0.0,0.0,0.0,0.0,0.0,0.0,0.0,0.0,0.0,0.0,0.0,0.0,0.0,0.0,0.0,0.0,0.0,0.0,0.0,0.0,0.0,0.0,0.0,0.0,0.0,0.0,0.0,0.0,0.0,0.0,0.0,0.0,0.0,0.0,0.0,0.0,0.0,0.0,0.0,0.0,0.0,-2.4353,-2.3469,0.0,0.0,0.0,0.0,0.0,0.0,0.0,0.0,0.0,0.0,0.0,0.0,0.0,0.0,0.0,0.0,0.0,0.0,0.0,0.0,0.0,0.0,0.0,0.0,0.0,0.0,0.0,0.0,0.0,0.0,0.0,0.0,0.0,0.0,0.0,0.0,0.0,0.0,0.0,0.0,-2.6408,-2.9235,-3.0434,-2.8786,-2.919,-2.8961,-2.7351,-2.6283,-2.5131,-2.3758,-2.0361,0.0,0.0,0.0,0.0,0.0,0.0,0.0,0.0,0.0,0.0,0.0,0.0,0.0,0.0,0.0,0.0,0.0,0.0,0.0,0.0,0.0,0.0,0.0,0.0,0.0,0.0,0.0,0.0,0.0,0.0,0.0,0.0,0.0,0.0,0.0,0.0,0.0,0.0,0.0,0.0,0.0,0.0,0.0,0.0,0.0,0.0,0.0,0.0,0.0,0.0,0.0,0.0,0.0,0.0,0.0,0.0,0.0,0.0,0.0,-2.7295,-2.5827,0.0,0.0,0.0,0.0,0.0,0.0,0.0,0.0,0.0,0.0,0.0,0.0,0.0,0.0,0.0,0.0,0.0,0.0,0.0,0.0,0.0,0.0,0.0,0.0,0.0,0.0,0.0,0.0,0.0,0.0,0.0,0.0,0.0,0.0,0.0,0.0,0.0,0.0,0.0,0.0,-2.6467,-2.9205,-3.0389,-2.8771,-2.8906,-2.8618,-2.7399,-2.6509,-2.5386,-2.3844,-2.1098,0.0,0.0,0.0,0.0,0.0,0.0,0.0,0.0,0.0,0.0,0.0,0.0,0.0,0.0,0.0,0.0,0.0,0.0,0.0,0.0,0.0,0.0,0.0,0.0,0.0,0.0,0.0,0.0,0.0,0.0,0.0,0.0,0.0,0.0,0.0,0.0,0.0,0.0,0.0,0.0,0.0,0.0,0.0,0.0,0.0,0.0,0.0,0.0,0.0,0.0,0.0,0.0,0.0,-3.1427,-3.2154,-3.2903,-3.3508,-3.4153,-3.4583,-3.083,-2.9145,-2.8944,-2.7731,0.0,0.0,0.0,0.0,0.0,0.0,0.0,0.0,0.0,0.0,0.0,0.0,0.0,0.0,0.0,0.0,0.0,0.0,0.0,0.0,0.0,0.0,-2.7944,-2.7285,-2.7111,-2.6662,-2.5001,0.0,0.0,0.0,0.0,0.0,0.0,0.0,0.0,0.0,0.0,0.0,-2.6497,-2.8981,-3.0193,-2.8906,-2.8861,-2.8569,-2.7665,-2.7096,-2.5926,-2.3914,-2.2007,-1.9954,0.0,0.0,0.0,0.0,0.0,0.0,0.0,0.0,0.0,0.0,0.0,0.0,0.0,0.0,0.0,0.0,0.0,0.0,0.0,0.0,0.0,0.0,0.0,0.0,0.0,0.0,0.0,0.0,0.0,0.0,0.0,0.0,-1.719,-1.8742,0.0,0.0,0.0,0.0,0.0,0.0,0.0,0.0,0.0,0.0,0.0,0.0,0.0,-2.8824,-2.9651,-3.1004,-3.2121,-3.2983,-3.3711,-3.4455,-3.516,-3.5261,-3.569,-3.6272,-3.5559,0.0,-3.1788,-2.9801,0.0,0.0,0.0,0.0,0.0,0.0,0.0,0.0,0.0,0.0,0.0,0.0,0.0,0.0,0.0,0.0,0.0,0.0,0.0,0.0,0.0,0.0,-2.9953,-2.9367,-2.9217,-2.9142,-2.8873,-2.6976,-2.4971,-2.3714,-2.3266,-2.2727,0.0,0.0,0.0,0.0,0.0,0.0,-2.6497,-2.9373,-3.0868,-2.9594,-2.9939,-2.9704,-2.8378,-2.758,-2.6396,-2.4669,-2.3008,-2.1564,-2.0342,-1.8226,0.0,0.0,0.0,0.0,0.0,0.0,0.0,0.0,0.0,0.0,0.0,0.0,0.0,0.0,0.0,0.0,0.0,0.0,0.0,0.0,0.0,0.0,0.0,0.0,0.0,0.0,0.0,0.0,0.0,-1.7224,-1.8801,-1.9598,-1.9909,-2.0008,0.0,0.0,0.0,0.0,0.0,0.0,0.0,0.0,0.0,-2.8514,-3.0057,-3.1413,-3.256,-3.407,-3.5182,-3.5943,-3.7094,-3.7804,-3.8142,-3.8565,-3.8913,-3.9167,-3.8679,-3.7556,-3.5811,-3.2673,-3.0662,-2.9363,0.0,0.0,0.0,0.0,-2.7338,-2.7345,-2.797,-2.7769,-2.735,-2.7724,0.0,0.0,0.0,0.0,0.0,0.0,0.0,-2.7515,-2.8483,-3.0163,-3.1375,-3.0342,-3.0387,-3.0477,-2.9744,-2.8667,-2.744,-2.6117,-2.5241,-2.4433,-2.3483,-2.2766,0.0,0.0,0.0,-2.6961,-2.7634,-2.9926,-3.1137,-3.0208,-3.0028,-2.9582,-2.8603,-2.7846,-2.6931,-2.5737,-2.4452,-2.3193,-2.1911,-1.9875,-1.8124,0.0,0.0,0.0,0.0,0.0,0.0,0.0,0.0,0.0,0.0,0.0,0.0,0.0,0.0,0.0,0.0,0.0,0.0,0.0,0.0,0.0,0.0,0.0,0.0,0.0,0.0,0.0,0.0,-1.9353,-2.0644,-2.1001,-2.1646,-2.187,0.0,0.0,0.0,0.0,0.0,0.0,-2.7199,-2.7994,-2.9194,-3.0903,-3.2581,-3.3986,-3.5064,-3.6609,-3.7719,-3.8481,-3.9766,-4.0485,-4.0688,-4.1221,-4.1474,-4.1457,-4.0908,-4.029,-3.9345,-3.558,-3.3445,-3.2401,-3.0598,-2.9777,-2.9611,-2.9455,-2.9301,-2.9199,-2.9705,-2.9849,-2.9939,-3.0445,-2.9909,-2.8906,-2.7889,0.0,0.0,0.0,0.0,-2.9505,-3.0163,-3.1539,-3.2512,-3.1509,-3.1659,-3.169,-3.0582,-3.0208,-2.9639,-2.8154,-2.6901,-2.5899,-2.5217,-2.4395,0.0,-2.4754,-2.6422,-2.7839,-2.8502,-3.0285,-3.1241,-3.0567,-3.0088,-2.949,-2.8667,-2.8128,-2.737,-2.6223,-2.556,-2.4476,-2.2772,-2.1141,-1.9497,-1.7875,0.0,0.0,0.0,0.0,0.0,0.0,0.0,0.0,0.0,0.0,0.0,0.0,0.0,0.0,0.0,0.0,0.0,0.0,0.0,0.0,0.0,0.0,0.0,0.0,0.0,0.0,0.0,0.0,0.0,-2.408,-2.4275,0.0,0.0,0.0,0.0,-2.637,-2.7876,-2.8773,-2.8874,-3.1529,-3.3119,-3.3237,-3.5402,-3.6609,-3.6677,-3.8142,-3.9242,-4.0011,-4.0764,-4.1508,-4.2185,-4.2219,-4.2236,-4.2236,-4.2202,-4.2088,-4.1675,-3.8216,-3.6272,-3.5357,-3.3905,-3.3196,-3.2992,-3.3144,-3.301,-3.2801,-3.3126,-3.3245,-3.326,-3.329,-3.1988,-3.0387,-3.0328,-2.9415,0.0,0.0,-3.0793,-3.1511,-3.2168,-3.2901,-3.3425,-3.3365,-3.3365,-3.32,-3.2527,-3.1839,-3.0838,-2.8921,-2.7989,-2.7285,-2.6602,0.0,-2.4784,-2.5442,-2.6707,-2.7839,-2.8502,-3.0285,-3.1241,-3.0567,-3.0477,-2.9953,-2.8712,-2.8562,-2.7658,-2.5575,-2.5869,-2.5106,-2.2803,-2.21,-2.136,-2.0434,-1.7733,0.0,0.0,0.0,0.0,0.0,0.0,0.0,0.0,0.0,0.0,0.0,0.0,0.0,0.0,0.0,0.0,0.0,0.0,0.0,0.0,0.0,0.0,0.0,0.0,0.0,0.0,0.0,0.0,-2.5796,-2.6776,0.0,-2.7757,-2.7977,-2.8518,-2.9516,-3.055,-3.1752,-3.3169,-3.423,-3.5261,-3.6265,-3.7533,-3.821,-3.821,-3.9216,-4.0096,-4.0815,-4.1559,-4.2286,-4.3014,-4.3014,-4.3014,-4.298,-4.2506,-4.226,-4.2139,-4.0812,-3.9342,-3.7712,-3.6009,-3.5145,-3.4865,-3.4762,-3.4462,-3.4123,-3.438,-3.4361,-3.4268,-3.4175,-3.3365,-3.2347,-3.1928,-3.148,-3.121,-3.1674,-3.2287,-3.2841,-3.308,-3.3634,-3.4023,-3.3589,-3.3814,-3.3829,-3.2751,-3.2303,-3.1809,-3.0673,-2.9609,-2.8813,-2.8573,-2.8128,-2.7889,-2.8128,-2.8906,-2.9549,-2.9789,-3.0793,-3.1241,-3.0567,-3.0148,-2.9549,-2.8682,-2.8188,-2.7455,-2.6255,-2.6355,-2.5823,-2.4379,-2.3269,-2.209,-2.0882,-1.8977,-1.729,0.0,0.0,0.0,0.0,0.0,0.0,0.0,0.0,0.0,0.0,0.0,0.0,0.0,0.0,0.0,0.0,0.0,0.0,0.0,0.0,0.0,0.0,0.0,0.0,0.0,-2.5105,-2.7012,-2.7757,-2.9196,-3.011,-3.011,-3.0567,-3.1241,-3.2239,-3.2983,-3.4167,-3.591,-3.6485,-3.7229,-3.8244,-3.8988,-3.9385,-3.9385,-4.0113,-4.0832,-4.1576,-4.232,-4.3064,-4.3809,-4.3809,-4.3809,-4.3792,-4.3284,-4.3091,-4.3047,-4.2658,-4.168,-4.0325,-3.8739,-3.791,-3.7559,-3.6982,-3.6432,-3.5925,-3.5477,-3.5195,-3.4975,-3.488,-3.4532,-3.4098,-3.3664,-3.3514,-3.3514,-3.3514,-3.3844,-3.4173,-3.4173,-3.4502,-3.4711,-3.4277,-3.4502,-3.4517,-3.3425,-3.3006,-3.2647,-3.1959,-3.0791,-2.9894,-2.9894,-2.9714,-2.9606,-2.9606,-3.0103,-3.0507,-3.0507,-3.1077,-3.1167,-3.0283,-2.9846,-2.9247,-2.8323,-2.7869,-2.7315,-2.6632,-2.6821,-2.6415,-2.5259,-2.4345,-2.317,-2.1667,-2.007,-1.8026,-1.5487,0.0,0.0,0.0,0.0,0.0,0.0,0.0,0.0,0.0,0.0,0.0,0.0,0.0,0.0,0.0,0.0,0.0,0.0,0.0,0.0,0.0,0.0,0.0,-2.4617,-2.713,-2.9365,-3.0125,-3.1478,-3.2395,-3.2446,-3.2446,-3.3038,-3.4489,-3.5284,-3.6028,-3.6829,-3.821,-3.9005,-3.9022,-3.974,-4.0113,-4.013,-4.0832,-4.1576,-4.2337,-4.3064,-4.3826,-4.4615,-4.4615,-4.4615,-4.4615,-4.4615,-4.4615,-4.4519,-4.3619,-4.3244,-4.3149,-4.2105,-4.1481,-4.107,-3.9874,-3.906,-3.8305,-3.6659,-3.5889,-3.5597,-3.5597,-3.5597,-3.5564,-3.5549,-3.5534,-3.5534,-3.5504,-3.5504,-3.5504,-3.5504,-3.5504,-3.5504,-3.5504,-3.5504,-3.531,-3.4653,-3.3978,-3.332,-3.2647,-3.1465,-3.0567,-3.0537,-3.0043,-2.9666,-2.9666,-3.0163,0.0,-3.0537,-3.1092,-3.1017,-2.9771,-2.9621,-2.9082,-2.7735,-2.7585,-2.7285,-2.6632,-2.7195,-2.6847,-2.5304,-2.534,-2.4589,-2.293,-2.1008,-1.8596,-1.5649,0.0,0.0,0.0,0.0,0.0,0.0,0.0,0.0,0.0,0.0,0.0,0.0,0.0,0.0,0.0,0.0,0.0,0.0,0.0,0.0,0.0,-2.576,-2.7774,-2.6978,-2.9007,-3.1055,-3.2341,-3.3322,-3.4341,-3.5458,-3.556,-3.5943,-3.6891,-3.7161,-3.7601,-3.8345,-3.8768,-3.9266,-3.9791,-3.9994,-4.0367,-4.0882,-4.1102,-4.1847,-4.3115,-4.3291,-4.3826,-4.4615,-4.4615,-4.4615,-4.4615,-4.4615,-4.4615,-4.4598,-4.4322,-4.4237,-4.4046,-4.2362,-4.1571,-4.1357,-4.0783,-3.9994,-3.9124,-3.8481,-3.8003,-3.7678,-3.7578,-3.7446,-3.7207,-3.6577,-3.6292,-3.6118,-3.5639,-3.5504,-3.5504,-3.5504,-3.5504,-3.5504,-3.5504,-3.5504,-3.531,-3.4653,-3.4369,-3.3873,-3.2736,-3.2183,-3.1809,-3.1301,-3.1077,-3.0972,-3.0972,-3.1122,-3.1227,-3.1227,-3.1391,-3.1182,-3.0342,-2.9849,-2.9235,-2.8382,-2.7425,-2.6806,-2.6602,-2.6318,-2.6141,-2.6051,-2.5404,-2.4248,-2.2569,-2.1486,-2.017,0.0,0.0,0.0,0.0,0.0,0.0,0.0,0.0,0.0,0.0,0.0,0.0,0.0,0.0,0.0,0.0,0.0,0.0,0.0,0.0,0.0,0.0,-2.8147,-3.033,-3.0156,-3.1292,-3.256,-3.3728,-3.481,-3.5831,-3.6711,-3.7083,-3.7567,-3.8311,-3.8362,-3.8684,-3.9436,-3.9469,-3.9673,-4.0096,-4.0417,-4.0764,-4.1204,-4.1813,-4.253,-4.3392,-4.3741,-4.4147,-4.4615,-4.4615,-4.4615,-4.4615,-4.4615,-4.4615,-4.4615,-4.4615,-4.4615,-4.4457,0.0,0.0,0.0,0.0,-4.0813,-3.9888,-3.9581,-3.9219,-3.8885,-3.8673,-3.8411,-3.8086,-3.7458,-3.6905,-3.6417,-3.6028,-3.5714,-3.5504,-3.5504,-3.5504,-3.5504,-3.5504,-3.5504,-3.5385,-3.4996,-3.4713,-3.4279,-3.3484,-3.2886,0.0,-3.1989,-3.169,-3.1511,-3.1511,-3.1511,-3.1511,-3.1511,-3.1511,-3.1241,-3.0567,-2.9953,-2.9337,-2.8667,-2.7619,0.0,0.0,0.0,-2.6544,-2.6732,-2.5725,0.0,0.0,0.0,0.0,0.0,-2.0239,0.0,0.0,-1.7929,-1.8623,0.0,0.0,0.0,0.0,0.0,0.0,0.0,0.0,0.0,0.0,0.0,0.0,0.0,0.0,0.0,0.0,-3.0581,-3.2784,-3.344,-3.3609,-3.3897,-3.4539,-3.5915,-3.6829,-3.6931,-3.7584,-3.8328,-3.9056,-3.9106,-3.9419,-4.0079,-4.0096,0.0,0.0,0.0,-4.1238,-4.1322,-4.2682,-4.3443,-4.3527,-4.4248,-4.4615,-4.4615,-4.4615,-4.4615,-4.4615,-4.4615,-4.4615,-4.4615,-4.4615,-4.4587,-4.4542,-4.4212,-4.4068,-4.3898,-4.269,-4.1648,-4.0751,-4.045,0.0,0.0,-3.9471,-3.9134,-3.8776,-3.8317,-3.7494,-3.6648,-3.654,-3.6046,-3.5504,-3.5504,-3.5504,-3.5504,-3.5504,-3.5504,-3.5504,-3.5504,-3.5026,-3.4593,-3.4518,-3.3469,-3.2602,-3.2497,-3.1944,-3.1511,-3.1511,-3.1511,-3.1511,-3.1511,-3.1511,-3.1271,-3.0687,-2.9998,0.0,-2.8757,-2.7974,-2.7525,-2.76,-2.76,-2.7469,-2.714,-2.6283,-2.5088,-2.3532,-2.3673,-2.2744,-2.0615,-2.2023,-2.2264,-2.1409,-2.022,-2.0384,0.0,0.0,0.0,0.0,0.0,0.0,0.0,0.0,0.0,0.0,0.0,0.0,0.0,0.0,0.0,-2.9413,-3.2138,-3.4117,-3.4269,-3.481,-3.5228,-3.5363,-3.6214,-3.7032,-3.7635,-3.8345,-3.9089,-3.9842,-3.9893,-3.996,-4.0096,-4.0096,-4.0096,-4.0096,-4.0815,-4.1491,-4.2066,-4.298,-4.3741,-4.4378,-4.453,0.0,-4.4615,-4.4615,-4.4615,-4.4615,-4.4615,-4.4615,-4.4615,-4.4615,-4.4497,-4.4338,-4.4155,-4.3923,-4.3641,-4.3284,-4.2909,-4.2566,-4.2398,-4.2197,-4.1946,-4.1614,-4.1275,-4.0821,-3.9778,-3.8647,0.0,-3.6881,-3.6114,-3.5504,-3.5504,-3.5504,-3.5504,-3.5504,-3.5504,-3.5504,-3.5504,-3.54,-3.5145,-3.4608,-3.3844,-3.314,-3.2602,-3.1944,-3.1511,-3.1511,-3.1511,-3.1511,-3.1511,-3.1511,-3.1451,-3.1316,-3.0283,-2.9562,-2.9427,-2.7809,-2.7031,-2.757,-2.76,-2.7335,-2.6738,-2.6935,-2.652,-2.5404,-2.5536,-2.4814,-2.3192,-2.4114,-2.4226,-2.3542,-2.1985,-2.1797,0.0,0.0,0.0,0.0,0.0,0.0,0.0,0.0,0.0,0.0,0.0,-2.3874,-2.5763,0.0,-3.0429,-3.1579,-3.3609,-3.5064,-3.5064,-3.5363,-3.5735,-3.6146,-3.6874,-3.7635,-3.8379,-3.9106,-3.9706,-4.0079,-4.0096,-4.0096,-4.0096,-4.0096,-4.0282,-4.0629,-4.1356,-4.21,-4.2844,-4.3623,-4.4198,-4.4615,-4.4615,-4.4615,-4.4615,-4.4615,-4.4615,-4.4615,-4.4615,-4.4615,-4.4615,-4.4615,-4.4468,-4.4281,-4.4155,-4.3969,-4.3734,-4.3658,-4.3539,-4.3342,-4.3251,-4.319,-4.3052,-4.2695,-4.2381,-4.1933,-4.0981,-3.9544,-3.8104,-3.7503,-3.6469,-3.5504,-3.5504,-3.5504,-3.5504,-3.5504,-3.5504,-3.5504,-3.5504,-3.5504,-3.54,-3.5055,-3.4188,-3.338,-3.3066,-3.2153,-3.1511,-3.1511,-3.1511,-3.1511,-3.1511,-3.1511,-3.1511,-3.1511,-3.0642,-2.9924,-2.9636,-2.8064,-2.724,-2.757,-2.76,-2.745,-2.7121,-2.7284,-2.6973,-2.6069,-2.6141,-2.5684,-2.4654,-2.5063,-2.5123,-2.4884,-2.3874,-2.3591,0.0,0.0,0.0,0.0,0.0,0.0,0.0,-2.138,-2.229,-2.3917,-2.5795,-2.7418,-2.8297,-3.0683,-3.2767,-3.3491,-3.4721,-3.56,-3.56,-3.56,-3.596,-3.6891,-3.7533,-3.8193,-3.892,-3.9673,-4.0096,-4.0096,-4.0096,-4.0096,-4.0096,-4.0096,-4.0426,-4.1187,-4.1914,-4.2658,-4.3375,-4.4198,-4.4615,-4.4615,-4.4615,-4.4615,-4.4615,-4.4615,-4.4615,-4.4615,-4.4615,-4.4615,-4.4615,-4.4615,-4.4468,-4.431,-4.4184,-4.4056,-4.3898,-4.3868,-4.3734,-4.3598,-4.3598,-4.3598,-4.3522,-4.3204,-4.2881,-4.2459,-4.1802,-4.0232,-3.8598,-3.8126,-3.6896,-3.5669,-3.5534,-3.5504,-3.5504,-3.5504,-3.5504,-3.5504,-3.5504,-3.5504,-3.5504,-3.5504,-3.4412,-3.3499,-3.3499,-3.2378,-3.1511,-3.1511,-3.1511,-3.1511,-3.1511,-3.1511,-3.1511,-3.1511,-3.0883,-3.0193,-2.9487,-2.8423,-2.7735,-2.76,-2.76,-2.76,-2.76,-2.7607,-2.7327,-2.6688,-2.6765,-2.6464,-2.5813,-2.5824,-2.5801,-2.5722,-2.5537,-2.5299,-1.8758,-1.9599,-2.0716,-2.0801,-2.1363,-2.2279,0.0,-2.4068,-2.4745,-2.686,-2.8078,-2.9179,-3.0565,-3.2171,-3.3525,-3.4252,-3.5081,-3.56,-3.56,-3.56,-3.614,-3.7601,-3.7855,-3.8193,-3.892,-3.9673,-4.0096,-4.0096,-4.0096,-4.0096,-4.0096,-4.0096,-4.0426,-4.1187,-4.1914,-4.2658,-4.3375,-4.4198,-4.4615,-4.4615,-4.4615,-4.4615,-4.4615,-4.4615,-4.4615,-4.4615,-4.4615,-4.4615,-4.4615,-4.4615,-4.4468,-4.431,-4.4265,-4.4126,-4.3868,-4.3704,-4.3628,-4.3598,-4.3598,-4.3598,-4.3522,-4.3204,-4.2867,-4.246,-4.1818,-4.056,-3.9198,-3.8263,-3.7213,-3.6237,-3.5654,-3.5504,-3.5504,-3.5504,-3.5504,-3.5504,-3.5504,-3.5504,-3.5504,-3.5504,-3.4412,-3.3499,-3.3499,-3.2378,-3.1511,-3.1511,-3.1511,-3.1511,-3.1511,-3.1511,-3.1511,-3.1511,-3.0883,-3.0013,-2.8816,-2.8562,-2.8218,-2.763,-2.76,-2.76,-2.76,-2.8158,-2.8431,-2.8316,-2.8525,-2.8181,-2.7278,-2.7332,-2.6937,-2.6134,-2.6601,-2.6416,-2.0856,-2.1651,-2.2697,-2.3545,-2.4323,-2.5135,-2.6184,-2.7114,-2.8146,-2.9499,-3.1072,-3.2395,-3.3,-3.3981,-3.4771,-3.5098,-3.5397,-3.56,-3.56,-3.56,-3.6005,-3.7127,-3.7635,-3.8362,-3.9537,-3.9926,-4.0096,-4.0096,-4.0096,-4.0096,-4.0096,-4.0493,-4.1068,-4.1813,-4.2557,-4.3318,-4.4079,-4.4418,-4.4615,-4.4615,-4.4615,-4.4615,-4.4615,-4.4615,-4.4615,-4.4615,-4.4615,-4.4615,-4.4615,-4.4615,-4.4468,-4.431,-4.4196,-4.4085,-4.3898,-4.3809,-4.3704,-4.3598,-4.3598,-4.3598,-4.3522,-4.3204,-4.2881,-4.2476,-4.1802,-4.0622,-3.9382,-3.875,-3.7575,-3.6432,-3.6148,-3.5789,-3.5504,-3.5504,-3.5504,-3.5504,-3.5504,-3.5504,-3.5504,-3.5504,-3.4412,-3.3499,-3.3499,-3.2378,-3.1511,-3.1511,-3.1511,-3.1511,-3.1511,-3.1511,-3.1511,-3.1511,-3.0883,-3.0283,-2.9759,-2.9385,-2.9041,-2.8783,-2.8768,-2.8768,-2.8768,-2.9037,-2.9175,-2.9175,-2.8992,-2.8755,-2.8418,-2.8174,-2.7903,-2.7609,-2.7584,-2.7359,-2.2395,-2.3444,-2.456,-2.5642,-2.6623,-2.752,-2.8263,-2.9294,-3.0311,-3.1055,-3.2649,-3.3901,-3.3901,-3.4658,-3.5295,-3.5295,-3.5464,-3.56,-3.56,-3.5785,-3.6231,-3.7015,-3.7753,-3.87,-3.9977,-4.0096,-4.0096,-4.0096,-4.0096,-4.0197,-4.0375,-4.0916,-4.1627,-4.2574,-4.3132,-4.3792,-4.4598,-4.4615,-4.4615,-4.4615,-4.4615,-4.4615,-4.4615,-4.4615,-4.4615,-4.4615,-4.4615,-4.4615,-4.4615,-4.4615,-4.444,-4.4224,-4.4155,-4.3998,-4.3839,-4.3839,-4.3734,-4.3598,-4.3598,-4.3598,-4.3539,-4.319,-4.2789,-4.2333,-4.1687,-4.0595,-3.9535,-3.9043,-3.7873,-3.6701,-3.6537,-3.5998,-3.5504,-3.5504,-3.5504,-3.5504,-3.5504,-3.5504,-3.5504,-3.5504,-3.4562,-3.3709,-3.3529,-3.2557,-3.1705,-3.1525,-3.1511,-3.1511,-3.1511,-3.1511,-3.1511,-3.1511,-3.1062,-3.0717,-3.0522,-3.0088,-2.9786,-2.9621,-2.9606,-2.9606,-2.9606,-2.9771,-2.9834,-2.9834,-2.9651,-2.9536,-2.9502,-2.9112,-2.8909,-2.8849,-2.8514,-2.8189,-2.3173,-2.4949,-2.6607,-2.6657,-2.7808,-2.9128,-2.9871,-3.0074,-3.0311,-3.1055,-3.1819,-3.2361,-3.2361,-3.3563,-3.4523,-3.4523,-3.5131,-3.56,-3.56,-3.6265,-3.7026,-3.7787,-3.8514,-3.9283,-4.0028,-4.0096,-4.0096,-4.0096,-4.0096,-4.0417,-4.1136,-4.1187,-4.188,-4.3308,-4.3375,-4.3792,-4.4598,-4.4615,-4.4615,-4.4615,-4.4615,-4.4615,-4.4615,-4.4615,-4.4615,-4.4615,-4.4615,-4.4615,-4.4615,-4.4615,-4.44,-4.4097,-4.4097,-4.3894,-4.3598,-4.3598,-4.3598,-4.3598,-4.3598,-4.3598,-4.3539,-4.3054,-4.2539,-4.198,-4.1323,-4.0593,-3.9793,-3.8952,-3.8052,-3.724,-3.6641,-3.5998,-3.5504,-3.5504,-3.5504,-3.5504,-3.5504,-3.5504,-3.5504,-3.5504,-3.4936,-3.4279,-3.3604,-3.2931,-3.2243,-3.16,-3.1511,-3.1511,-3.1511,-3.1511,-3.1511,-3.1511,-3.1481,-3.1212,-3.0567,-3.0492,-3.0223,-2.9651,-2.9606,-2.9606,-2.9606,-3.0163,-3.0477,-3.0477,-3.0978,-3.0984,-3.0465,-3.0299,-2.9964,-2.9473,-2.9314,-2.8917,-2.5253,-2.6488,-2.7689,-2.8704,-2.9347,-2.9922,-3.0666,-3.1207,-3.1478,-3.1241,-3.1802,-3.2293,-3.2293,-3.2716,-3.3359,-3.4336,-3.4709,-3.5233,-3.6248,-3.6643,-3.7083,-3.7821,-3.8548,-3.9089,-3.9368,-3.9808,-4.0096,-4.0096,-4.0544,-4.0933,-4.1187,-4.2134,-4.2885,-4.3375,-4.3927,-4.4344,-4.4615,-4.4615,-4.4615,-4.4615,-4.4615,-4.4615,-4.4615,-4.4615,-4.4615,-4.4615,-4.4615,-4.4615,-4.4615,-4.4615,-4.44,-4.4097,-4.4097,-4.3894,-4.3598,-4.3598,-4.3598,-4.3598,-4.3598,-4.3598,-4.3492,-4.2898,-4.2238,-4.159,-4.0919,-4.0191,-3.9454,-3.8692,-3.7948,-3.727,-3.6656,-3.5998,-3.5504,-3.5504,-3.5504,-3.5504,-3.5504,-3.5504,-3.5504,-3.5504,-3.4951,-3.4294,-3.3604,-3.2946,-3.2258,-3.16,-3.1511,-3.1511,-3.1511,-3.1511,-3.1511,-3.1511,-3.1511,-3.1406,-3.1182,-3.1152,-3.1077,-3.0853,-3.0853,-3.0853,-3.0853,-3.1047,-3.1152,-3.1152,-3.1261,-3.1161,-3.0837,-3.0717,-3.0507,-3.0237,-2.9962,-2.9605,-2.6437,-2.7638,-2.8855,-2.9835,-3.0311,-3.0615,-3.1089,-3.136,-3.1376,-3.0903,-3.0751,-3.0768,-3.1075,-3.1345,-3.2005,-3.3457,-3.415,-3.5052,-3.6592,-3.7032,-3.7466,-3.821,-3.8937,-3.9402,-3.9402,-3.9825,-4.0096,-4.0096,-4.0781,-4.1322,-4.1576,-4.2743,-4.3511,-4.3826,-4.4316,-4.4615,-4.4615,-4.4615,-4.4615,-4.4615,-4.4615,-4.4615,-4.4615,-4.4615,-4.4615,-4.4615,-4.4615,-4.4615,-4.4615,-4.4615,-4.44,-4.4097,-4.4097,-4.3894,-4.3598,-4.3598,-4.3598,-4.3598,-4.3598,-4.3598,-4.3492,-4.282,-4.2094,-4.136,-4.0715,-3.9965,-3.9334,-3.8886,-3.8108,-3.7315,-3.6926,-3.6163,-3.5504,-3.5504,-3.5504,-3.5504,-3.5504,-3.5504,-3.5504,-3.5504,-3.5145,-3.4562,-3.3649,-3.2766,-3.1989,-3.157,-3.1511,-3.1511,-3.1511,-3.1511,-3.1511,-3.1511,-3.1511,-3.1511,-3.1511,-3.1511,-3.1511,-3.1511,-3.1511,-3.1511,-3.1511,-3.1511,-3.1511,-3.1511,-3.1409,-3.1307,-3.119,-3.1087,-3.0999,-3.091,-3.0643,-3.0312,-2.6843,-2.8484,-3.0176,-3.0176,-3.0683,-3.119,-3.114,-3.0581,-3.0023,-2.9937,-2.8753,-2.7976,-2.8739,-2.9516,-3.0548,-3.2056,-3.3512,-3.5018,-3.6575,-3.7432,-3.8176,-3.8903,-3.9656,-4.0096,-4.0096,-4.0096,-4.0096,-4.0096,-4.0815,-4.1559,-4.2252,-4.3047,-4.3809,-4.4581,-4.4615,-4.4615,-4.4615,-4.4615,-4.4615,-4.4615,-4.4615,-4.4615,-4.4615,-4.4615,-4.4615,-4.4615,-4.4615,-4.4615,-4.4615,-4.4649,-4.4451,-4.4164,-4.4198,-4.3977,-4.3648,-4.3648,-4.3631,-4.3598,-4.3598,-4.3598,-4.3509,-4.2821,-4.211,-4.136,-4.0715,-3.9965,-3.9373,-3.9379,-3.8452,-3.7449,-3.7375,-3.6462,-3.5549,-3.5519,-3.5504,-3.5504,-3.5504,-3.5504,-3.5504,-3.5504,-3.5444,-3.4996,-3.3724,-3.2378,-3.1511,-3.1511,-3.1511,-3.1511,-3.1511,-3.1511,-3.1511,-3.1511,-3.1511,-3.1511,-3.1511,-3.1511,-3.1511,-3.1511,-3.1511,-3.1511,-3.1511,-3.1511,-3.1511,-3.1511,-3.1511,-3.1511,-3.1511,-3.1511,-3.1511,-3.1511,-3.1351,-3.1029,-2.8924,-3.0057,-3.092,-3.092,-3.1055,-3.1055,-3.0514,-2.9803,-2.8959,-2.7791,-2.7249,-2.7046,-2.725,-2.8383,-2.9941,-3.1972,-3.3068,-3.4404,-3.6508,-3.7432,-3.8176,-3.8903,-3.9656,-4.0096,-4.0096,-4.0096,-4.0096,-4.0096,-4.1271,-4.21,-4.2286,-4.3555,-4.4395,-4.4598,-4.4615,-4.4615,-4.4615,-4.4615,-4.4615,-4.4615,-4.4615,-4.4615,-4.4615,-4.4615,-4.4615,-4.4615,-4.4615,-4.4615,-4.4649,-4.5179,-4.5214,-4.4984,-4.552,-4.5207,-4.4423,-4.4423,-4.4075,-4.3598,-4.3598,-4.3598,-4.3492,-4.282,-4.2094,-4.136,-4.0715,-3.9965,-3.932,-3.8796,-3.8407,-3.7928,-3.6971,-3.6477,-3.6118,-3.5624,-3.5504,-3.5504,-3.5504,-3.5504,-3.5504,-3.5504,-3.4696,-3.3903,-3.3559,-3.2378,-3.1511,-3.1511,-3.1511,-3.1511,-3.1511,-3.1511,-3.1511,-3.1511,-3.1511,-3.1511,-3.1511,-3.1511,-3.1511,-3.1511,-3.1511,-3.1511,-3.1511,-3.1511,-3.1511,-3.1511,-3.1511,-3.1511,-3.1511,-3.1511,-3.1511,-3.1511,-3.1351,-3.1161,-2.9852,-3.0632,-3.119,-3.119,-3.0954,-3.0514,-2.9786,-2.8755,-2.7571,-2.6048,-2.522,-2.4864,-2.5186,-2.6217,-2.7859,-3.0431,-3.2002,-3.3694,-3.596,-3.7212,-3.8176,-3.8903,-3.9656,-4.0096,-4.0096,-4.0096,-4.0231,-4.0544,-4.1644,-4.2286,-4.2286,-4.3768,-4.4615,-4.4615,-4.4615,-4.4615,-4.4615,-4.4615,-4.4615,-4.4615,-4.4615,-4.4615,-4.4615,-4.4615,-4.4615,-4.4632,-4.4925,-4.5077,-4.5128,-4.5872,-4.6001,-4.5721,-4.614,-4.564,-4.4688,-4.4688,-4.4241,-4.3598,-4.3598,-4.3598,-4.3492,-4.2929,-4.2269,-4.1655,-4.0953,-4.0246,-3.9565,-3.9088,-3.8687,-3.8227,-3.7509,-3.6911,-3.6387,-3.6028,-3.5714,-3.5504,-3.5504,-3.5504,-3.5504,-3.5504,-3.4651,-3.3844,-3.3544,-3.2647,-3.1839,-3.154,-3.1511,-3.1511,-3.1511,-3.1511,-3.1511,-3.1511,-3.1511,-3.1511,-3.1511,-3.1511,-3.1511,-3.1511,-3.1511,-3.1511,-3.1511,-3.1511,-3.1511,-3.1511,-3.1511,-3.1511,-3.1511,-3.1511,-3.1511,-3.1511,-3.1409,-3.1322,-3.0207,-3.0717,-3.1173,-3.1072,-3.0581,-2.9854,-2.8908,-2.752,-2.5997,-2.4508,-2.3105,-2.2378,-2.3122,-2.3949,-2.5455,-2.8383,-3.0618,-3.278,-3.4991,-3.6721,-3.8024,-3.8768,-3.9605,-4.0096,-4.0096,-4.0197,-4.0493,-4.1153,-4.1965,-4.2439,-4.2439,-4.3836,-4.4615,-4.4615,-4.4615,-4.4615,-4.4615,-4.4615,-4.4615,-4.4615,-4.4615,-4.4615,-4.4615,-4.4615,-4.4615,-4.4649,-4.5382,-4.5703,-4.5771,-4.6599,-4.6759,-4.6458,-4.6541,-4.594,-4.497,-4.487,-4.4373,-4.3714,-4.3631,-4.3598,-4.3539,-4.3084,-4.2602,-4.2045,-4.1357,-4.0662,-4.0031,-3.9803,-3.9168,-3.8497,-3.8407,-3.7509,-3.6596,-3.6507,-3.5983,-3.5504,-3.5504,-3.5504,-3.5504,-3.5504,-3.4951,-3.4294,-3.3604,-3.2946,-3.2258,-3.16,-3.1511,-3.1511,-3.1511,-3.1511,-3.1511,-3.1511,-3.1511,-3.1511,-3.1511,-3.1511,-3.1511,-3.1511,-3.1511,-3.1511,-3.1511,-3.1511,-3.1511,-3.1511,-3.1511,-3.1511,-3.1511,-3.1511,-3.1511,-3.1511,-3.1511,-3.1511,-3.0835,-3.1106,-3.1055,-3.0446,-3.0192,-2.9583,-2.7554,-2.5946,-2.4457,-2.2987,-2.1989,-2.163,-2.2361,-2.3594,-2.5269,-2.7638,-2.9414,-3.1258,-3.3474,-3.5622,-3.7246,-3.8007,-3.9276,-4.0096,-4.0096,-4.0646,-4.1068,-4.1187,-4.2455,-4.3189,-4.3189,-4.4079,-4.4615,-4.4615,-4.4615,-4.4615,-4.4615,-4.4615,-4.4615,-4.4615,-4.4615,-4.4615,-4.4615,-4.4615,-4.4615,-4.4649,-4.5382,-4.5703,-4.5805,-4.7158,-4.7504,-4.7278,-4.7864,-4.7458,-4.6444,-4.5814,-4.5135,-4.4423,-4.3797,-4.3598,-4.3539,-4.3174,-4.282,-4.2396,-4.172,-4.1005,-4.037,-4.0031,-3.9585,-3.911,-3.8542,-3.7823,-3.712,-3.6611,-3.5983,-3.5504,-3.5504,-3.5504,-3.5504,-3.5504,-3.4951,-3.4294,-3.3604,-3.2946,-3.2258,-3.16,-3.1511,-3.1511,-3.1511,-3.1511,-3.1511,-3.1511,-3.1511,-3.1511,-3.1511,-3.1511,-3.1511,-3.1511,-3.1511,-3.1511,-3.1511,-3.1511,-3.1511,-3.1511,-3.1511,-3.1511,-3.1511,-3.1511,-3.1511,-3.1511,-3.1511,-3.1511,-3.1106,-3.119,-3.1021,-3.0294,-2.982,-2.8924,-2.6657,-2.4983,-2.3376,-2.1485,-2.0517,-2.0107,-2.0467,-2.1752,-2.3509,-2.5727,-2.801,-3.0294,-3.251,-3.512,-3.7083,-3.7821,-3.9191,-4.0096,-4.0096,-4.0764,-4.1373,-4.1745,-4.2794,-4.3392,-4.3392,-4.4147,-4.4615,-4.4615,-4.4615,-4.4615,-4.4615,-4.4615,-4.4615,-4.4615,-4.4615,-4.4615,-4.4615,-4.4615,-4.4615,-4.4649,-4.5382,-4.5923,-4.6363,-4.7432,-4.7925,-4.7998,-4.8381,-4.7841,-4.6858,-4.6493,-4.5649,-4.4638,-4.4307,-4.3913,-4.3568,-4.3402,-4.3127,-4.2758,-4.2061,-4.1358,-4.0684,-4.0231,-3.9753,-3.9349,-3.9005,-3.8167,-3.7345,-3.7045,-3.6222,-3.5504,-3.5504,-3.5504,-3.5504,-3.5504,-3.5235,-3.4801,-3.4159,-3.3739,-3.3305,-3.2647,-3.2228,-3.2019,-3.2019,-3.172,-3.1511,-3.1511,-3.1511,-3.1511,-3.1511,-3.1511,-3.1511,-3.1511,-3.1511,-3.1511,-3.1511,-3.1511,-3.1511,-3.1511,-3.1511,-3.1511,-3.1511,-3.1511,-3.1511,-3.1511,-3.1511,-3.1511,-3.1157,-3.119,-3.0987,-3.0091,-2.9296,-2.8163,-2.5879,-2.4103,-2.2361,-2.0403,-1.9287,-1.8707,-1.8872,-1.9887,-2.1444,-2.3661,-2.6285,-2.8925,-3.1481,-3.4409,-3.6711,-3.777,-3.9191,-4.0096,-4.0096,-4.0899,-4.1677,-4.2252,-4.3149,-4.3673,-4.3673,-4.4248,-4.4615,-4.4615,-4.4615,-4.4615,-4.4615,-4.4615,-4.4615,-4.4615,-4.4615,-4.4615,-4.4615,-4.4615,-4.4615,-4.4649,-4.5382,-4.6126,-4.6853,-4.7614,-4.8158,-4.8515,-4.8515,-4.7942,-4.7123,-4.6957,-4.6063,-4.4903,-4.4738,-4.4224,-4.3598,-4.3598,-4.3432,-4.3082,-4.2412,-4.1672,-4.1008,-4.0409,-3.9859,-3.9388,-3.9388,-3.8422,-3.7345,-3.706,-3.6237,-3.5504,-3.5504,-3.5504,-3.5504,-3.5504,-3.5504,-3.5295,-3.4623,-3.4503,-3.4279,-3.3589,-3.3051,-3.2677,-3.2527,-3.2034,-3.166,-3.1525,-3.1511,-3.1511,-3.1511,-3.1511,-3.1511,-3.1511,-3.1511,-3.1511,-3.1511,-3.1511,-3.1511,-3.1511,-3.1511,-3.1511,-3.1511,-3.1511,-3.157,-3.1705,-3.1705,-3.1795,-3.1021,-3.119,-3.0852,-2.945,-2.8501,-2.7334,-2.5117,-2.2934,-2.114,-2.02,-1.8882,-1.8104,-1.8775,-1.9012,-1.9858,-2.2141,-2.3849,-2.6183,-2.9786,-3.2848,-3.5504,-3.7652,-3.9191,-4.0096,-4.0096,-4.1382,-4.2219,-4.2286,-4.3667,-4.4496,-4.4496,-4.4564,-4.4615,-4.4615,-4.4615,-4.4615,-4.4615,-4.4615,-4.4615,-4.4615,-4.4615,-4.4615,-4.4615,-4.4615,-4.4615,-4.4649,-4.5382,-4.6126,-4.6853,-4.7614,-4.8158,-4.8515,-4.8515,-4.8258,-4.7819,-4.7156,-4.6394,-4.5582,-4.492,-4.4224,-4.3598,-4.3598,-4.3598,-4.3432,-4.2758,-4.2061,-4.1343,-4.0646,-3.993,-3.9388,-3.9388,-3.8422,-3.712,-3.5953,-3.5594,-3.5504,-3.5504,-3.5504,-3.5504,-3.5504,-3.5504,-3.5295,-3.4623,-3.4503,-3.4279,-3.3589,-3.344,-3.3185,-3.2587,-3.2437,-3.2168,-3.157,-3.1511,-3.1511,-3.1511,-3.1511,-3.1511,-3.1511,-3.1511,-3.1511,-3.1511,-3.1511,-3.1511,-3.1511,-3.1511,-3.1511,-3.1511,-3.1511,-3.1809,-3.2392,-3.2392,-3.2736,-3.0345,-3.0869,-3.0835,-2.9365,-2.8399,-2.7097,-2.4441,-2.2477,-2.0852,-1.9604,-1.851,-1.7884,-1.8172,-1.8606,-1.9502,-2.1329,-2.3255,-2.5659,-2.8958,-3.1985,-3.4506,-3.6293,-3.8244,-3.9453,-3.9453,-4.1153,-4.2675,-4.3616,-4.4259,-4.4615,-4.4615,-4.4615,-4.4615,-4.4615,-4.4615,-4.4615,-4.4615,-4.4615,-4.4615,-4.4615,-4.4615,-4.4615,-4.4615,-4.4615,-4.4615,-4.4632,-4.4891,-4.5449,-4.616,-4.6464,-4.6857,-4.7348,-4.7802,-4.7751,-4.7417,-4.7183,-4.6539,-4.5682,-4.4967,-4.4224,-4.3598,-4.3598,-4.3598,-4.3462,-4.2803,-4.2078,-4.136,-4.0681,-3.998,-3.9388,-3.9388,-3.8422,-3.709,-3.5804,-3.5504,-3.5504,-3.5504,-3.5504,-3.5504,-3.5504,-3.5504,-3.5415,-3.5145,-3.51,-3.5011,-3.4741,-3.4352,-3.4024,-3.3724,-3.335,-3.3006,-3.2736,-3.1974,-3.1511,-3.1511,-3.1511,-3.1511,-3.1511,-3.1511,-3.1511,-3.1511,-3.1511,-3.1511,-3.1511,-3.1511,-3.1511,-3.1511,-3.1899,-3.2228,-3.2497,-3.2916,-3.3245,-2.9786,-3.048,-3.0565,-2.9314,-2.823,-2.6759,-2.4019,-2.2057,-2.0467,-1.9164,-1.8318,-1.78,-1.78,-1.8217,-1.9063,-2.0602,-2.2544,-2.4897,-2.7893,-3.0869,-3.3305,-3.4771,-3.6958,-3.843,-3.865,-4.0865,-4.2828,-4.4147,-4.4479,-4.4615,-4.4615,-4.4615,-4.4615,-4.4615,-4.4615,-4.4615,-4.4615,-4.4615,-4.4615,-4.4615,-4.4615,-4.4615,-4.4615,-4.4615,-4.4615,-4.4615,-4.4615,-4.501,-4.5703,-4.5703,-4.6038,-4.6548,-4.7087,-4.7074,-4.6795,-4.6828,-4.6269,-4.5384,-4.4901,-4.4224,-4.3598,-4.3598,-4.3598,-4.3462,-4.2803,-4.2078,-4.136,-4.0681,-3.998,-3.9334,-3.8931,-3.8123,-3.709,-3.5804,-3.5504,-3.5504,-3.5504,-3.5504,-3.5504,-3.5504,-3.5504,-3.5504,-3.5504,-3.5504,-3.5504,-3.5504,-3.51,-3.4728,-3.4533,-3.4099,-3.3709,-3.3514,-3.2662,-3.2079,-3.2079,-3.1914,-3.1795,-3.1795,-3.1615,-3.1511,-3.1511,-3.1511,-3.1585,-3.1795,-3.1795,-3.1884,-3.2079,-3.2587,-3.2901,-3.3095,-3.3574,-3.3888,-2.9499,-3.0125,-2.9939,-2.9196,-2.7859,-2.6116,-2.39,-2.1637,-1.9811,-1.9046,-1.8318,-1.78,-1.78,-1.78,-1.829,-1.9765,-2.1316,-2.3344,-2.6302,-2.9313,-3.1765,-3.3254,-3.5436,-3.7094,-3.7838,-4.0561,-4.2608,-4.3341,-4.4147,-4.4615,-4.4615,-4.4615,-4.4615,-4.4615,-4.4615,-4.4615,-4.4615,-4.4615,-4.4615,-4.4615,-4.4615,-4.4615,-4.4615,-4.4615,-4.4615,-4.4615,-4.4615,-4.501,-4.5703,-4.5703,-4.6038,-4.6498,-4.6514,-4.6304,-4.6012,-4.6012,-4.5471,-4.4705,-4.4688,-4.4224,-4.3598,-4.3598,-4.3598,-4.3462,-4.2803,-4.2078,-4.136,-4.0681,-3.998,-3.9074,-3.7778,-3.7419,-3.709,-3.5804,-3.5504,-3.5504,-3.5504,-3.5504,-3.5504,-3.5504,-3.5504,-3.5504,-3.5504,-3.5504,-3.5504,-3.5504,-3.5489,-3.525,-3.4593,-3.4503,-3.4249,-3.3559,-3.3484,-3.3469,-3.3469,-3.2886,-3.2497,-3.2497,-3.1869,-3.1511,-3.1511,-3.1511,-3.1809,-3.2497,-3.2497,-3.2826,-3.3469,-3.3484,-3.3814,-3.4488,-3.4503,-3.4863,-2.6539,-2.7756,-2.8229,-2.6996,-2.6302,-2.5236,-2.2527,-2.091,-1.9647,-1.8391,-1.7952,-1.78,-1.78,-1.8217,-1.8865,-1.9833,-2.1721,-2.39,-2.6353,-2.9296,-3.1749,-3.3237,-3.5859,-3.8244,-4.0003,-4.1457,-4.2608,-4.3325,-4.4147,-4.4615,-4.4615,-4.4615,-4.4615,-4.4615,-4.4615,-4.4615,-4.4615,-4.4615,-4.4615,-4.4615,-4.4615,-4.4615,-4.4615,-4.4615,-4.4615,-4.4615,-4.4615,-4.4733,-4.4942,-4.4942,-4.5032,-4.5257,-4.5751,-4.5761,-4.5447,-4.546,-4.513,-4.4622,-4.4125,-4.378,-4.3598,-4.3598,-4.3598,-4.3462,-4.2805,-4.2061,-4.126,-4.0091,-3.9589,-3.9074,-3.7764,-3.7404,-3.709,-3.5804,-3.5504,-3.5504,-3.5504,-3.5504,-3.5504,-3.5504,-3.5504,-3.5504,-3.5504,-3.5504,-3.5504,-3.5504,-3.5504,-3.5429,-3.5205,-3.5175,-3.51,-3.4891,-3.4876,-3.4502,-3.3574,-3.3305,-3.2991,-3.2542,-3.2288,-3.1974,-3.1525,-3.1929,-3.2273,-3.2512,-3.2961,-3.329,-3.3499,-3.3948,-3.4517,-3.5175,-3.5175,-3.5295,-2.4543,-2.6065,-2.6674,-2.549,-2.4983,-2.4069,-2.1363,-2.0145,-1.9253,-1.8053,-1.78,-1.78,-1.78,-1.8403,-1.9147,-1.9879,-2.1907,-2.4069,-2.6015,-2.9127,-3.207,-3.4404,-3.6586,-3.8548,-4.0206,-4.1542,-4.2489,-4.2963,-4.3978,-4.4615,-4.4615,-4.4615,-4.4615,-4.4615,-4.4615,-4.4615,-4.4615,-4.4615,-4.4615,-4.4615,-4.4615,-4.4615,-4.4615,-4.4615,-4.4615,-4.4615,-4.4615,-4.4615,0.0,-4.4615,-4.4615,-4.4649,-4.5094,-4.5062,-4.4784,-4.4767,-4.459,-4.4224,-4.3747,-4.3598,-4.3598,-4.3598,-4.3449,-4.3082,-4.2412,-4.1688,-4.0888,-3.9717,-3.9388,-3.9074,-3.7764,-3.7404,-3.709,-3.5804,-3.5504,-3.5504,-3.5504,-3.5504,-3.5504,-3.5504,-3.5504,-3.5504,-3.5504,-3.5504,-3.5504,-3.5504,-3.5504,-3.5504,-3.5504,-3.5504,-3.5504,-3.5504,-3.5504,-3.516,-3.4322,-3.4008,-3.3694,-3.3275,-3.3021,-3.2706,-3.2258,-3.2662,-3.3006,-3.3245,-3.3649,-3.3993,-3.4262,-3.4666,-3.5085,-3.5504,-3.5504,-3.5504,0.0,-2.4763,-2.5203,-2.4508,-2.3831,-2.2733,-2.0521,-1.9423,0.0,-1.7952,-1.78,-1.7817,-1.7867,-1.8538,-1.9316,-2.0035,-2.211,-2.4154,-2.5642,-2.9127,-3.2865,-3.6524,-3.755,-3.8278,-3.9005,-4.1018,-4.2286,-4.2286,-4.3735,-4.4615,-4.4615,-4.4615,-4.4615,-4.4615,-4.4615,-4.4615,-4.4615,-4.4615,-4.4615,-4.4615,-4.4615,-4.4615,-4.4615,-4.4615,-4.4615,-4.4615,-4.4615,-4.4615,-4.4615,-4.4615,-4.4615,-4.4615,-4.4615,-4.44,-4.4097,-4.4097,-4.3894,-4.3598,-4.3598,-4.3598,-4.3598,-4.3598,-4.316,-4.246,-4.1722,-4.1024,-4.0366,-3.9589,-3.9388,-3.9074,-3.7764,-3.7404,-3.709,-3.5804,-3.5504,-3.5504,-3.5504,-3.5504,-3.5504,-3.5504,-3.5504,-3.5504,-3.5504,-3.5504,-3.5504,-3.5504,-3.5504,-3.5504,-3.5504,-3.5504,-3.5504,-3.5504,-3.5504,-3.5504,-3.5504,-3.4921,-3.4563,-3.4503,-3.3934,-3.3544,-3.3499,-3.3544,-3.3844,-3.4503,-3.4563,-3.4861,-3.5504,-3.5504,-3.5504,-3.5504,-3.5504,-3.5504,-2.0826,0.0,-2.3023,-2.2868,-2.2699,-2.211,0.0,-1.9423,-1.8691,-1.7952,-1.78,-1.7969,-1.8538,-1.9752,-2.0903,-2.1637,-2.4103,-2.6454,-2.7994,-3.1867,-3.5554,-3.8159,-3.8633,-3.9022,-3.9774,-4.1348,-4.2286,-4.2286,-4.3735,-4.4615,-4.4615,-4.4615,-4.4615,-4.4615,-4.4615,-4.4615,-4.4615,-4.4615,-4.4615,-4.4615,-4.4615,-4.4615,-4.4615,-4.4615,-4.4615,-4.4615,-4.4615,-4.4615,-4.4615,-4.4615,-4.4615,-4.4615,-4.4615,-4.44,-4.4097,-4.4097,-4.3894,-4.3598,-4.3598,-4.3598,-4.3598,-4.3598,-4.3143,-4.2459,-4.1722,-4.1024,-4.0366,-3.9589,-3.9388,-3.9074,-3.7764,-3.7404,-3.709,-3.5804,-3.5504,-3.5504,-3.5504,-3.5504,-3.5504,-3.5504,-3.5504,-3.5504,-3.5504,-3.5504,-3.5504,-3.5504,-3.5504,-3.5504,-3.5504,-3.5504,-3.5504,-3.5504,-3.5504,-3.5504,-3.5504,-3.5355,-3.504,-3.4533,-3.4354,-3.4023,-3.3514,-3.3978,-3.4354,-3.4503,-3.4996,-3.534,-3.5504,-3.5504,-3.5504,-3.5504,-3.5504,-3.5504,-1.9816,-2.113,-2.2212,-2.187,-2.1803,-2.1397,-1.9845,-1.8915,-1.8285,-1.7884,-1.807,-1.8538,-1.927,-2.094,-2.246,-2.319,-2.5811,-2.8773,-3.163,-3.4404,-3.6975,-3.9249,-3.9495,-3.9673,-4.0062,-4.1119,-4.1796,-4.1796,-4.2861,-4.3548,-4.3548,-4.3548,-4.3548,-4.3548,-4.3859,-4.4215,-4.4615,-4.4615,-4.4615,-4.4615,-4.4615,-4.4615,-4.4615,-4.4615,-4.4615,-4.4615,-4.4615,-4.4615,-4.4615,-4.4615,-4.4615,-4.4598,-4.4514,-4.4298,-4.4097,-4.4027,-4.3852,-4.3598,-4.3598,-4.3568,-4.3492,-4.3402,-4.2929,-4.2238,-4.1492,-4.0854,-4.017,-3.9213,-3.8945,-3.8646,-3.733,-3.6985,-3.6731,-3.5744,-3.5504,-3.5504,-3.5504,-3.5504,-3.5504,-3.5504,-3.5504,-3.5504,-3.5504,-3.5504,-3.5504,-3.5504,-3.5504,-3.5504,-3.5504,-3.5504,-3.5504,-3.5504,-3.5504,-3.5504,-3.5504,-3.5504,-3.5355,-3.4966,-3.4951,-3.4786,-3.4427,-3.4756,-3.4951,-3.4951,-3.531,-3.5504,-3.5504,-3.5504,-3.5504,-3.5504,-3.5504,-3.5504,-1.963,-2.113,-2.2192,-2.1664,-2.1444,-2.1021,-1.9718,-1.8746,-1.8138,-1.8138,-1.8628,-1.9333,-2.02,-2.2124,-2.3866,-2.4846,-2.7723,-3.1224,-3.5211,-3.6552,-3.7879,-3.9859,-4.0096,-4.0096,-4.0096,-4.0764,-4.1204,-4.1204,-4.188,-4.2286,-4.2286,-4.2286,-4.2286,-4.2286,-4.3031,-4.3741,-4.4401,-4.4547,-4.4615,-4.4615,-4.4615,-4.4615,-4.4615,-4.4615,-4.4615,-4.4615,-4.4615,-4.4615,-4.4615,-4.4615,-4.457,-4.4542,-4.4367,-4.4212,-4.4056,-4.3956,-4.3763,-4.3598,-4.3598,-4.3492,-4.3312,-4.3113,-4.257,-4.1883,-4.1142,-4.0581,-3.9904,-3.8747,-3.8467,-3.8257,-3.6956,-3.6626,-3.6447,-3.5684,-3.5504,-3.5504,-3.5504,-3.5504,-3.5504,-3.5504,-3.5504,-3.5504,-3.5504,-3.5504,-3.5504,-3.5504,-3.5504,-3.5504,-3.5504,-3.5504,-3.5504,-3.5504,-3.5504,-3.5504,-3.5504,-3.5504,-3.5504,-3.5504,-3.5504,-3.5504,-3.5504,-3.5504,-3.5504,-3.5504,-3.5504,-3.5504,-3.5504,-3.5504,-3.5504,-3.5504,-3.5504,-3.5504,-1.9765,-2.113,-2.2429,-2.2919,-2.2581,-2.206,-2.1823,-2.0673,-1.9664,-1.9664,-1.9748,-2.0268,-2.1688,-2.3241,-2.4982,-2.6962,-3.0869,-3.4336,-3.6355,-3.7787,-3.9005,-3.9994,-4.0096,-4.0096,-4.0096,-4.0764,-4.1204,-4.1204,-4.188,-4.2286,-4.2286,-4.2286,-4.2286,-4.2286,-4.3031,-4.3443,-4.3589,-4.4248,-4.4615,-4.4615,-4.4615,-4.4615,-4.4615,-4.4615,-4.4615,-4.4615,-4.4615,-4.4615,-4.4615,-4.4615,-4.4497,-4.4338,-4.4293,-4.4155,-4.3927,-4.3898,-4.3763,-4.3598,-4.3598,-4.3402,-4.3096,-4.2772,-4.2206,-4.1555,-4.0786,-4.0335,-3.9809,-3.8727,-3.8811,-3.8945,-3.7614,-3.727,-3.6971,-3.5789,-3.5504,-3.5504,-3.5504,-3.5504,-3.5504,-3.5504,-3.5504,-3.5504,-3.5504,-3.5504,-3.5504,-3.5504,-3.5504,-3.5504,-3.5504,-3.5504,-3.5504,-3.5504,-3.5504,-3.5504,-3.5504,-3.5504,-3.5504,-3.5504,-3.5504,-3.5504,-3.5504,-3.5504,-3.5504,-3.5504,-3.5504,-3.5504,-3.5504,-3.5504,-3.5504,-3.5504,-3.5504,-3.5504,-1.9693,-2.113,-2.2567,-2.3712,-2.3731,-2.3376,-2.2987,-2.2043,-2.1248,-2.1248,-2.1552,-2.231,-2.3801,-2.5642,-2.8062,-3.1458,-3.3761,-3.5774,-3.7726,-3.8565,-3.9259,-4.0011,-4.0096,-4.0096,-4.0096,-4.0417,-4.0595,-4.0595,-4.0925,-4.1128,-4.1128,-4.1128,-4.1128,-4.1128,-4.183,-4.2219,-4.2219,-4.3369,-4.4164,-4.4615,-4.4615,-4.4615,-4.4615,-4.4615,-4.4615,-4.4615,-4.4615,-4.4615,-4.4598,-4.4468,-4.4367,-4.4281,-4.4155,-4.3998,-4.3898,-4.3763,-4.3687,-4.3598,-4.3598,-4.3342,-4.2914,-4.2476,-4.1867,-4.1189,-4.0455,-4.0051,-3.9707,-3.9107,-3.8901,-3.8556,-3.724,-3.6911,-3.6671,-3.5729,-3.5504,-3.5504,-3.5504,-3.5504,-3.5504,-3.5504,-3.5504,-3.5504,-3.5504,-3.5504,-3.5504,-3.5504,-3.5504,-3.5504,-3.5504,-3.5504,-3.5504,-3.5504,-3.5504,-3.5504,-3.5504,-3.5504,-3.5504,-3.5504,-3.5504,-3.5504,-3.5504,-3.5504,-3.5504,-3.5504,-3.5504,-3.5504,-3.5504,-3.5504,-3.5504,-3.5504,-3.5504,-3.5504,-1.9389,-2.0859,-2.2361,-2.3661,-2.4372,-2.466,-2.4255,-2.3596,-2.3108,-2.3294,-2.3782,-2.456,-2.5896,-2.8112,-3.1058,-3.4957,-3.5904,-3.68,-3.8717,-3.914,-3.9486,-4.0028,-4.0096,-4.0096,-4.0096,-4.0096,-4.0096,-4.0096,-4.0096,-4.0096,-4.0096,-4.0096,-4.0096,-4.0096,-4.0815,-4.1204,-4.1204,-4.2675,-4.3724,-4.4316,-4.4513,-4.4615,-4.4615,-4.4615,-4.4615,-4.4615,-4.4615,-4.457,-4.4514,-4.4367,-4.4253,-4.4184,-4.3969,-4.3868,-4.3793,-4.3658,-4.3598,-4.3598,-4.3598,-4.3251,-4.2728,-4.2158,-4.1522,-4.0833,-4.0086,-3.9732,-3.9589,-3.9445,-3.9035,-3.8362,-3.7225,-3.6926,-3.6776,-3.6103,-3.5848,-3.5729,-3.5729,-3.5609,-3.5504,-3.5504,-3.5504,-3.5504,-3.5504,-3.5504,-3.5504,-3.5504,-3.5504,-3.5504,-3.5504,-3.5504,-3.5504,-3.5504,-3.5504,-3.5504,-3.5504,-3.5504,-3.5504,-3.5504,-3.5504,-3.5504,-3.5504,-3.5504,-3.5504,-3.5504,-3.5504,-3.5504,-3.5504,-3.5504,-3.5504,-3.5504,-3.5504,-3.5504,-1.8758,-2.0107,-2.1478,-2.226,-2.4003,-2.5693,-2.6319,-2.5896,-2.5558,-2.6234,-2.6437,-2.6708,-2.7503,-3.0057,-3.2852,-3.5211,-3.6783,-3.8041,-3.887,-3.9605,-4.0045,-4.0096,-4.0096,-4.0096,-4.0096,-4.0096,-4.0096,-4.0096,-4.0096,-4.0096,-4.0096,-4.0096,-4.0096,-4.0096,-4.0815,-4.1204,-4.1204,-4.2675,-4.3426,-4.3494,-4.4231,-4.4615,-4.4615,-4.4615,-4.4615,-4.4615,-4.4615,-4.4497,-4.4338,-4.431,-4.4155,-4.3927,-4.3898,-4.3793,-4.3628,-4.3598,-4.3598,-4.3598,-4.3598,-4.316,-4.2492,-4.177,-4.1091,-4.042,-3.9661,-3.9424,-3.9424,-3.9409,-3.9394,-3.917,-3.8437,-3.8242,-3.8078,-3.7419,-3.6836,-3.6417,-3.6417,-3.5938,-3.5504,-3.5504,-3.5504,-3.5504,-3.5504,-3.5504,-3.5504,-3.5504,-3.5504,-3.5504,-3.5504,-3.5504,-3.5504,-3.5504,-3.5504,-3.5504,-3.5504,-3.5504,-3.5504,-3.5504,-3.5504,-3.5504,-3.5504,-3.5504,-3.5504,-3.5504,-3.5504,-3.5504,-3.5504,-3.5504,-3.5504,-3.5504,-3.5504,-3.5504,-1.9372,-2.072,-2.2175,-2.3359,-2.4983,-2.6353,-2.664,-2.7233,-2.7909,-2.8653,-2.9178,-2.9719,-3.0463,-3.2273,-3.4273,-3.6045,-3.7212,-3.8328,-3.9537,-3.9926,-4.0096,-4.0096,-4.0096,-4.0096,-4.0096,-4.0096,-4.0096,-4.0096,-4.0096,-4.0096,-4.0096,-4.0096,-4.0096,-4.0096,-4.0383,-4.0536,-4.0536,-4.1525,-4.198,-4.1916,-4.373,-4.4615,-4.4615,-4.4615,-4.4615,-4.4598,-4.4468,-4.4367,-4.4281,-4.4126,-4.3998,-4.3898,-4.3763,-4.3658,-4.3598,-4.3598,-4.3598,-4.3598,-4.3598,-4.316,-4.2492,-4.1738,-4.1057,-4.0351,-3.9625,-3.9388,-3.9388,-3.9388,-3.9388,-3.926,-3.8571,-3.8392,-3.8227,-3.7569,-3.724,-3.6956,-3.6567,-3.6297,-3.5998,-3.5579,-3.5504,-3.5504,-3.5504,-3.5504,-3.5504,-3.5504,-3.5848,-3.6118,-3.6118,-3.6447,-3.6552,-3.6148,-3.5744,-3.5504,-3.5504,-3.5504,-3.5504,-3.5504,-3.5504,-3.5504,-3.5504,-3.5504,-3.5504,-3.5504,-3.5504,-3.5504,-3.5504,-3.5504,-3.5504,-3.5504,-3.5504,-3.5504,-1.9849,-2.0961,-2.226,-2.3509,-2.5084,-2.6539,-2.7249,-2.8604,-2.9907,-3.0632,-3.1376,-3.2121,-3.2869,-3.3833,-3.5064,-3.6857,-3.7567,-3.8413,-3.9893,-4.0096,-4.0096,-4.0096,-4.0096,-4.0096,-4.0096,-4.0096,-4.0096,-4.0096,-4.0096,-4.0096,-4.0096,-4.0096,-4.0096,-4.0096,-4.0096,-4.0096,-4.0096,-4.0832,-4.1126,-4.1038,-4.3141,-4.4159,-4.4159,-4.4395,-4.4514,-4.4514,-4.4367,-4.4253,-4.4155,-4.3985,-4.3868,-4.3793,-4.3658,-4.3598,-4.3598,-4.3598,-4.3598,-4.3598,-4.3598,-4.3143,-4.2476,-4.1738,-4.1057,-4.0351,-3.9625,-3.9388,-3.9388,-3.9388,-3.9388,-3.9305,-3.8841,-3.8721,-3.8601,-3.8153,-3.7883,-3.7539,-3.6911,-3.6626,-3.6297,-3.5624,-3.5669,-3.5818,-3.5818,-3.5968,-3.6103,-3.6103,-3.6492,-3.6776,-3.6776,-3.715,-3.724,-3.6821,-3.6372,-3.6028,-3.5833,-3.5818,-3.5729,-3.5519,-3.5504,-3.5504,-3.5504,-3.5504,-3.5504,-3.5504,-3.5504,-3.5504,-3.5504,-3.5504,-3.5504,-3.5504,-3.5504,-3.5504,-2.0018,-2.0619,-2.141,-2.2158,-2.4003,-2.6234,-2.8502,-3.0161,-3.141,-3.2175,-3.2899,-3.3643,-3.437,-3.4506,-3.525,-3.7533,-3.7905,-3.843,-3.9893,-4.0096,-4.0096,-4.0096,-4.0096,-4.0096,-4.0096,-4.0096,-4.0096,-4.0096,-4.0096,-4.0096,-4.0096,-4.0096,-4.0096,-4.0096,-4.0096,-4.0096,-4.0096,-4.0815,-4.1109,-4.1021,-4.2492,-4.3199,-4.3227,-4.3956,-4.431,-4.431,-4.431,-4.4155,-4.3898,-4.3898,-4.3763,-4.3598,-4.3598,-4.3598,-4.3598,-4.3598,-4.3598,-4.3598,-4.3598,-4.3174,-4.2475,-4.1722,-4.1057,-4.0351,-3.9625,-3.9388,-3.9388,-3.9388,-3.9388,-3.9388,-3.9388,-3.9388,-3.9388,-3.9388,-3.8901,-3.8212,-3.7554,-3.6926,-3.6297,-3.5639,-3.6028,-3.6492,-3.6492,-3.7,-3.7404,-3.7404,-3.7419,-3.7419,-3.7434,-3.7419,-3.7419,-3.7419,-3.7404,-3.7165,-3.6552,-3.6492,-3.6207,-3.5549,-3.5504,-3.5504,-3.5504,-3.5504,-3.5504,-3.5504,-3.5504,-3.5504,-3.5504,-3.5504,-3.5504,-3.5504,-3.5519,-3.5519,-2.1468,-2.2175,-2.3171,-2.4949,-2.6691,-2.8433,-3.0161,-3.1295,-3.2479,-3.4269,-3.4788,-3.4878,-3.4556,-3.5391,-3.6338,-3.7032,-3.799,-3.9005,-3.9977,-4.0096,-4.0096,-4.0096,-4.0096,-4.0096,-4.0096,-4.0096,-4.0096,-4.0096,-4.0096,-4.0096,-4.0096,-4.0096,-4.0096,-4.0096,-4.0096,-4.0062,-3.9961,-4.0197,-4.022,-4.0091,-4.1573,-4.2601,-4.3227,-4.386,-4.4196,-4.431,-4.4097,-4.3969,-4.3898,-4.3763,-4.3658,-4.3598,-4.3598,-4.3598,-4.3598,-4.3598,-4.3539,-4.3432,-4.3312,-4.2789,-4.2126,-4.1409,-4.0752,-4.0196,-3.9589,-3.9388,-3.9388,-3.9388,-3.9388,-3.9388,-3.9388,-3.9388,-3.9388,-3.9388,-3.926,-3.8796,-3.7659,-3.727,-3.6806,-3.5714,-3.6028,-3.6492,-3.6492,-3.7,-3.7404,-3.7404,-3.7808,-3.8272,-3.8766,-3.8407,-3.8093,-3.8093,-3.7689,-3.7345,-3.715,-3.6731,-3.6402,-3.6207,-3.5759,-3.5504,-3.5504,-3.5504,-3.5504,-3.5504,-3.5504,-3.5504,-3.5504,-3.5504,-3.5504,-3.5519,-3.5983,-3.6193,-2.2107,-2.3054,-2.4305,-2.6218,-2.8078,-2.9973,-3.2036,-3.2852,-3.3626,-3.5245,-3.56,-3.5549,-3.5436,-3.6186,-3.6998,-3.7591,-3.8413,-3.9242,-3.9994,-4.0096,-4.0096,-4.0096,-4.0096,-4.0096,-4.0096,-4.0096,-4.0096,-4.0096,-4.0096,-4.0096,-4.0096,-4.0096,-4.0096,-4.0096,-4.0096,-4.0037,-3.9901,-3.9901,-3.9833,-3.972,-4.1147,-4.2111,-4.2713,-4.3685,-4.4126,-4.4126,-4.3881,-4.3763,-4.3763,-4.3658,-4.3598,-4.3598,-4.3598,-4.3598,-4.3598,-4.3598,-4.3462,-4.3235,-4.2974,-4.2476,-4.1769,-4.1042,-4.0478,-4.0036,-3.9553,-3.9388,-3.9388,-3.9388,-3.9388,-3.9388,-3.9388,-3.9388,-3.9388,-3.9388,-3.9388,-3.9125,-3.8033,-3.7808,-3.7494,-3.6462,-3.6791,-3.724,-3.724,-3.7778,-3.8212,-3.8212,-3.8542,-3.8945,-3.9364,-3.905,-3.8796,-3.8796,-3.8452,-3.8093,-3.7823,-3.7449,-3.7135,-3.6866,-3.6477,-3.6267,-3.6267,-3.5774,-3.5504,-3.5504,-3.5504,-3.5504,-3.5504,-3.5504,-3.5639,-3.5908,-3.6297,-3.6611,-2.2209,-2.3477,-2.4965,-2.6522,-2.867,-3.114,-3.3964,-3.459,-3.4793,-3.5447,-3.565,-3.5943,-3.6677,-3.6914,-3.7455,-3.8768,-3.9056,-3.9326,-4.0011,-4.0096,-4.0096,-4.0096,-4.0096,-4.0096,-4.0096,-4.0096,-4.0096,-4.007,-4.0087,-4.0087,-4.0087,-4.0087,-4.0087,-4.0087,-4.0087,-4.0011,-3.9901,-3.9875,-3.9807,-3.972,-4.1015,-4.1699,-4.1826,-4.3366,-4.3998,-4.3868,-4.3687,-4.3598,-4.3598,-4.3598,-4.3598,-4.3598,-4.3598,-4.3598,-4.3598,-4.3552,-4.3342,-4.299,-4.2617,-4.2093,-4.1423,-4.0699,-4.0246,-3.9889,-3.9532,-3.9388,-3.9388,-3.9388,-3.9388,-3.9388,-3.9388,-3.9388,-3.9388,-3.9388,-3.9388,-3.923,-3.8542,-3.8392,-3.8197,-3.7539,-3.7943,-3.8392,-3.8392,-3.896,-3.9388,-3.9388,-3.9388,-3.9388,-3.9388,-3.9388,-3.9388,-3.9388,-3.9388,-3.917,-3.8542,-3.8422,-3.8138,-3.7539,-3.7434,-3.7404,-3.7404,-3.6297,-3.5684,-3.5684,-3.5684,-3.5684,-3.5684,-3.5684,-3.5983,-3.6567,-3.6626,-3.6971,-2.297,-2.4239,-2.5862,-2.7977,-3.0615,-3.3169,-3.494,-3.5346,-3.5397,-3.5566,-3.6096,-3.6586,-3.6778,-3.776,-3.8616,-3.8937,-3.9503,-3.9926,-4.0079,-4.0096,-4.0096,-4.0096,-4.0096,-4.0096,-4.0096,-4.0096,-4.0062,-3.9935,-3.9935,-3.9935,-3.9935,-3.9935,-3.9935,-3.9935,-3.9935,-3.9901,-3.9755,-3.9729,-3.9729,-3.972,-4.0572,-4.0942,-4.0927,-4.2845,-4.3687,-4.3658,-4.3628,-4.3598,-4.3598,-4.3598,-4.3598,-4.3598,-4.3598,-4.3539,-4.3432,-4.3265,-4.2929,-4.246,-4.2013,-4.1456,-4.0901,-4.0296,-3.9945,-3.9732,-3.9445,-3.9388,-3.9388,-3.9388,-3.9388,-3.9388,-3.9388,-3.9388,-3.9388,-3.9388,-3.9388,-3.923,-3.8542,-3.8392,-3.8197,-3.7539,-3.7943,-3.8392,-3.8392,-3.896,-3.9388,-3.9388,-3.9388,-3.9388,-3.9388,-3.9388,-3.9388,-3.9388,-3.9388,-3.9328,-3.9215,-3.8691,-3.8332,-3.8182,-3.7689,-3.7404,-3.7404,-3.715,-3.7,-3.7,-3.7,-3.7,-3.7,-3.7,-3.7075,-3.7225,-3.7749,-3.8048,-2.2665,-2.4475,-2.6928,-3.026,-3.2256,-3.3795,-3.5261,-3.56,-3.56,-3.56,-3.6231,-3.6914,-3.7246,-3.8227,-3.9106,-3.9462,-3.9859,-4.0096,-4.0096,-4.0096,-4.0096,-4.0096,-4.0096,-4.0096,-4.0096,-4.0096,-4.0037,-3.9901,-3.9961,-3.9961,-3.9901,-3.9961,-3.9977,-3.9901,-3.9901,-3.9849,-3.9703,-3.9642,-3.9642,-3.972,-4.0314,-4.0739,-4.1039,-4.2083,-4.2539,-4.2539,-4.2539,-4.2738,-4.3069,-4.3069,-4.3267,-4.3598,-4.3598,-4.3462,-4.3204,-4.2943,-4.2507,-4.1916,-4.1307,-4.0783,-4.0331,-3.9854,-3.964,-3.9553,-3.9424,-3.9388,-3.9388,-3.9388,-3.9388,-3.9388,-3.9388,-3.9388,-3.9388,-3.9388,-3.9388,-3.932,-3.896,-3.8886,-3.8781,-3.8437,-3.8646,-3.8886,-3.8886,-3.9185,-3.9388,-3.9388,-3.9388,-3.9388,-3.9388,-3.9388,-3.9388,-3.9388,-3.9388,-3.9388,-3.9388,-3.9095,-3.8886,-3.8886,-3.8556,-3.8377,-3.8377,-3.8377,-3.8078,-3.7419,-3.7404,-3.7404,-3.7404,-3.7404,-3.7569,-3.7883,-3.8227,-3.8556,-2.2107,-2.4644,-2.8112,-3.2341,-3.3406,-3.3795,-3.5261,-3.56,-3.56,-3.56,-3.6332,-3.7161,-3.7787,-3.8616,-3.9402,-4.0011,-4.0096,-4.0096,-4.0096,-4.0096,-4.0096,-4.0096,-4.0096,-4.007,-4.0087,-4.0062,-4.0011,-3.9875,-3.9961,-3.9986,-3.9901,-4.0011,-4.0011,-3.9875,-3.9875,-3.9781,-3.9651,-3.9563,-3.9563,-3.9668,-4.002,-4.0481,-4.1044,-4.1044,-4.1149,-4.1352,-4.1324,-4.1725,-4.2373,-4.2343,-4.2772,-4.3432,-4.3432,-4.3204,-4.2881,-4.2554,-4.2029,-4.1357,-4.0665,-4.0211,-3.9889,-3.9532,-3.9388,-3.9388,-3.9388,-3.9388,-3.9388,-3.9388,-3.9388,-3.9388,-3.9388,-3.9388,-3.9388,-3.9388,-3.9388,-3.9388,-3.9388,-3.9388,-3.9388,-3.9388,-3.9388,-3.9388,-3.9388,-3.9388,-3.9388,-3.9388,-3.9388,-3.9388,-3.9388,-3.9388,-3.9388,-3.9388,-3.9388,-3.9388,-3.9388,-3.9388,-3.9388,-3.9388,-3.9388,-3.9388,-3.9388,-3.9388,-3.8901,-3.7778,-3.7764,-3.7764,-3.7764,-3.7764,-3.8033,-3.8571,-3.8571,-3.8871,-2.2107,-2.5423,-2.945,-3.2611,-3.3406,-3.3795,-3.5261,-3.56,-3.56,-3.56,-3.6755,-3.7787,-3.7889,-3.9005,-3.9994,-4.0079,-4.0096,-4.0096,-4.0096,-4.0096,-4.0096,-4.0096,-4.0096,-4.0062,-3.9952,-3.9926,-3.9858,-3.9729,-3.9755,-3.9781,-3.9901,-3.9926,-3.9875,-3.9729,-3.9729,-3.9651,-3.9511,-3.9528,-3.9528,-3.9528,-3.9478,-3.9497,-3.958,-3.958,-4.0178,-4.121,-4.1083,-4.1364,-4.1868,-4.1778,-4.2124,-4.2741,-4.2741,-4.2539,-4.2206,-4.1851,-4.139,-4.0833,-4.0261,-3.991,-3.9696,-3.9481,-3.9388,-3.9388,-3.9388,-3.9388,-3.9388,-3.9388,-3.9388,-3.9388,-3.9388,-3.9388,-3.9388,-3.9388,-3.9388,-3.9388,-3.9388,-3.9388,-3.9388,-3.9388,-3.9388,-3.9388,-3.9388,-3.9388,-3.9388,-3.9388,-3.9388,-3.9388,-3.9388,-3.9388,-3.9388,-3.9388,-3.9388,-3.9388,-3.9388,-3.9388,-3.9388,-3.9388,-3.9388,-3.9388,-3.9388,-3.9388,-3.9298,-3.9119,-3.9155,-3.9155,-3.9155,-3.9155,-3.92,-3.929,-3.929,-3.9334,-2.3613,-2.6184,-2.9042,-3.2036,-3.3085,-3.3694,-3.4742,-3.5295,-3.56,-3.56,-3.684,-3.7905,-3.7905,-3.9106,-4.0096,-4.0096,-4.0096,-4.0096,-4.0096,-4.0096,-4.0096,-4.0096,-4.0096,-4.0062,-3.9926,-3.9901,-3.9833,-3.9703,-3.9755,-3.9849,-3.9901,-3.9901,-3.9849,-3.9703,-3.9642,-3.9563,-3.9501,-3.9448,-3.9395,-3.9395,-3.9325,-3.9299,-3.9299,-3.9299,-3.9495,-3.9823,-3.9581,-3.994,-4.0706,-4.046,-4.1007,-4.1981,-4.1981,-4.177,-4.1458,-4.1091,-4.0715,-4.0296,-3.9818,-3.9604,-3.9517,-3.9424,-3.9388,-3.9388,-3.9388,-3.9388,-3.9388,-3.9388,-3.9388,-3.9388,-3.9388,-3.9388,-3.9388,-3.9388,-3.9388,-3.9388,-3.9388,-3.9388,-3.9388,-3.9388,-3.9388,-3.9388,-3.9388,-3.9388,-3.9388,-3.9388,-3.9388,-3.9388,-3.9388,-3.9388,-3.9388,-3.9388,-3.9388,-3.9388,-3.9388,-3.9388,-3.9388,-3.9388,-3.9388,-3.9388,-3.9388,-3.9388,-3.9388,-3.9388,-3.9388,-3.9388,-3.9388,-3.9388,-3.9388,-3.9388,-3.9388,-3.9388,-2.4069,-2.5964,-2.7908,-3.0753,-3.2154,-3.3085,-3.4015,-3.4793,-3.5363,-3.5566,-3.6688,-3.7686,-3.7872,-3.9106,-4.0096,-4.0096,-4.0096,-4.0096,-4.0096,-4.0096,-4.0096,-4.0096,-4.0096,-4.0037,-3.9875,-3.9849,-3.9824,-3.9703,-3.9781,-3.9858,-3.9901,-3.9901,-3.9807,-3.9651,-3.9537,-3.9484,-3.9448,-3.9352,-3.9299,-3.9299,-3.9299,-3.9299,-3.9299,-3.9299,-3.9121,-3.8761,-3.8467,-3.8917,-3.9811,-3.9455,-4.0085,-4.1309,-4.1276,-4.1075,-4.0771,-4.0493,-4.0176,-3.9854,-3.9517,-3.9388,-3.9388,-3.9388,-3.9388,-3.9388,-3.9388,-3.9388,-3.9388,-3.9388,-3.9388,-3.9388,-3.9388,-3.9388,-3.9388,-3.9388,-3.9388,-3.9388,-3.9388,-3.9388,-3.9388,-3.9388,-3.9388,-3.9388,-3.9388,-3.9388,-3.9388,-3.9388,-3.9388,-3.9388,-3.9388,-3.9388,-3.9388,-3.9388,-3.9388,-3.9388,-3.9388,-3.9388,-3.9388,-3.9388,-3.9388,-3.9388,-3.9388,-3.9388,-3.9388,-3.9388,-3.9388,-3.9388,-3.9388,-3.9388,-3.9388,-3.9388,-3.9388,-3.9388,-2.2026,-2.4054,-2.6268,-2.8604,-3.0262,-3.1681,-3.3136,-3.4032,-3.4759,-3.5447,-3.6265,-3.7083,-3.777,-3.9106,-4.0096,-4.0096,-4.0096,-4.0096,-4.0096,-4.0096,-4.0096,-4.0096,-4.0096,-4.0011,-3.9729,-3.9703,-3.9703,-3.9703,-3.9703,-3.9755,-3.9901,-3.9901,-3.9772,-3.9528,-3.9501,-3.9448,-3.9299,-3.9299,-3.9299,-3.9299,-3.9299,-3.9299,-3.9299,-3.9299,-3.9121,-3.8777,-3.8516,-3.8894,-3.9674,-3.9219,-3.9757,-4.0833,-4.0627,-4.0439,-4.0216,-4.0086,-3.9874,-3.9696,-3.9481,-3.9388,-3.9388,-3.9388,-3.9388,-3.9388,-3.9388,-3.9388,-3.9388,-3.9388,-3.9388,-3.9388,-3.9388,-3.9388,-3.9388,-3.9388,-3.9388,-3.9388,-3.9388,-3.9388,-3.9388,-3.9388,-3.9388,-3.9388,-3.9388,-3.9388,-3.9388,-3.9388,-3.9388,-3.9388,-3.9388,-3.9388,-3.9388,-3.9388,-3.9388,-3.9388,-3.9388,-3.9388,-3.9388,-3.9388,-3.9388,-3.9388,-3.9388,-3.9388,-3.9388,-3.9388,-3.9388,-3.9388,-3.9388,-3.9388,-3.9388,-3.9388,-3.9388,-3.9388,-2.1042,-2.2513,-2.402,-2.6251,-2.7943,-2.9413,-3.0954,-3.2577,-3.3998,-3.4742,-3.5893,-3.688,-3.7168,-3.8403,-3.9554,-4.0028,-4.0096,-4.0096,-4.0096,-4.0096,-4.0096,-4.0096,-4.0096,-3.9995,-3.9729,-3.9703,-3.9703,-3.9703,-3.9703,-3.9755,-3.9901,-3.9807,-3.9694,-3.9501,-3.9422,-3.9352,-3.9299,-3.9299,-3.9299,-3.9299,-3.9299,-3.9299,-3.9299,-3.9299,-3.9121,-3.8777,-3.8532,-3.8579,-3.8823,-3.823,-3.8616,-3.9555,-3.9263,-3.936,-3.9681,-3.9625,-3.9553,-3.9481,-3.9409,-3.9388,-3.9388,-3.9388,-3.9388,-3.9388,-3.9388,-3.9388,-3.9388,-3.9388,-3.9388,-3.9388,-3.9388,-3.9388,-3.9388,-3.9388,-3.9388,-3.9388,-3.9388,-3.9388,-3.9388,-3.9388,-3.9388,-3.9388,-3.9388,-3.9388,-3.9388,-3.9388,-3.9388,-3.9388,-3.9388,-3.9388,-3.9388,-3.9388,-3.9388,-3.9388,-3.9388,-3.9388,-3.9388,-3.9388,-3.9388,-3.9388,-3.9388,-3.9388,-3.9388,-3.9388,-3.9388,-3.9388,-3.9388,-3.9388,-3.9388,-3.9388,-3.9388,-3.9388,-1.9955,-2.0974,-2.2009,-2.4003,-2.5592,-2.7165,-2.8922,-3.0869,-3.2645,-3.388,-3.5131,-3.6186,-3.6711,-3.7608,-3.8565,-3.9571,-3.9943,-4.0096,-4.0096,-4.0096,-4.0096,-4.0096,-4.0096,-3.9995,-3.9729,-3.9703,-3.9703,-3.9703,-3.9703,-3.9729,-3.9824,-3.9755,-3.9625,-3.9448,-3.9352,-3.9299,-3.9299,-3.9299,-3.9299,-3.9299,-3.9299,-3.9299,-3.9299,-3.9299,-3.9121,-3.8761,-3.85,-3.8373,-3.8352,-3.77,-3.7999,-3.8895,-3.8532,-3.8811,-3.9388,-3.9388,-3.9388,-3.9388,-3.9388,-3.9388,-3.9388,-3.9388,-3.9388,-3.9388,-3.9388,-3.9388,-3.9388,-3.9388,-3.9388,-3.9388,-3.9388,-3.9388,-3.9388,-3.9388,-3.9388,-3.9388,-3.9388,-3.9388,-3.9388,-3.9388,-3.9388,-3.9388,-3.9388,-3.9388,-3.9388,-3.9388,-3.9388,-3.9388,-3.9388,-3.9388,-3.9388,-3.9388,-3.9388,-3.9388,-3.9388,-3.9388,-3.9388,-3.9388,-3.9388,-3.9388,-3.9388,-3.9388,-3.9388,-3.9388,-3.9388,-3.9388,-3.9388,-3.9388,-3.9388,-3.9388,-3.9388,-3.9388,0.0,0.0,0.0,-2.1823,-2.3308,-2.4982,-2.7164,-2.8889,-3.0647,-3.2848,-3.3914,-3.4934,-3.6457,-3.6778,-3.7269,-3.8684,-3.9571,-4.0079,-4.0096,-4.0096,-4.0096,-4.0096,-4.0096,-3.9995,-3.9729,-3.9703,-3.9703,-3.9703,-3.9703,-3.9703,-3.9703,-3.9703,-3.9573,-3.9299,-3.9299,-3.9299,-3.9299,-3.9299,-3.9299,-3.9299,-3.9299,-3.9299,-3.9299,-3.9299,-3.9121,-3.8761,-3.8451,-3.8325,-3.8337,-3.7653,-3.8017,-3.8944,-3.8517,-3.8796,-3.9388,-3.9388,-3.9388,-3.9388,-3.9388,-3.9388,-3.9388,-3.9388,-3.9388,-3.9388,-3.9388,-3.9388,-3.9388,-3.9388,-3.9388,-3.9388,-3.9388,-3.9388,-3.9388,-3.9388,-3.9388,-3.9388,-3.9388,-3.9388,-3.9388,-3.9388,-3.9388,-3.9388,-3.9388,-3.9388,-3.9388,-3.9388,-3.9388,-3.9388,-3.9388,-3.9388,-3.9388,-3.9388,-3.9388,-3.9388,-3.9388,-3.9388,-3.9388,-3.9388,-3.9388,-3.9388,-3.9388,-3.9388,-3.9388,-3.9388,-3.9388,-3.9388,-3.9388,-3.9388,-3.9388,-3.9388,-3.9388,-3.9388,-1.7896,0.0,0.0,0.0,0.0,0.0,-2.4239,-2.659,-2.8922,-3.0666,-3.2459,-3.3998,-3.4945,-3.6051,-3.6931,-3.7354,-3.8488,-3.9503,-4.0028,-4.0096,-4.0096,-4.0096,-4.0096,-3.9995,-3.9729,-3.9703,-3.9703,-3.9703,-3.9616,-3.9616,-3.9703,-3.9537,-3.9379,-3.9299,-3.9299,-3.9299,-3.9299,-3.9299,-3.9299,-3.9299,-3.9299,-3.9299,-3.9299,-3.9299,-3.9121,-3.8777,-3.85,-3.8187,-3.7822,-3.7018,-3.7266,-3.8182,-3.7811,-3.8392,-3.9388,-3.9388,-3.9388,-3.9388,-3.9388,-3.9388,-3.9388,-3.9388,-3.9388,-3.9388,-3.9388,-3.9388,-3.9388,-3.9388,-3.9388,-3.9388,-3.9388,-3.9388,-3.9388,-3.9388,-3.9388,-3.9388,-3.9388,-3.9388,-3.9388,-3.9388,-3.9388,-3.9388,-3.9388,-3.9388,-3.9388,-3.9388,-3.9388,-3.9388,-3.9388,-3.9388,-3.9388,-3.9388,-3.9388,-3.9388,-3.9388,-3.9388,-3.9388,-3.9388,-3.9388,-3.9388,-3.9388,-3.9388,-3.9388,-3.9388,-3.9388,-3.9388,-3.9388,-3.9388,-3.9388,-3.9388,-3.9388,-3.9388,-1.8594,-1.8729,-1.8899,-1.9667,0.0,0.0,-2.3458,-2.5439,-2.7401,-2.9262,-3.1157,-3.2713,-3.3461,-3.4578,-3.547,-3.5797,-3.6823,-3.7956,-3.9022,-3.9174,-3.9174,-3.9174,-3.9445,-3.9556,-3.9345,-3.9613,-3.9755,-3.9703,-3.9642,-3.959,-3.9616,-3.9405,-3.9299,-3.9299,-3.9299,-3.9299,-3.9299,-3.9299,-3.9299,-3.9299,-3.9299,-3.9299,-3.9299,-3.9299,-3.9121,-3.8761,-3.85,-3.8132,-3.7727,-3.7087,-3.7357,-3.8129,-3.7745,-3.8402,-3.9517,-3.9424,-3.9388,-3.9388,-3.9388,-3.9388,-3.9388,-3.9388,-3.9388,-3.9388,-3.9388,-3.9388,-3.9388,-3.9388,-3.9388,-3.9388,-3.9388,-3.9388,-3.9388,-3.9388,-3.9388,-3.9388,-3.9388,-3.9388,-3.9388,-3.9388,-3.9388,-3.9388,-3.9388,-3.9388,-3.9388,-3.9388,-3.9388,-3.9388,-3.9388,-3.9388,-3.9388,-3.9388,-3.9388,-3.9388,-3.9388,-3.9388,-3.9388,-3.9388,-3.9388,-3.9388,-3.9388,-3.9388,-3.9388,-3.9388,-3.9388,-3.9388,-3.9388,-3.9388,-3.9388,-3.9388,-3.9388,-3.9388,-2.0268,-2.0268,-2.042,-2.1038,-2.1258,0.0,-2.3695,-2.4831,-2.6082,-2.8197,-2.9805,-3.1072,-3.1904,-3.2645,-3.3406,-3.4134,-3.4878,-3.5921,-3.755,-3.7855,-3.7905,-3.7905,-3.8481,-3.8837,-3.8689,-3.9345,-3.9715,-3.9586,-3.9627,-3.9616,-3.9484,-3.9352,-3.9299,-3.9299,-3.9299,-3.9299,-3.9299,-3.9299,-3.9299,-3.9299,-3.9299,-3.9299,-3.9299,-3.9299,-3.9121,-3.8805,-3.8479,-3.8197,-3.7943,-3.7592,-3.784,-3.84,-3.8098,-3.8618,-3.9576,-3.9451,-3.9388,-3.9388,-3.9388,-3.9388,-3.9388,-3.9388,-3.9388,-3.9388,-3.9388,-3.9388,-3.9388,-3.9388,-3.9388,-3.9388,-3.9388,-3.9388,-3.9388,-3.9388,-3.9388,-3.9388,-3.9388,-3.9388,-3.9388,-3.9388,-3.9388,-3.9388,-3.9388,-3.9388,-3.9388,-3.9388,-3.9388,-3.9388,-3.9388,-3.9388,-3.9388,-3.9388,-3.9388,-3.9388,-3.9388,-3.9388,-3.9388,-3.9388,-3.9388,-3.9433,-3.9523,-3.9508,-3.9574,-3.9634,-3.9634,-3.9604,-3.9493,-3.9454,-3.9388,-3.9388,-3.9499,-3.9493,-2.1857,-2.1857,-2.1752,-2.1309,-2.1647,0.0,-2.1884,-2.3323,-2.5015,-2.6048,-2.7452,-2.8889,-3.0277,-3.1123,-3.1867,-3.2615,-3.3355,-3.4573,-3.6705,-3.7533,-3.7905,-3.7905,-3.8041,-3.806,-3.7915,-3.8588,-3.895,-3.8807,-3.9256,-3.9484,-3.9352,-3.9299,-3.9299,-3.9299,-3.9299,-3.9299,-3.9299,-3.9299,-3.9299,-3.9299,-3.9299,-3.9299,-3.9299,-3.9299,-3.9191,-3.8942,-3.8788,-3.8556,-3.8278,-3.7943,-3.7891,-3.8027,-3.8231,-3.862,-3.9083,-3.9322,-3.9388,-3.9388,-3.9388,-3.9388,-3.9388,-3.9388,-3.9388,-3.9388,-3.9388,-3.9388,-3.9388,-3.9388,-3.9388,-3.9388,-3.9388,-3.9388,-3.9388,-3.9388,-3.9388,-3.9388,-3.9388,-3.9388,-3.9388,-3.9388,-3.9388,-3.9388,-3.9388,-3.9388,-3.9388,-3.9388,-3.9388,-3.9388,-3.9388,-3.9388,-3.9388,-3.9388,-3.9388,-3.9388,-3.9388,-3.9388,-3.9388,-3.9388,-3.9388,-3.9702,-4.0405,-4.0307,-4.0457,-4.0995,-4.0995,-4.0741,-4.0202,-3.9679,-3.9388,-3.9388,-3.9963,-4.0202,-2.4391,-2.4239,-2.3765,-2.3035,-2.312,0.0,0.0,-2.4,-2.5152,-2.5524,-2.6776,-2.7925,-2.8332,-2.933,-3.0228,-3.0584,-3.1275,-3.229,-3.3778,-3.5267,-3.6349,-3.6721,-3.711,-3.7307,-3.726,-3.7928,-3.8444,-3.869,-3.8864,-3.9075,-3.9388,-3.9342,-3.9299,-3.9299,-3.9299,-3.9299,-3.9299,-3.9299,-3.9299,-3.9299,-3.9299,-3.9299,-3.9299,-3.9299,-3.9228,-3.9148,-3.9067,-3.8876,-3.8572,-3.8242,-3.7916,-3.7714,-3.8208,-3.8626,-3.8985,-3.9277,-3.9388,-3.9388,-3.9388,-3.9388,-3.9388,-3.9388,-3.9388,-3.9388,-3.9388,-3.9388,-3.9388,-3.9388,-3.9388,-3.9388,-3.9388,-3.9388,-3.9388,-3.9388,-3.9388,-3.9388,-3.9388,-3.9388,-3.9388,-3.9388,-3.9388,-3.9388,-3.9388,-3.9388,-3.9388,-3.9388,-3.9388,-3.9388,-3.9388,-3.9388,-3.9388,-3.9388,-3.9388,-3.9388,-3.9388,-3.9388,-3.9388,-3.9388,-3.9388,-3.9777,-4.0644,-4.0516,-4.0711,-4.1407,-4.1422,-4.1055,-4.0397,-4.0397,-4.0232,-3.9918,-4.0591,-4.0891,-2.6979,-2.6607,-2.5812,-2.4931,-2.4609,-2.4423,0.0,0.0,0.0,-2.5389,-2.6438,-2.7232,-2.6776,-2.7605,-2.8451,-2.8722,-2.9262,-3.0023,-3.1055,-3.273,-3.4184,-3.5059,-3.5757,-3.6203,-3.6338,-3.7003,-3.7675,-3.8294,-3.8121,-3.8285,-3.9035,-3.907,-3.91,-3.91,-3.9232,-3.9299,-3.9299,-3.9299,-3.9299,-3.9299,-3.9299,-3.9299,-3.9299,-3.9299,-3.9299,-3.9299,-3.9299,-3.9094,-3.8733,-3.8367,-3.7934,-3.7553,-3.8162,-3.8549,-3.8834,-3.9232,-3.9388,-3.9388,-3.9388,-3.9388,-3.9388,-3.9388,-3.9388,-3.9388,-3.9388,-3.9388,-3.9388,-3.9388,-3.9388,-3.9388,-3.9388,-3.9388,-3.9388,-3.9388,-3.9388,-3.9388,-3.9388,-3.9388,-3.9388,-3.9388,-3.9388,-3.9388,-3.9388,-3.9388,-3.9388,-3.9388,-3.9388,-3.9388,-3.9388,-3.9388,-3.9388,-3.9388,-3.9388,-3.9433,-3.9568,-3.9649,-3.9627,-3.9627,-3.9792,-4.027,-4.1152,-4.1055,-4.122,-4.1743,-4.1758,-4.1429,-4.0786,-4.1444,-4.1294,-4.0427,-4.1205,-4.1602,-2.8722,-2.8163,-2.7215,-2.5812,-2.4983,-2.4152,-2.2852,0.0,-2.4626,-2.4626,0.0,-2.6031,-2.659,0.0,0.0,-2.7722,-2.801,-2.8804,-3.0903,-3.141,-3.2087,-3.3491,-3.3744,-3.4049,-3.4692,-3.5307,-3.5996,-3.6706,-3.6558,-3.677,-3.7494,-3.8032,-3.8328,-3.8328,-3.8967,-3.9299,-3.9299,-3.9299,-3.9299,-3.9299,-3.9299,-3.9299,-3.9299,-3.9299,-3.9299,-3.9299,-3.9299,-3.904,-3.8583,-3.8144,-3.7914,-3.7888,-3.8251,-3.8244,-3.8133,-3.9052,-3.9388,-3.9388,-3.9388,-3.9388,-3.9388,-3.9388,-3.9388,-3.9388,-3.9388,-3.9388,-3.9388,-3.9388,-3.9388,-3.9388,-3.9388,-3.9388,-3.9388,-3.9388,-3.9388,-3.9388,-3.9388,-3.9388,-3.9388,-3.9388,-3.9388,-3.9388,-3.9388,-3.9388,-3.9388,-3.9388,-3.9388,-3.9388,-3.9388,-3.9388,-3.9388,-3.9388,-3.9388,-3.9649,-4.0247,-4.0457,-4.0539,-4.0539,-4.1272,-4.2094,-4.2961,-4.2976,-4.2991,-4.3065,-4.3065,-4.2791,-4.2171,-4.2791,-4.2177,-4.0427,-4.1707,-4.2291,-3.0804,-2.9738,-2.8129,-2.6623,-2.5676,-2.4864,-2.3816,-2.4391,-2.5135,-2.5135,0.0,0.0,0.0,0.0,0.0,0.0,-2.7165,-2.7655,-2.9042,-2.9227,-3.0258,-3.3085,-3.3406,-3.3355,-3.3241,-3.3077,-3.3457,-3.4599,-3.4499,-3.5065,-3.6684,-3.7684,-3.8186,-3.8186,-3.8934,-3.9299,-3.9299,-3.9299,-3.9299,-3.9299,-3.9299,-3.9299,-3.9299,-3.9299,-3.9299,-3.9299,-3.9299,-3.9002,-3.8432,-3.7841,-3.7616,-3.7603,-3.7758,-3.8039,-3.8454,-3.9137,-3.9388,-3.9388,-3.9388,-3.9388,-3.9388,-3.9388,-3.9388,-3.9388,-3.9388,-3.9388,-3.9388,-3.9388,-3.9388,-3.9388,-3.9388,-3.9388,-3.9388,-3.9388,-3.9388,-3.9388,-3.9388,-3.9388,-3.9388,-3.9388,-3.9388,-3.9553,-4.0046,-3.9717,-3.9388,-3.9388,-3.9388,-3.9388,-3.9388,-3.9388,-3.9388,-3.9388,-3.9388,-3.9694,-4.0337,-4.107,-4.1436,-4.1436,-4.2258,-4.2737,-4.2776,-4.3135,-4.329,-4.329,-4.329,-4.3015,-4.2396,-4.3015,-4.2716,-4.1602,-4.2491,-4.2925,-3.2209,-3.0838,-2.8891,-2.7131,-2.5981,-2.5101,-2.4372,-2.4778,-2.5423,-2.5828,-2.6488,0.0,0.0,0.0,-2.6996,-2.6996,0.0,-2.6962,-2.7705,-2.7807,-2.8804,-3.1526,-3.2239,-3.2357,-3.2039,-3.1701,-3.1935,-3.3017,-3.3038,-3.3829,-3.5686,-3.6945,-3.7673,-3.7897,-3.8609,-3.91,-3.9299,-3.9299,-3.9299,-3.9299,-3.9299,-3.9299,-3.9299,-3.9299,-3.9299,-3.9299,-3.9299,-3.8947,-3.8335,-3.7695,-3.7497,-3.7672,-3.7481,-3.7997,-3.8928,-3.9266,-3.9388,-3.9388,-3.9388,-3.9388,-3.9388,-3.9388,-3.9388,-3.9388,-3.9388,-3.9388,-3.9388,-3.9388,-3.9388,-3.9388,-3.9388,-3.9388,-3.9388,-3.9388,-3.9388,-3.9388,-3.9388,-3.9388,-3.9388,-3.9388,-3.9388,-3.9694,-4.0539,-4.0165,-3.9813,-3.9933,-3.9963,-3.9963,-3.9963,-4.0053,-4.0091,-4.0091,-4.0023,-4.0232,-4.0876,-4.1669,-4.2192,-4.2333,-4.2946,-4.312,-4.2641,-4.309,-4.329,-4.329,-4.329,-4.309,-4.2626,-4.3105,-4.309,-4.2641,-4.312,-4.329,-3.2496,-3.1207,-2.9533,-2.7249,-2.5608,-2.4338,-2.3596,-2.4017,-2.4931,-2.637,-2.7249,-2.7993,-2.8756,-2.8281,-2.7773,0.0,-2.7182,0.0,0.0,-2.7807,-2.7841,-2.7976,-2.9294,-3.048,-3.1157,-3.187,-3.2276,-3.2327,-3.2736,-3.3377,-3.4231,-3.54,-3.6406,-3.7119,-3.7864,-3.8576,-3.9299,-3.9299,-3.9299,-3.9299,-3.9299,-3.9299,-3.9299,-3.9299,-3.9299,-3.9299,-3.9299,-3.8947,-3.8335,-3.7695,-3.7778,-3.8284,-3.7662,-3.8212,-3.9394,-3.9373,-3.9388,-3.9388,-3.9388,-3.9388,-3.9388,-3.9388,-3.9388,-3.9388,-3.9388,-3.9388,-3.9388,-3.9388,-3.9388,-3.9388,-3.9388,-3.9388,-3.9388,-3.9388,-3.9388,-3.9388,-3.9388,-3.9388,-3.9388,-3.9388,-3.9388,-3.9694,-4.0539,-4.0659,-4.0816,-4.125,-4.1324,-4.1324,-4.1324,-4.1683,-4.1914,-4.1914,-4.1564,-4.1632,-4.2276,-4.2366,-4.2626,-4.3215,-4.3275,-4.329,-4.326,-4.329,-4.329,-4.329,-4.329,-4.329,-4.326,-4.329,-4.329,-4.326,-4.329,-4.329,-3.3833,-3.2682,-3.114,-2.9397,-2.8197,-2.7148,-2.5862,-2.615,-2.6979,-2.8011,-2.8805,-2.9567,-3.0311,-2.9431,-2.8586,0.0,0.0,-2.6065,0.0,-2.593,-2.5981,-2.6962,-2.8433,-2.9262,-2.8973,-2.9139,-2.9659,-3.0656,-3.0784,-3.1587,-3.3383,-3.4712,-3.5732,-3.648,-3.7591,-3.8328,-3.8576,-3.9067,-3.9299,-3.9299,-3.9299,-3.9299,-3.9299,-3.9299,-3.9299,-3.9299,-3.9299,-3.8947,-3.8335,-3.7695,-3.7794,-3.8315,-3.7662,-3.8227,-3.9388,-3.9388,-3.9388,-3.9388,-3.9388,-3.9388,-3.9388,-3.9388,-3.9388,-3.9388,-3.9388,-3.9388,-3.9388,-3.9388,-3.9388,-3.9388,-3.9388,-3.9388,-3.9388,-3.9388,-3.9388,-3.9388,-3.9388,-3.9837,-4.021,-4.0098,-4.0427,-4.095,-4.1683,-4.1841,-4.1998,-4.2581,-4.2671,-4.2462,-4.1878,-4.1899,-4.1884,-4.1624,-4.1474,-4.1692,-4.2336,-4.2761,-4.309,-4.329,-4.329,-4.329,-4.329,-4.329,-4.329,-4.329,-4.329,-4.329,-4.329,-4.329,-4.329,-4.329,-4.329,-4.329,-3.5385,-3.4404,-3.3119,-3.1647,-3.0514,-2.9467,-2.8197,-2.828,-2.8838,-2.9617,-3.0362,-3.1106,-3.185,-3.0987,-3.0093,0.0,0.0,0.0,0.0,-2.5406,-2.5439,-2.5879,-2.7266,-2.818,-2.823,-2.8141,-2.8509,-2.949,-2.964,-3.0486,-3.2253,-3.359,-3.4788,-3.5787,-3.7103,-3.7947,-3.8186,-3.8924,-3.9299,-3.9299,-3.9299,-3.9299,-3.9299,-3.9299,-3.9299,-3.9299,-3.9299,-3.8947,-3.8367,-3.7937,-3.8028,-3.8345,-3.7918,-3.8437,-3.9388,-3.9388,-3.9388,-3.9388,-3.9388,-3.9388,-3.9388,-3.9388,-3.9388,-3.9388,-3.9388,-3.9388,-3.9388,-3.9388,-3.9388,-3.9388,-3.9388,-3.9388,-3.9388,-3.9388,-3.9388,-3.9484,-3.9709,-4.0217,-4.0636,-4.0726,-4.1085,-4.1632,-4.2291,-4.2396,-4.262,-4.32,-4.329,-4.3095,-4.2527,-4.2453,-4.2348,-4.2102,-4.2073,-4.2237,-4.2671,-4.309,-4.329,-4.329,-4.329,-4.329,-4.329,-4.329,-4.329,-4.329,-4.329,-4.329,-4.329,-4.329,-4.329,-4.329,-4.329,-4.329]},{"header":{"parameterUnit":"m.s-1","parameterCategory":1,"la1":30.6,"la2":29.2853,"lo1":-89.7004,"lo2":-87.6739,"dy":0.0162,"dx":0.0183,"nx":112,"ny":82,"refTime":"2026-05-22T00:00:00:Z","depth":0,"parameterNumber":3,"parameterNumberName":"V-component_of_WINDS"},"data":[0.0,0.0,0.0,0.0,0.0,0.0,0.0,0.0,0.0,0.0,0.0,0.0,0.0,0.0,0.0,0.0,0.0,0.0,0.0,0.0,0.0,0.0,0.0,0.0,0.0,0.0,0.0,0.0,0.0,0.0,0.0,0.0,0.0,0.0,0.0,0.0,0.0,0.0,0.0,0.0,0.0,0.0,0.0,0.0,0.0,0.0,0.0,0.0,0.0,0.0,0.0,0.0,0.0,0.0,0.0,0.0,0.0,0.0,0.0,0.0,0.0,0.0,0.0,0.0,0.0,0.0,0.0,0.0,0.0,0.0,0.0,0.0,0.0,0.0,0.0,0.0,0.0,0.0,0.0,0.0,0.0,0.0,0.0,0.0,0.0,0.0,0.0,0.0,0.0,0.0,2.165,2.3322,2.6028,2.7409,2.6739,2.665,2.5969,2.4454,0.0,0.0,0.0,0.0,0.0,0.0,0.0,0.0,0.0,0.0,0.0,0.0,0.0,0.0,0.0,0.0,0.0,0.0,0.0,0.0,0.0,0.0,0.0,0.0,0.0,0.0,0.0,0.0,0.0,0.0,0.0,0.0,0.0,0.0,0.0,0.0,0.0,0.0,0.0,0.0,0.0,0.0,0.0,0.0,0.0,0.0,0.0,0.0,0.0,0.0,0.0,0.0,0.0,0.0,0.0,0.0,0.0,0.0,0.0,0.0,0.0,0.0,0.0,0.0,0.0,0.0,0.0,0.0,0.0,0.0,0.0,0.0,0.0,0.0,0.0,0.0,0.0,0.0,0.0,0.0,0.0,0.0,0.0,0.0,0.0,0.0,0.0,0.0,0.0,0.0,0.0,0.0,0.0,0.0,0.0,0.0,0.0,0.0,0.0,0.0,0.0,0.0,0.0,0.0,2.3075,2.5926,2.7086,2.7666,2.7538,2.7057,2.6165,2.4729,0.0,0.0,0.0,0.0,0.0,0.0,0.0,0.0,0.0,0.0,0.0,0.0,0.0,0.0,0.0,0.0,0.0,0.0,0.0,0.0,0.0,0.0,0.0,0.0,0.0,0.0,0.0,0.0,0.0,0.0,0.0,0.0,0.0,0.0,0.0,0.0,0.0,0.0,0.0,0.0,0.0,0.0,0.0,0.0,0.0,0.0,0.0,0.0,0.0,0.0,0.0,0.0,0.0,0.0,0.0,0.0,0.0,0.0,0.0,0.0,0.0,0.0,0.0,0.0,0.0,0.0,0.0,0.0,0.0,0.0,0.0,0.0,0.0,0.0,0.0,0.0,0.0,0.0,0.0,0.0,0.0,0.0,0.0,0.0,0.0,0.0,0.0,0.0,0.0,0.0,0.0,0.0,0.0,0.0,0.0,0.0,0.0,0.0,0.0,0.0,0.0,0.0,0.0,2.2794,2.4504,2.6681,2.755,2.7864,2.7615,2.7726,2.6915,2.4821,2.3221,0.0,0.0,0.0,0.0,0.0,0.0,0.0,0.0,0.0,0.0,0.0,0.0,0.0,0.0,0.0,0.0,0.0,0.0,0.0,0.0,0.0,0.0,0.0,0.0,0.0,0.0,0.0,0.0,0.0,0.0,0.0,0.0,0.0,0.0,0.0,0.0,0.0,0.0,0.0,0.0,0.0,0.0,0.0,0.0,0.0,0.0,0.0,0.0,0.0,0.0,0.0,0.0,0.0,0.0,0.0,0.0,0.0,0.0,0.0,0.0,0.0,0.0,0.0,0.0,0.0,0.0,0.0,0.0,0.0,0.0,0.0,0.0,0.0,0.0,0.0,0.0,0.0,0.0,0.0,0.0,0.0,0.0,0.0,0.0,0.0,0.0,0.0,0.0,0.0,0.0,0.0,0.0,0.0,0.0,0.0,0.0,0.0,0.0,0.0,0.0,0.0,0.0,2.4084,2.5408,2.6624,2.7428,2.7697,2.7221,2.783,2.7173,2.4683,2.3311,0.0,0.0,0.0,0.0,0.0,0.0,0.0,0.0,0.0,0.0,0.0,0.0,0.0,0.0,0.0,0.0,0.0,0.0,0.0,0.0,0.0,0.0,0.0,0.0,0.0,0.0,0.0,0.0,0.0,0.0,0.0,0.0,0.0,0.0,0.0,0.0,0.0,0.0,0.0,0.0,0.0,0.0,0.0,0.0,0.0,0.0,0.0,0.0,0.0,0.0,0.0,0.0,0.0,0.0,0.0,0.0,0.0,0.0,0.0,0.0,0.0,0.0,0.0,0.0,0.0,0.0,0.0,0.0,0.0,0.0,0.0,0.0,0.0,0.0,0.0,0.0,0.0,0.0,0.0,0.0,0.0,0.0,0.0,0.0,0.0,0.0,0.0,0.0,0.0,0.0,0.0,0.0,0.0,0.0,0.0,0.0,0.0,0.0,0.0,0.0,0.0,0.0,2.4308,2.5282,2.5981,2.658,2.6708,2.6238,2.6642,2.6068,2.408,2.2759,0.0,0.0,0.0,0.0,0.0,0.0,0.0,0.0,0.0,0.0,0.0,0.0,0.0,0.0,0.0,0.0,0.0,0.0,0.0,0.0,0.0,0.0,0.0,0.0,0.0,0.0,0.0,0.0,0.0,0.0,0.0,0.0,0.0,0.0,0.0,0.0,0.0,0.0,0.0,0.0,0.0,0.0,0.0,0.0,0.0,0.0,0.0,0.0,0.0,0.0,0.0,0.0,0.0,0.0,0.0,0.0,0.0,0.0,0.0,0.0,0.0,0.0,0.0,0.0,0.0,0.0,0.0,0.0,0.0,0.0,0.0,0.0,0.0,0.0,0.0,0.0,0.0,0.0,0.0,0.0,0.0,0.0,0.0,0.0,0.0,0.0,0.0,0.0,0.0,0.0,0.0,0.0,0.0,0.0,0.0,0.0,0.0,0.0,0.0,0.0,0.0,0.0,2.4195,2.5252,2.6092,2.6906,2.7085,2.647,2.6802,2.6098,2.3918,0.0,0.0,0.0,0.0,0.0,0.0,0.0,0.0,0.0,0.0,0.0,0.0,0.0,0.0,0.0,0.0,0.0,0.0,0.0,0.0,0.0,0.0,0.0,0.0,0.0,0.0,0.0,0.0,0.0,0.0,0.0,0.0,0.0,0.0,0.0,0.0,0.0,0.0,0.0,0.0,0.0,0.0,0.0,0.0,0.0,0.0,0.0,0.0,0.0,0.0,0.0,0.0,0.0,0.0,0.0,0.0,0.0,0.0,0.0,0.0,0.0,0.0,0.0,0.0,0.0,0.0,0.0,0.0,0.0,0.0,0.0,0.0,0.0,0.0,0.0,0.0,0.0,0.0,0.0,0.0,0.0,0.0,0.0,0.0,0.0,0.0,0.0,0.0,0.0,0.0,0.0,0.0,0.0,0.0,0.0,0.0,0.0,0.0,0.0,0.0,0.0,0.0,2.268,2.3949,2.4944,2.5808,2.6769,2.7002,2.6028,2.6596,2.6049,2.3679,0.0,0.0,0.0,0.0,0.0,0.0,0.0,0.0,0.0,0.0,0.0,0.0,0.0,0.0,0.0,0.0,0.0,0.0,0.0,0.0,0.0,0.0,0.0,0.0,0.0,0.0,0.0,0.0,0.0,0.0,0.0,0.0,0.0,0.0,0.0,0.0,0.0,0.0,0.0,0.0,0.0,0.0,0.0,0.0,0.0,0.0,0.0,0.0,0.0,0.0,0.0,0.0,0.0,0.0,0.0,0.0,0.0,0.0,0.0,0.0,0.0,0.0,0.0,0.0,0.0,0.0,0.0,0.0,0.0,0.0,0.0,0.0,0.0,0.0,0.0,0.0,0.0,0.0,0.0,0.0,0.0,0.0,0.0,0.0,0.0,0.0,0.0,0.0,0.0,0.0,0.0,0.0,0.0,0.0,0.0,0.0,0.0,0.0,0.0,0.0,0.0,0.0,2.2757,2.3653,2.428,2.4937,2.6007,2.6085,2.4627,2.5836,2.5685,0.0,0.0,0.0,0.0,0.0,0.0,0.0,0.0,0.0,0.0,0.0,0.0,0.0,0.0,0.0,0.0,0.0,0.0,0.0,0.0,0.0,0.0,0.0,0.0,0.0,0.0,0.0,0.0,0.0,0.0,0.0,0.0,0.0,0.0,0.0,0.0,0.0,0.0,0.0,0.0,0.0,0.0,0.0,0.0,0.0,0.0,0.0,0.0,0.0,0.0,0.0,0.0,0.0,0.0,0.0,0.0,0.0,0.0,0.0,0.0,0.0,0.0,0.0,0.0,0.0,0.0,0.0,0.0,0.0,0.0,0.0,0.0,0.0,0.0,0.0,0.0,0.0,0.0,0.0,0.0,0.0,0.0,0.0,0.0,0.0,0.0,0.0,0.0,0.0,0.0,0.0,0.0,0.0,0.0,0.0,0.0,0.0,0.0,0.0,0.0,0.0,0.0,0.0,2.2757,2.4305,2.5111,2.5026,2.5819,2.581,2.4466,2.5226,2.5007,2.3175,0.0,0.0,0.0,0.0,0.0,0.0,0.0,0.0,0.0,0.0,0.0,0.0,0.0,0.0,0.0,0.0,0.0,0.0,0.0,0.0,0.0,0.0,0.0,0.0,0.0,0.0,0.0,0.0,0.0,0.0,0.0,0.0,0.0,0.0,0.0,0.0,0.0,0.0,0.0,0.0,0.0,0.0,0.0,0.0,0.0,0.0,0.0,0.0,0.0,0.0,0.0,0.0,0.0,0.0,0.0,0.0,0.0,0.0,0.0,0.0,0.0,0.0,0.0,0.0,0.0,0.0,0.0,0.0,0.0,0.0,0.0,0.0,0.0,0.0,0.0,0.0,0.0,0.0,0.0,0.0,0.0,0.0,0.0,0.0,0.0,0.0,0.0,0.0,0.0,0.0,0.0,0.0,0.0,0.0,0.0,0.0,0.0,0.0,0.0,0.0,0.0,0.0,2.2481,2.4255,2.5116,2.4639,2.5242,2.5198,2.4116,2.4966,2.4764,2.2953,0.0,0.0,0.0,0.0,0.0,0.0,0.0,0.0,0.0,0.0,0.0,0.0,0.0,0.0,0.0,0.0,0.0,0.0,0.0,0.0,0.0,0.0,0.0,0.0,0.0,0.0,0.0,0.0,0.0,0.0,0.0,0.0,0.0,0.0,0.0,0.0,0.0,0.0,0.0,0.0,0.0,0.0,0.0,0.0,0.0,0.0,0.0,0.0,0.0,0.0,0.0,0.0,0.0,0.0,0.0,0.0,0.0,0.0,0.0,0.0,0.0,0.0,0.0,0.0,0.0,0.0,0.0,0.0,0.0,0.0,0.0,0.0,0.0,0.0,0.0,0.0,0.0,0.0,0.0,0.0,0.0,0.0,0.0,0.0,0.0,0.0,0.0,0.0,0.0,0.0,0.0,0.0,0.0,0.0,0.0,0.0,0.0,0.0,0.0,0.0,0.0,0.0,2.2096,2.3866,2.472,2.4067,2.4494,2.4463,2.3671,2.4832,2.4762,2.28,0.0,0.0,0.0,0.0,0.0,0.0,0.0,0.0,0.0,0.0,0.0,0.0,0.0,0.0,0.0,0.0,0.0,0.0,0.0,0.0,0.0,0.0,0.0,0.0,0.0,0.0,0.0,0.0,0.0,0.0,0.0,0.0,0.0,0.0,0.0,0.0,0.0,0.0,0.0,0.0,0.0,0.0,0.0,0.0,0.0,0.0,0.0,0.0,0.0,0.0,0.0,0.0,0.0,0.0,0.0,0.0,0.0,0.0,0.0,0.0,1.7251,1.7208,0.0,0.0,0.0,0.0,0.0,0.0,0.0,0.0,0.0,0.0,0.0,0.0,0.0,0.0,0.0,0.0,0.0,0.0,0.0,0.0,0.0,0.0,0.0,0.0,0.0,0.0,0.0,0.0,0.0,0.0,0.0,0.0,0.0,0.0,0.0,0.0,0.0,0.0,0.0,0.0,2.2159,2.4531,2.5594,2.4155,2.4494,2.4463,2.3671,2.3874,2.3796,2.3195,2.1038,0.0,0.0,0.0,0.0,0.0,0.0,0.0,0.0,0.0,0.0,0.0,0.0,0.0,0.0,0.0,0.0,0.0,0.0,0.0,0.0,0.0,0.0,0.0,0.0,0.0,0.0,0.0,0.0,0.0,0.0,0.0,0.0,0.0,0.0,0.0,0.0,0.0,0.0,0.0,0.0,0.0,0.0,0.0,0.0,0.0,0.0,0.0,0.0,0.0,0.0,0.0,0.0,0.0,0.0,0.0,0.0,0.0,0.0,0.0,1.8281,1.821,0.0,0.0,0.0,0.0,0.0,0.0,0.0,0.0,0.0,0.0,0.0,0.0,0.0,0.0,0.0,0.0,0.0,0.0,0.0,0.0,0.0,0.0,0.0,0.0,0.0,0.0,0.0,0.0,0.0,0.0,0.0,0.0,0.0,0.0,0.0,0.0,0.0,0.0,0.0,0.0,2.2209,2.4506,2.5556,2.4142,2.4255,2.4173,2.3556,2.3712,2.3466,2.2627,2.119,0.0,0.0,0.0,0.0,0.0,0.0,0.0,0.0,0.0,0.0,0.0,0.0,0.0,0.0,0.0,0.0,0.0,0.0,0.0,0.0,0.0,0.0,0.0,0.0,0.0,0.0,0.0,0.0,0.0,0.0,0.0,0.0,0.0,0.0,0.0,0.0,0.0,0.0,0.0,0.0,0.0,0.0,0.0,0.0,0.0,0.0,0.0,0.0,0.0,0.0,0.0,0.0,0.0,1.8144,1.8564,1.8948,1.9346,1.9868,2.0371,1.9546,1.952,2.0126,2.0148,0.0,0.0,0.0,0.0,0.0,0.0,0.0,0.0,0.0,0.0,0.0,0.0,0.0,0.0,0.0,0.0,0.0,0.0,0.0,0.0,0.0,0.0,2.3396,2.2844,2.2749,2.2372,2.0978,0.0,0.0,0.0,0.0,0.0,0.0,0.0,0.0,0.0,0.0,0.0,2.2234,2.4318,2.5335,2.4255,2.4217,2.4079,2.3576,2.3815,2.3396,2.2009,2.1438,2.0261,0.0,0.0,0.0,0.0,0.0,0.0,0.0,0.0,0.0,0.0,0.0,0.0,0.0,0.0,0.0,0.0,0.0,0.0,0.0,0.0,0.0,0.0,0.0,0.0,0.0,0.0,0.0,0.0,0.0,0.0,0.0,0.0,1.1432,1.22,0.0,0.0,0.0,0.0,0.0,0.0,0.0,0.0,0.0,0.0,0.0,0.0,0.0,1.6599,1.7119,1.79,1.8545,1.9043,1.9463,1.9893,2.0351,2.041,2.0761,2.1313,2.1366,0.0,2.0693,2.0673,0.0,0.0,0.0,0.0,0.0,0.0,0.0,0.0,0.0,0.0,0.0,0.0,0.0,0.0,0.0,0.0,0.0,0.0,0.0,0.0,0.0,0.0,2.5134,2.4587,2.4462,2.4399,2.4173,2.2636,2.0953,1.9899,1.9522,1.907,0.0,0.0,0.0,0.0,0.0,0.0,2.2234,2.4701,2.5959,2.4833,2.5121,2.5036,2.4184,2.3764,2.3251,2.2457,2.1691,2.1053,2.0565,1.9081,0.0,0.0,0.0,0.0,0.0,0.0,0.0,0.0,0.0,0.0,0.0,0.0,0.0,0.0,0.0,0.0,0.0,0.0,0.0,0.0,0.0,0.0,0.0,0.0,0.0,0.0,0.0,0.0,0.0,1.1346,1.1891,1.2128,1.1992,1.1904,0.0,0.0,0.0,0.0,0.0,0.0,0.0,0.0,0.0,1.6588,1.7353,1.8091,1.8799,1.9621,2.0312,2.0752,2.1416,2.1826,2.2021,2.2266,2.2523,2.2784,2.2614,2.2288,2.1892,2.1728,2.142,2.109,0.0,0.0,0.0,0.0,2.2536,2.2742,2.3366,2.3301,2.2949,2.3263,0.0,0.0,0.0,0.0,0.0,0.0,0.0,2.3088,2.3847,2.531,2.6327,2.546,2.5498,2.5573,2.4958,2.4054,2.3025,2.1866,2.1179,2.0501,1.9749,1.9145,0.0,0.0,0.0,2.2623,2.3188,2.5167,2.6185,2.5347,2.5197,2.4877,2.4161,2.3573,2.3052,2.2521,2.2114,2.158,2.0975,2.0093,1.9016,0.0,0.0,0.0,0.0,0.0,0.0,0.0,0.0,0.0,0.0,0.0,0.0,0.0,0.0,0.0,0.0,0.0,0.0,0.0,0.0,0.0,0.0,0.0,0.0,0.0,0.0,0.0,0.0,1.2152,1.2589,1.2526,1.2624,1.2627,0.0,0.0,0.0,0.0,0.0,0.0,1.5664,1.6162,1.6855,1.7842,1.8763,1.9572,2.0244,2.1083,2.1777,2.2217,2.2959,2.3315,2.3432,2.3799,2.3945,2.3935,2.3559,2.3379,2.3292,2.2776,2.2506,2.2373,2.2282,2.2439,2.2721,2.3272,2.3622,2.3963,2.4761,2.5046,2.5121,2.549,2.5096,2.4255,2.3401,0.0,0.0,0.0,0.0,2.4757,2.531,2.6465,2.7281,2.644,2.6565,2.665,2.5661,2.5347,2.487,2.3572,2.2573,2.1732,2.1207,2.0515,0.0,2.0817,2.2171,2.3308,2.3916,2.5468,2.6273,2.5649,2.5247,2.4745,2.4054,2.3602,2.3017,2.2347,2.2367,2.1942,2.0913,2.073,1.9971,1.8551,0.0,0.0,0.0,0.0,0.0,0.0,0.0,0.0,0.0,0.0,0.0,0.0,0.0,0.0,0.0,0.0,0.0,0.0,0.0,0.0,0.0,0.0,0.0,0.0,0.0,0.0,0.0,0.0,0.0,1.4149,1.4086,0.0,0.0,0.0,0.0,1.5225,1.6054,1.657,1.6629,1.8203,1.9121,1.9189,2.0439,2.1083,2.1122,2.2021,2.2656,2.3042,2.3535,2.3965,2.4355,2.4375,2.4385,2.4385,2.4365,2.4484,2.4609,2.3649,2.3108,2.2906,2.3357,2.3788,2.4302,2.5432,2.6081,2.6562,2.7551,2.7896,2.7908,2.7934,2.6841,2.5498,2.5448,2.4682,0.0,0.0,2.5896,2.6499,2.7052,2.7607,2.8047,2.7996,2.7996,2.7858,2.7293,2.6776,2.5933,2.4268,2.3434,2.2844,2.2322,0.0,2.0842,2.1395,2.241,2.3308,2.3916,2.5468,2.6273,2.5649,2.5573,2.5134,2.4092,2.3966,2.3311,2.1843,2.2339,2.2115,2.085,2.1342,2.1453,2.1022,1.9142,0.0,0.0,0.0,0.0,0.0,0.0,0.0,0.0,0.0,0.0,0.0,0.0,0.0,0.0,0.0,0.0,0.0,0.0,0.0,0.0,0.0,0.0,0.0,0.0,0.0,0.0,0.0,0.0,1.4968,1.5459,0.0,1.6025,1.6152,1.6465,1.7041,1.7594,1.8286,1.915,1.9813,2.041,2.0937,2.167,2.206,2.206,2.2584,2.3091,2.3564,2.3994,2.4414,2.4834,2.4834,2.4834,2.4814,2.4541,2.446,2.4513,2.4341,2.4168,2.4083,2.4118,2.4381,2.4812,2.5489,2.6087,2.672,2.784,2.8325,2.8438,2.855,2.7996,2.7143,2.6791,2.6414,2.6189,2.6578,2.7092,2.7557,2.7758,2.8222,2.8549,2.8185,2.8373,2.8386,2.7482,2.7165,2.6751,2.5795,2.4845,2.4123,2.3923,2.3602,2.3401,2.3602,2.4255,2.4795,2.4996,2.5896,2.6273,2.5649,2.5297,2.4795,2.4067,2.3653,2.3037,2.2128,2.2311,2.2153,2.1521,2.1842,2.166,2.0882,2.0306,1.9203,0.0,0.0,0.0,0.0,0.0,0.0,0.0,0.0,0.0,0.0,0.0,0.0,0.0,0.0,0.0,0.0,0.0,0.0,0.0,0.0,0.0,0.0,0.0,0.0,0.0,1.4641,1.5596,1.6025,1.6814,1.734,1.734,1.7603,1.8037,1.8613,1.9043,1.9727,2.0732,2.1064,2.1494,2.208,2.251,2.2682,2.2682,2.3101,2.3574,2.4004,2.4434,2.4863,2.5293,2.5293,2.5293,2.5283,2.499,2.4816,2.4853,2.494,2.4982,2.4954,2.4798,2.5033,2.5453,2.5775,2.6348,2.7133,2.822,2.8756,2.9024,2.9138,2.8976,2.8612,2.8247,2.8122,2.8122,2.8122,2.8398,2.8674,2.8674,2.895,2.9126,2.8762,2.895,2.8963,2.8047,2.7695,2.7394,2.6876,2.5837,2.5084,2.5084,2.4933,2.4788,2.4788,2.5259,2.5598,2.5598,2.6135,2.621,2.541,2.4988,2.4487,2.3766,2.3333,2.2869,2.2347,2.2456,2.2362,2.1909,2.2406,2.2229,2.1338,2.1289,1.9933,1.72,0.0,0.0,0.0,0.0,0.0,0.0,0.0,0.0,0.0,0.0,0.0,0.0,0.0,0.0,0.0,0.0,0.0,0.0,0.0,0.0,0.0,0.0,0.0,1.4392,1.5743,1.6911,1.7393,1.8174,1.8656,1.8685,1.8685,1.9026,1.9912,2.0371,2.0801,2.121,2.206,2.2519,2.2529,2.2886,2.3101,2.311,2.3574,2.4004,2.4443,2.4863,2.5303,2.5693,2.5693,2.5693,2.5693,2.5693,2.5693,2.5703,2.5502,2.5409,2.5417,2.5487,2.5795,2.6228,2.6455,2.7097,2.8022,2.8835,2.9388,2.9803,2.9803,2.9803,2.9842,2.9829,2.9817,2.9817,2.9792,2.9792,2.9792,2.9792,2.9792,2.9792,2.9792,2.9792,2.9628,2.9013,2.8511,2.7959,2.7394,2.6402,2.5649,2.5624,2.5209,2.4838,2.4838,2.531,0.0,2.5624,2.6147,2.6084,2.4926,2.48,2.4349,2.3221,2.3095,2.2844,2.2347,2.2769,2.2728,2.1948,2.2967,2.3232,2.2533,2.2041,2.0339,1.7342,0.0,0.0,0.0,0.0,0.0,0.0,0.0,0.0,0.0,0.0,0.0,0.0,0.0,0.0,0.0,0.0,0.0,0.0,0.0,0.0,0.0,1.4835,1.6035,1.5655,1.6789,1.793,1.8672,1.9238,1.9777,2.042,2.0479,2.0752,2.1299,2.1455,2.1709,2.2139,2.2383,2.2613,2.2916,2.3033,2.3247,2.3603,2.373,2.416,2.4893,2.5057,2.5303,2.5693,2.5693,2.5693,2.5693,2.5693,2.5693,2.5684,2.5654,2.5605,2.5623,2.5516,2.5725,2.6031,2.6422,2.7359,2.8491,2.9063,2.9558,2.9971,3.0159,3.0323,3.0399,3.0152,3.0251,3.0306,2.9905,2.9792,2.9792,2.9792,2.9792,2.9792,2.9792,2.9792,2.9628,2.9013,2.8775,2.8423,2.7469,2.7065,2.6691,2.6323,2.6135,2.6047,2.6047,2.6172,2.626,2.626,2.6399,2.6223,2.546,2.5046,2.4531,2.3816,2.3012,2.2443,2.2322,2.2083,2.2081,2.2397,2.2574,2.2711,2.2867,2.2395,2.1677,0.0,0.0,0.0,0.0,0.0,0.0,0.0,0.0,0.0,0.0,0.0,0.0,0.0,0.0,0.0,0.0,0.0,0.0,0.0,0.0,0.0,0.0,1.621,1.7467,1.7455,1.8066,1.8799,1.9473,2.0098,2.0635,2.1142,2.1356,2.1689,2.2119,2.2148,2.2334,2.2711,2.273,2.2847,2.3091,2.3276,2.3535,2.3789,2.4141,2.4617,2.5116,2.5254,2.5488,2.5693,2.5693,2.5693,2.5693,2.5693,2.5693,2.5693,2.5693,2.5693,2.5732,0.0,0.0,0.0,0.0,2.7335,2.806,2.856,2.9021,2.9435,2.9809,3.0145,3.0431,3.0401,3.049,3.0557,3.0231,2.9967,2.9792,2.9792,2.9792,2.9792,2.9792,2.9792,2.9691,2.9365,2.9063,2.87,2.8097,2.7595,0.0,2.6901,2.665,2.6499,2.6499,2.6499,2.6499,2.6499,2.6499,2.6273,2.5649,2.5134,2.4562,2.4054,2.3175,0.0,0.0,0.0,2.2421,2.2983,2.286,0.0,0.0,0.0,0.0,0.0,2.233,0.0,0.0,2.049,2.1517,0.0,0.0,0.0,0.0,0.0,0.0,0.0,0.0,0.0,0.0,0.0,0.0,0.0,0.0,0.0,0.0,1.7656,1.888,1.9307,1.9404,1.957,1.9941,2.0683,2.121,2.1268,2.1699,2.2129,2.2549,2.2578,2.2701,2.3081,2.3091,0.0,0.0,0.0,2.3809,2.3857,2.4705,2.5145,2.5194,2.5547,2.5693,2.5693,2.5693,2.5693,2.5693,2.5693,2.5693,2.5693,2.5693,2.5742,2.5781,2.6304,2.6544,2.6638,2.7066,2.7241,2.7357,2.78,0.0,0.0,2.914,2.9624,3.0091,3.0547,3.0634,3.0616,3.0593,3.0179,2.9792,2.9792,2.9792,2.9792,2.9792,2.9792,2.9792,2.9792,2.939,2.8963,2.89,2.8084,2.7356,2.7329,2.6864,2.6499,2.6499,2.6499,2.6499,2.6499,2.6499,2.6298,2.5749,2.5172,0.0,2.413,2.3421,2.3045,2.3108,2.3108,2.3203,2.3437,2.3407,2.304,2.2331,2.3365,2.3297,2.201,2.4086,2.5,2.4737,2.3363,2.3867,0.0,0.0,0.0,0.0,0.0,0.0,0.0,0.0,0.0,0.0,0.0,0.0,0.0,0.0,0.0,1.7024,1.8555,1.9697,1.9785,2.0098,2.039,2.0468,2.0908,2.1327,2.1728,2.2139,2.2568,2.2945,2.2974,2.3013,2.3091,2.3091,2.3091,2.3091,2.3564,2.3955,2.4287,2.4814,2.5254,2.5557,2.5645,0.0,2.5693,2.5693,2.5693,2.5693,2.5693,2.5693,2.5693,2.5693,2.582,2.6052,2.64,2.6784,2.7204,2.7442,2.7666,2.7907,2.8196,2.8462,2.8761,2.9274,2.9782,3.0206,3.0454,3.0604,0.0,3.0335,3.0036,2.9792,2.9792,2.9792,2.9792,2.9792,2.9792,2.9792,2.9792,2.9704,2.949,2.8976,2.8398,2.7808,2.7356,2.6864,2.6499,2.6499,2.6499,2.6499,2.6499,2.6499,2.6449,2.6336,2.541,2.475,2.4637,2.3283,2.2631,2.3083,2.3108,2.2937,2.2585,2.3107,2.3257,2.2924,2.4021,2.4545,2.4439,2.6143,2.7202,2.7565,2.5684,2.5691,0.0,0.0,0.0,0.0,0.0,0.0,0.0,0.0,0.0,0.0,0.0,1.3923,1.4987,0.0,1.7568,1.8232,1.9404,2.0244,2.0244,2.0468,2.0683,2.0869,2.1289,2.1728,2.2158,2.2578,2.2867,2.3081,2.3091,2.3091,2.3091,2.3091,2.3198,2.3457,2.3877,2.4307,2.4736,2.5185,2.5518,2.5693,2.5693,2.5693,2.5693,2.5693,2.5693,2.5693,2.5693,2.5693,2.5693,2.5693,2.5868,2.6149,2.64,2.6747,2.7129,2.7214,2.7404,2.7678,2.782,2.7914,2.8092,2.8595,2.9059,2.9567,3.0186,3.0343,3.0377,3.0438,3.0129,2.9792,2.9792,2.9792,2.9792,2.9792,2.9792,2.9792,2.9792,2.9792,2.9704,2.9415,2.8687,2.8009,2.7745,2.704,2.6499,2.6499,2.6499,2.6499,2.6499,2.6499,2.6499,2.6499,2.5711,2.5109,2.4813,2.3496,2.2807,2.3083,2.3108,2.2982,2.2706,2.3149,2.3242,2.2912,2.4059,2.4857,2.5308,2.6701,2.784,2.8626,2.7769,2.7805,0.0,0.0,0.0,0.0,0.0,0.0,0.0,1.2344,1.2837,1.3809,1.4893,1.583,1.6378,1.7715,1.887,1.9336,2.0096,2.0605,2.0605,2.0605,2.0762,2.1299,2.167,2.2051,2.2471,2.2847,2.3091,2.3091,2.3091,2.3091,2.3091,2.3091,2.334,2.3779,2.4199,2.4629,2.5106,2.5518,2.5693,2.5693,2.5693,2.5693,2.5693,2.5693,2.5693,2.5693,2.5693,2.5693,2.5693,2.5693,2.5868,2.61,2.6352,2.6602,2.69,2.6948,2.7129,2.7309,2.7309,2.7309,2.7394,2.7857,2.8315,2.891,2.9886,3.0179,3.0224,3.0599,3.0347,2.993,2.9817,2.9792,2.9792,2.9792,2.9792,2.9792,2.9792,2.9792,2.9792,2.9792,2.8875,2.8109,2.8109,2.7228,2.6499,2.6499,2.6499,2.6499,2.6499,2.6499,2.6499,2.6499,2.5971,2.5335,2.4687,2.3797,2.3221,2.3108,2.3108,2.3108,2.3108,2.3371,2.3339,2.2945,2.4099,2.5058,2.5756,2.6976,2.8095,2.9138,2.9507,2.9686,1.083,1.1287,1.1931,1.1979,1.2334,1.2895,0.0,1.386,1.425,1.5547,1.6211,1.6804,1.7646,1.8574,1.9355,1.9775,2.0254,2.0605,2.0605,2.0605,2.0918,2.1709,2.1855,2.2051,2.2471,2.2847,2.3091,2.3091,2.3091,2.3091,2.3091,2.3091,2.334,2.3779,2.4199,2.4629,2.5106,2.5518,2.5693,2.5693,2.5693,2.5693,2.5693,2.5693,2.5693,2.5693,2.5693,2.5693,2.5693,2.5693,2.5868,2.61,2.6139,2.6448,2.6948,2.7177,2.7262,2.7309,2.7309,2.7309,2.7394,2.7857,2.8373,2.8978,2.9897,3.0425,3.0694,3.0709,3.0608,3.0407,2.9917,2.9792,2.9792,2.9792,2.9792,2.9792,2.9792,2.9792,2.9792,2.9792,2.8875,2.8109,2.8109,2.7228,2.6499,2.6499,2.6499,2.6499,2.6499,2.6499,2.6499,2.6499,2.5971,2.5184,2.418,2.3966,2.3678,2.3133,2.3108,2.3108,2.3108,2.3627,2.391,2.3865,2.4851,2.5823,2.6747,2.7935,2.9013,2.9998,3.0601,3.0658,1.2041,1.25,1.3071,1.3594,1.4043,1.4512,1.5117,1.5654,1.625,1.7031,1.7939,1.8656,1.9053,1.9619,2.0126,2.0264,2.0488,2.0605,2.0605,2.0605,2.084,2.1435,2.1728,2.2148,2.2769,2.2994,2.3091,2.3091,2.3091,2.3091,2.3091,2.3379,2.3711,2.4141,2.457,2.501,2.5449,2.5644,2.5693,2.5693,2.5693,2.5693,2.5693,2.5693,2.5693,2.5693,2.5693,2.5693,2.5693,2.5693,2.5868,2.61,2.6294,2.6554,2.69,2.7044,2.7177,2.7309,2.7309,2.7309,2.7394,2.7857,2.8315,2.8921,2.9886,3.0472,3.0838,3.11,3.0906,3.057,3.0331,3.003,2.9792,2.9792,2.9792,2.9792,2.9792,2.9792,2.9792,2.9792,2.8875,2.8109,2.8109,2.7228,2.6499,2.6499,2.6499,2.6499,2.6499,2.6499,2.6499,2.6499,2.5971,2.541,2.4971,2.4657,2.4368,2.4098,2.4086,2.4086,2.4086,2.4311,2.4481,2.4481,2.5147,2.6005,2.7085,2.7869,2.8769,2.9802,3.0301,3.0452,1.293,1.3535,1.418,1.4805,1.5371,1.5889,1.6359,1.6956,1.75,1.793,1.8802,1.9524,1.9524,2.001,2.0429,2.0429,2.0527,2.0605,2.0605,2.0713,2.0918,2.1317,2.1797,2.2344,2.3023,2.3091,2.3091,2.3091,2.3091,2.3149,2.331,2.3623,2.4033,2.458,2.4902,2.5283,2.5684,2.5693,2.5693,2.5693,2.5693,2.5693,2.5693,2.5693,2.5693,2.5693,2.5693,2.5693,2.5693,2.5693,2.5917,2.6245,2.64,2.6699,2.6996,2.6996,2.7129,2.7309,2.7309,2.7309,2.7404,2.7914,2.8456,2.9095,3.008,3.08,3.1307,3.1546,3.122,3.0796,3.0658,3.0206,2.9792,2.9792,2.9792,2.9792,2.9792,2.9792,2.9792,2.9792,2.9001,2.8285,2.8134,2.7318,2.6663,2.6512,2.6499,2.6499,2.6499,2.6499,2.6499,2.6499,2.6122,2.5774,2.5611,2.5247,2.4938,2.48,2.4788,2.4788,2.4788,2.4926,2.5034,2.5034,2.5549,2.6304,2.7271,2.7687,2.8347,2.9293,2.9591,2.9901,1.3379,1.4404,1.5361,1.5391,1.6015,1.6775,1.7246,1.7363,1.75,1.793,1.8325,1.8637,1.8637,1.9329,1.9932,1.9932,2.0283,2.0605,2.0605,2.0937,2.1377,2.1816,2.2236,2.2623,2.3052,2.3091,2.3091,2.3091,2.3091,2.3276,2.375,2.3779,2.418,2.5067,2.5106,2.5283,2.5684,2.5693,2.5693,2.5693,2.5693,2.5693,2.5693,2.5693,2.5693,2.5693,2.5693,2.5693,2.5693,2.5693,2.6024,2.6496,2.6496,2.6832,2.7309,2.7309,2.7309,2.7309,2.7309,2.7309,2.7404,2.816,2.8896,2.9669,3.0578,3.1572,3.2296,3.1967,3.1647,3.1248,3.0746,3.0206,2.9792,2.9792,2.9792,2.9792,2.9792,2.9792,2.9792,2.9792,2.9315,2.87,2.8197,2.7632,2.7115,2.6575,2.6499,2.6499,2.6499,2.6499,2.6499,2.6499,2.6474,2.6248,2.5649,2.5586,2.536,2.4825,2.4788,2.4788,2.4788,2.531,2.5573,2.5573,2.6283,2.6934,2.7491,2.7703,2.8065,2.8524,2.8744,2.917,1.458,1.5293,1.5986,1.6572,1.6943,1.7275,1.7705,1.8018,1.8174,1.8037,1.8315,1.8598,1.8598,1.8841,1.9212,1.9824,2.0039,2.0342,2.0928,2.1103,2.1356,2.1836,2.2256,2.2568,2.2672,2.2925,2.3091,2.3091,2.3408,2.3633,2.3779,2.4326,2.4822,2.5106,2.5361,2.5538,2.5693,2.5693,2.5693,2.5693,2.5693,2.5693,2.5693,2.5693,2.5693,2.5693,2.5693,2.5693,2.5693,2.5693,2.6024,2.6496,2.6496,2.6832,2.7309,2.7309,2.7309,2.7309,2.7309,2.7309,2.7441,2.8326,2.9233,3.0147,3.1116,3.2113,3.2741,3.2251,3.1772,3.1273,3.0758,3.0206,2.9792,2.9792,2.9792,2.9792,2.9792,2.9792,2.9792,2.9792,2.9327,2.8712,2.8197,2.7645,2.7128,2.6575,2.6499,2.6499,2.6499,2.6499,2.6499,2.6499,2.6499,2.6411,2.6223,2.6197,2.6135,2.5946,2.5946,2.5946,2.5946,2.6109,2.6197,2.6197,2.6523,2.685,2.7162,2.7356,2.759,2.7829,2.8124,2.8527,1.5264,1.5957,1.6701,1.7269,1.75,1.7676,1.7949,1.8105,1.8115,1.7842,1.7754,1.7764,1.7896,1.8052,1.8432,1.9316,1.9717,2.0186,2.1073,2.1327,2.1631,2.206,2.248,2.2691,2.2691,2.2935,2.3091,2.3091,2.3545,2.3857,2.4004,2.4678,2.5184,2.5303,2.5586,2.5693,2.5693,2.5693,2.5693,2.5693,2.5693,2.5693,2.5693,2.5693,2.5693,2.5693,2.5693,2.5693,2.5693,2.5693,2.6024,2.6496,2.6496,2.6832,2.7309,2.7309,2.7309,2.7309,2.7309,2.7309,2.7441,2.8409,2.9406,3.0396,3.1383,3.2363,3.3006,3.2629,3.1976,3.1311,3.0984,3.0344,2.9792,2.9792,2.9792,2.9792,2.9792,2.9792,2.9792,2.9792,2.949,2.9001,2.8235,2.7494,2.6901,2.6549,2.6499,2.6499,2.6499,2.6499,2.6499,2.6499,2.6499,2.6499,2.6499,2.6499,2.6499,2.6499,2.6499,2.6499,2.6499,2.6499,2.6499,2.6499,2.6589,2.6679,2.6816,2.6964,2.7066,2.7167,2.741,2.7776,1.5498,1.6445,1.7422,1.7422,1.7715,1.8008,1.7978,1.7656,1.7334,1.7328,1.6643,1.6193,1.6551,1.7041,1.7637,1.8461,1.9299,2.0167,2.1064,2.1611,2.2041,2.2461,2.2838,2.3091,2.3091,2.3091,2.3091,2.3091,2.3564,2.3994,2.4394,2.4853,2.5293,2.5674,2.5693,2.5693,2.5693,2.5693,2.5693,2.5693,2.5693,2.5693,2.5693,2.5693,2.5693,2.5693,2.5693,2.5693,2.5693,2.5713,2.6053,2.6536,2.6557,2.6883,2.734,2.734,2.733,2.7309,2.7309,2.7309,2.7452,2.8477,2.9417,3.0396,3.1383,3.2363,3.3111,3.3043,3.2265,3.1424,3.1361,3.0595,2.9829,2.9804,2.9792,2.9792,2.9792,2.9792,2.9792,2.9792,2.9741,2.9365,2.8298,2.7228,2.6499,2.6499,2.6499,2.6499,2.6499,2.6499,2.6499,2.6499,2.6499,2.6499,2.6499,2.6499,2.6499,2.6499,2.6499,2.6499,2.6499,2.6499,2.6499,2.6499,2.6499,2.6499,2.6499,2.6499,2.6499,2.6499,2.6658,2.6973,1.6699,1.7353,1.7852,1.7852,1.793,1.793,1.7617,1.7207,1.6677,1.6045,1.5732,1.5615,1.5693,1.6346,1.7243,1.8412,1.9092,1.9863,2.1025,2.1611,2.2041,2.2461,2.2838,2.3091,2.3091,2.3091,2.3091,2.3091,2.3828,2.4307,2.4414,2.5146,2.5567,2.5684,2.5693,2.5693,2.5693,2.5693,2.5693,2.5693,2.5693,2.5693,2.5693,2.5693,2.5693,2.5693,2.5693,2.5693,2.5713,2.6084,2.6567,2.7029,2.7351,2.7567,2.7759,2.7759,2.7541,2.7309,2.7309,2.7309,2.7441,2.8409,2.9406,3.0396,3.1383,3.2363,3.2993,3.2554,3.2227,3.1825,3.1022,3.0608,3.0306,2.9892,2.9792,2.9792,2.9792,2.9792,2.9792,2.9792,2.9114,2.8448,2.816,2.7228,2.6499,2.6499,2.6499,2.6499,2.6499,2.6499,2.6499,2.6499,2.6499,2.6499,2.6499,2.6499,2.6499,2.6499,2.6499,2.6499,2.6499,2.6499,2.6499,2.6499,2.6499,2.6499,2.6499,2.6499,2.6499,2.6499,2.6658,2.685,1.7279,1.7686,1.8008,1.8008,1.7871,1.7617,1.7197,1.6602,1.5878,1.5001,1.4561,1.4355,1.4541,1.5098,1.6044,1.7525,1.8477,1.9453,2.0762,2.1484,2.2041,2.2461,2.2838,2.3091,2.3091,2.3091,2.3169,2.3408,2.4043,2.4414,2.4414,2.5206,2.5693,2.5693,2.5693,2.5693,2.5693,2.5693,2.5693,2.5693,2.5693,2.5693,2.5693,2.5693,2.5693,2.5703,2.5937,2.6025,2.6055,2.6484,2.6962,2.7472,2.7723,2.7832,2.7924,2.7924,2.7645,2.7309,2.7309,2.7309,2.7441,2.8279,2.9187,3.0057,3.1071,3.2013,3.276,3.2509,3.2319,3.2077,3.1474,3.0972,3.0532,3.0231,2.9967,2.9792,2.9792,2.9792,2.9792,2.9792,2.9076,2.8398,2.8147,2.7394,2.6776,2.6524,2.6499,2.6499,2.6499,2.6499,2.6499,2.6499,2.6499,2.6499,2.6499,2.6499,2.6499,2.6499,2.6499,2.6499,2.6499,2.6499,2.6499,2.6499,2.6499,2.6499,2.6499,2.6499,2.6499,2.6499,2.6589,2.6692,1.7484,1.7734,1.7998,1.7939,1.7656,1.7236,1.6648,1.5849,1.4972,1.4114,1.334,1.292,1.335,1.3792,1.466,1.6346,1.7633,1.8926,2.0253,2.1201,2.1953,2.2383,2.2808,2.3091,2.3091,2.3149,2.3379,2.376,2.4228,2.4502,2.4502,2.5245,2.5693,2.5693,2.5693,2.5693,2.5693,2.5693,2.5693,2.5693,2.5693,2.5693,2.5693,2.5693,2.5693,2.5713,2.6201,2.6387,2.6426,2.6904,2.7406,2.7915,2.7965,2.8015,2.81,2.8038,2.7728,2.7382,2.733,2.7309,2.7404,2.8113,2.8803,2.9577,3.0532,3.1484,3.2344,3.2593,3.2504,3.2303,3.2227,3.1474,3.0708,3.0633,3.0193,2.9792,2.9792,2.9792,2.9792,2.9792,2.9327,2.8712,2.8197,2.7645,2.7128,2.6575,2.6499,2.6499,2.6499,2.6499,2.6499,2.6499,2.6499,2.6499,2.6499,2.6499,2.6499,2.6499,2.6499,2.6499,2.6499,2.6499,2.6499,2.6499,2.6499,2.6499,2.6499,2.6499,2.6499,2.6499,2.6499,2.6499,1.7803,1.7959,1.793,1.7578,1.7432,1.708,1.5908,1.4942,1.4085,1.3271,1.2695,1.2457,1.291,1.3588,1.4552,1.5957,1.6982,1.8047,1.9326,2.0566,2.1504,2.1943,2.2676,2.3091,2.3091,2.3467,2.3711,2.3779,2.4512,2.4998,2.4998,2.5449,2.5693,2.5693,2.5693,2.5693,2.5693,2.5693,2.5693,2.5693,2.5693,2.5693,2.5693,2.5693,2.5693,2.5713,2.6201,2.6387,2.6445,2.7226,2.7912,2.8408,2.876,2.894,2.9021,2.8628,2.8204,2.7759,2.7434,2.7309,2.7404,2.7904,2.8409,2.9002,3.0034,3.097,3.1825,3.2344,3.2704,3.2817,3.234,3.1738,3.1148,3.0721,3.0193,2.9792,2.9792,2.9792,2.9792,2.9792,2.9327,2.8712,2.8197,2.7645,2.7128,2.6575,2.6499,2.6499,2.6499,2.6499,2.6499,2.6499,2.6499,2.6499,2.6499,2.6499,2.6499,2.6499,2.6499,2.6499,2.6499,2.6499,2.6499,2.6499,2.6499,2.6499,2.6499,2.6499,2.6499,2.6499,2.6499,2.6499,1.7959,1.8008,1.791,1.749,1.7217,1.6699,1.5391,1.4424,1.3496,1.2436,1.1846,1.158,1.1816,1.2559,1.3539,1.4853,1.6172,1.749,1.8769,2.0225,2.1356,2.1836,2.2627,2.3091,2.3091,2.3535,2.3887,2.4102,2.4707,2.5116,2.5116,2.5488,2.5693,2.5693,2.5693,2.5693,2.5693,2.5693,2.5693,2.5693,2.5693,2.5693,2.5693,2.5693,2.5693,2.5713,2.6201,2.6514,2.6768,2.7454,2.816,2.884,2.8999,2.9174,2.928,2.9052,2.8524,2.7893,2.7686,2.7506,2.7357,2.7584,2.794,2.8502,2.952,3.0464,3.1359,3.2001,3.2624,3.3018,3.2729,3.2026,3.1336,3.1085,3.0394,2.9792,2.9792,2.9792,2.9792,2.9792,2.9566,2.9202,2.8599,2.831,2.7946,2.7394,2.7102,2.6927,2.6927,2.6675,2.6499,2.6499,2.6499,2.6499,2.6499,2.6499,2.6499,2.6499,2.6499,2.6499,2.6499,2.6499,2.6499,2.6499,2.6499,2.6499,2.6499,2.6499,2.6499,2.6499,2.6499,2.6499,1.7988,1.8008,1.7891,1.7373,1.6914,1.6219,1.4941,1.3916,1.291,1.1809,1.1164,1.0801,1.0868,1.1453,1.235,1.3627,1.5137,1.6658,1.813,1.9816,2.1142,2.1807,2.2627,2.3091,2.3091,2.3613,2.4062,2.4394,2.4912,2.5215,2.5215,2.5547,2.5693,2.5693,2.5693,2.5693,2.5693,2.5693,2.5693,2.5693,2.5693,2.5693,2.5693,2.5693,2.5693,2.5713,2.6201,2.6631,2.7051,2.749,2.8226,2.9079,2.9079,2.9235,2.9446,2.9342,2.8783,2.8059,2.7955,2.7634,2.7309,2.7309,2.7536,2.8045,2.9013,3.0,3.0902,3.1713,3.2494,3.3124,3.3124,3.224,3.1336,3.1097,3.0407,2.9792,2.9792,2.9792,2.9792,2.9792,2.9792,2.9616,2.8988,2.8888,2.87,2.8185,2.7733,2.7419,2.7293,2.6939,2.6625,2.6512,2.6499,2.6499,2.6499,2.6499,2.6499,2.6499,2.6499,2.6499,2.6499,2.6499,2.6499,2.6499,2.6499,2.6499,2.6499,2.6499,2.6549,2.6663,2.6663,2.6738,1.791,1.8008,1.7812,1.696,1.6455,1.5821,1.4465,1.3207,1.2174,1.1692,1.0929,1.0479,1.084,1.0977,1.1465,1.2783,1.3769,1.5079,1.7197,1.8965,2.0498,2.1738,2.2627,2.3091,2.3091,2.3832,2.4375,2.4414,2.5148,2.5625,2.5625,2.5664,2.5693,2.5693,2.5693,2.5693,2.5693,2.5693,2.5693,2.5693,2.5693,2.5693,2.5693,2.5693,2.5693,2.5713,2.6201,2.6631,2.7051,2.749,2.8226,2.9079,2.9079,2.9428,2.988,2.9466,2.899,2.8483,2.8069,2.7634,2.7309,2.7309,2.7309,2.7536,2.8502,2.9452,3.0453,3.1472,3.2407,3.3124,3.3124,3.224,3.1148,3.0168,2.9867,2.9792,2.9792,2.9792,2.9792,2.9792,2.9792,2.9616,2.8988,2.8888,2.87,2.8185,2.8059,2.7846,2.7344,2.7278,2.7052,2.6549,2.6499,2.6499,2.6499,2.6499,2.6499,2.6499,2.6499,2.6499,2.6499,2.6499,2.6499,2.6499,2.6499,2.6499,2.6499,2.6499,2.6751,2.7241,2.7241,2.7469,1.7519,1.7822,1.7803,1.6911,1.6396,1.5684,1.4111,1.2944,1.2008,1.1318,1.0714,1.0352,1.0518,1.0742,1.126,1.2314,1.3393,1.4777,1.6719,1.8467,1.9922,2.1006,2.208,2.2721,2.2721,2.376,2.4639,2.5118,2.5489,2.5693,2.5693,2.5693,2.5693,2.5693,2.5693,2.5693,2.5693,2.5693,2.5693,2.5693,2.5693,2.5693,2.5693,2.5693,2.5693,2.5703,2.5918,2.624,2.665,2.6826,2.7395,2.8099,2.8369,2.8834,2.9343,2.9127,2.8869,2.8545,2.803,2.7634,2.7309,2.7309,2.7309,2.7489,2.8398,2.9395,3.0396,3.1427,3.2376,3.3124,3.3124,3.224,3.1122,3.0043,2.9792,2.9792,2.9792,2.9792,2.9792,2.9792,2.9792,2.9716,2.949,2.9453,2.9377,2.9151,2.8825,2.8487,2.8298,2.7984,2.7695,2.7469,2.6889,2.6499,2.6499,2.6499,2.6499,2.6499,2.6499,2.6499,2.6499,2.6499,2.6499,2.6499,2.6499,2.6499,2.6499,2.6826,2.7102,2.7329,2.762,2.7896,1.7197,1.7598,1.7646,1.6882,1.6299,1.5488,1.3867,1.2734,1.1816,1.1064,1.0576,1.0303,1.0303,1.0518,1.1006,1.1895,1.2983,1.4338,1.6063,1.7822,1.9228,2.0126,2.1338,2.2187,2.2314,2.3594,2.4727,2.5488,2.5615,2.5693,2.5693,2.5693,2.5693,2.5693,2.5693,2.5693,2.5693,2.5693,2.5693,2.5693,2.5693,2.5693,2.5693,2.5693,2.5693,2.5693,2.5693,2.5986,2.6387,2.6387,2.6782,2.7419,2.7736,2.8215,2.8676,2.8697,2.8562,2.8359,2.7989,2.7634,2.7309,2.7309,2.7309,2.7489,2.8398,2.9395,3.0396,3.1427,3.2376,3.3006,3.2667,3.1989,3.1122,3.0043,2.9792,2.9792,2.9792,2.9792,2.9792,2.9792,2.9792,2.9792,2.9792,2.9792,2.9792,2.9792,2.9453,2.9076,2.8913,2.8549,2.8285,2.8122,2.7406,2.6977,2.6977,2.6839,2.6738,2.6738,2.6587,2.6499,2.6499,2.6499,2.6562,2.6738,2.6738,2.6813,2.6977,2.7344,2.7607,2.777,2.8172,2.8436,1.7031,1.7393,1.7285,1.6814,1.6044,1.5078,1.3799,1.2524,1.1467,1.0996,1.0576,1.0303,1.0303,1.0303,1.0586,1.1469,1.2338,1.3512,1.5186,1.6924,1.834,1.9199,2.0459,2.1416,2.1846,2.3418,2.46,2.5086,2.5488,2.5693,2.5693,2.5693,2.5693,2.5693,2.5693,2.5693,2.5693,2.5693,2.5693,2.5693,2.5693,2.5693,2.5693,2.5693,2.5693,2.5693,2.5693,2.5986,2.6387,2.6387,2.6782,2.7389,2.7399,2.7753,2.8196,2.8196,2.807,2.7935,2.7924,2.7634,2.7309,2.7309,2.7309,2.7489,2.8398,2.9395,3.0396,3.1427,3.2376,3.286,3.17,3.1399,3.1122,3.0043,2.9792,2.9792,2.9792,2.9792,2.9792,2.9792,2.9792,2.9792,2.9792,2.9792,2.9792,2.9792,2.9779,2.9578,2.8963,2.8888,2.8675,2.816,2.8097,2.8084,2.8084,2.7595,2.7268,2.7268,2.6801,2.6499,2.6499,2.6499,2.6751,2.7268,2.7268,2.7544,2.8084,2.8097,2.8373,2.8875,2.8888,2.9189,1.5361,1.6065,1.6339,1.5586,1.5186,1.457,1.2973,1.2103,1.14,1.0645,1.0391,1.0303,1.0303,1.0518,1.0919,1.1508,1.2573,1.3799,1.5215,1.6914,1.833,1.9189,2.0703,2.208,2.3096,2.3935,2.46,2.5077,2.5488,2.5693,2.5693,2.5693,2.5693,2.5693,2.5693,2.5693,2.5693,2.5693,2.5693,2.5693,2.5693,2.5693,2.5693,2.5693,2.5693,2.5693,2.5693,2.5762,2.5947,2.5947,2.6065,2.6261,2.6615,2.7023,2.751,2.7451,2.7656,2.7883,2.7572,2.7423,2.7309,2.7309,2.7309,2.7489,2.8466,2.9452,3.0531,3.2176,3.2853,3.286,3.1687,3.1386,3.1122,3.0043,2.9792,2.9792,2.9792,2.9792,2.9792,2.9792,2.9792,2.9792,2.9792,2.9792,2.9792,2.9792,2.9792,2.9729,2.9541,2.9515,2.9453,2.9277,2.9264,2.895,2.8172,2.7946,2.7682,2.7306,2.7153,2.6889,2.6512,2.6851,2.714,2.7281,2.7657,2.7934,2.8109,2.8486,2.8963,2.9515,2.9515,2.9616,1.417,1.5049,1.5439,1.4717,1.4424,1.3896,1.2334,1.1631,1.1144,1.0449,1.0303,1.0303,1.0303,1.0625,1.1055,1.1506,1.268,1.3896,1.5019,1.6816,1.8516,1.9863,2.1123,2.2256,2.3213,2.3984,2.4531,2.4805,2.5391,2.5693,2.5693,2.5693,2.5693,2.5693,2.5693,2.5693,2.5693,2.5693,2.5693,2.5693,2.5693,2.5693,2.5693,2.5693,2.5693,2.5693,2.5693,2.5693,0.0,2.5693,2.5693,2.5713,2.6035,2.6478,2.6909,2.6899,2.7191,2.7634,2.7403,2.7309,2.7309,2.7309,2.7547,2.8045,2.9013,3.0011,3.1092,3.2667,3.3124,3.286,3.1687,3.1386,3.1122,3.0043,2.9792,2.9792,2.9792,2.9792,2.9792,2.9792,2.9792,2.9792,2.9792,2.9792,2.9792,2.9792,2.9792,2.9792,2.9792,2.9792,2.9792,2.9792,2.9792,2.9503,2.88,2.8536,2.8273,2.7921,2.7708,2.7444,2.7128,2.7406,2.7695,2.7896,2.8235,2.8524,2.875,2.9089,2.944,2.9792,2.9792,2.9792,0.0,1.4297,1.4551,1.4114,1.3724,1.3125,1.1878,1.1242,0.0,1.0391,1.0303,1.0312,1.0342,1.0703,1.1152,1.1626,1.2798,1.3945,1.4805,1.6816,1.8975,2.1034,2.168,2.21,2.2519,2.3682,2.4414,2.4414,2.5187,2.5693,2.5693,2.5693,2.5693,2.5693,2.5693,2.5693,2.5693,2.5693,2.5693,2.5693,2.5693,2.5693,2.5693,2.5693,2.5693,2.5693,2.5693,2.5693,2.5693,2.5693,2.5693,2.5693,2.5693,2.6024,2.6496,2.6496,2.6832,2.7309,2.7309,2.7309,2.7309,2.7309,2.7961,2.8978,2.9897,3.0913,3.1893,3.2853,3.3124,3.286,3.1687,3.1386,3.1122,3.0043,2.9792,2.9792,2.9792,2.9792,2.9792,2.9792,2.9792,2.9792,2.9792,2.9792,2.9792,2.9792,2.9792,2.9792,2.9792,2.9792,2.9792,2.9792,2.9792,2.9792,2.9792,2.9302,2.8938,2.8888,2.8411,2.8147,2.8109,2.8147,2.8398,2.8888,2.8938,2.9252,2.9792,2.9792,2.9792,2.9792,2.9792,2.9792,1.2054,0.0,1.3326,1.3203,1.3105,1.2798,0.0,1.1242,1.0791,1.0391,1.0303,1.04,1.0703,1.1375,1.2038,1.2524,1.3916,1.5273,1.6122,1.8398,2.0527,2.2031,2.2305,2.2529,2.2906,2.3812,2.4414,2.4414,2.5187,2.5693,2.5693,2.5693,2.5693,2.5693,2.5693,2.5693,2.5693,2.5693,2.5693,2.5693,2.5693,2.5693,2.5693,2.5693,2.5693,2.5693,2.5693,2.5693,2.5693,2.5693,2.5693,2.5693,2.5693,2.6024,2.6496,2.6496,2.6832,2.7309,2.7309,2.7309,2.7309,2.7309,2.7951,2.891,2.9897,3.0913,3.1893,3.2853,3.3124,3.286,3.1687,3.1386,3.1122,3.0043,2.9792,2.9792,2.9792,2.9792,2.9792,2.9792,2.9792,2.9792,2.9792,2.9792,2.9792,2.9792,2.9792,2.9792,2.9792,2.9792,2.9792,2.9792,2.9792,2.9792,2.9792,2.9666,2.9402,2.8913,2.8762,2.8549,2.8122,2.8511,2.8762,2.8888,2.9365,2.9654,2.9792,2.9792,2.9792,2.9792,2.9792,2.9792,1.1498,1.223,1.2856,1.2627,1.2588,1.2353,1.1486,1.0948,1.0557,1.0352,1.0459,1.0703,1.1154,1.209,1.2934,1.3389,1.4864,1.657,1.8262,1.9863,2.1348,2.2604,2.2803,2.2847,2.3071,2.374,2.4131,2.4131,2.4746,2.5079,2.5079,2.5079,2.5079,2.5079,2.5322,2.5527,2.5693,2.5693,2.5693,2.5693,2.5693,2.5693,2.5693,2.5693,2.5693,2.5693,2.5693,2.5693,2.5693,2.5693,2.5693,2.5684,2.583,2.6159,2.6496,2.6651,2.6938,2.7309,2.7309,2.7357,2.7441,2.7584,2.8279,2.9233,3.0215,3.1137,3.1952,3.2541,3.2679,3.2428,3.1323,3.1035,3.0821,2.9993,2.9792,2.9792,2.9792,2.9792,2.9792,2.9792,2.9792,2.9792,2.9792,2.9792,2.9792,2.9792,2.9792,2.9792,2.9792,2.9792,2.9792,2.9792,2.9792,2.9792,2.9792,2.9792,2.9666,2.934,2.9327,2.9189,2.8888,2.9164,2.9327,2.9327,2.9628,2.9792,2.9792,2.9792,2.9792,2.9792,2.9792,2.9792,1.139,1.223,1.2812,1.2476,1.235,1.2106,1.1355,1.0851,1.0498,1.0498,1.0782,1.1162,1.1692,1.2773,1.3779,1.4309,1.5966,1.8027,2.038,2.1103,2.1814,2.2955,2.3091,2.3091,2.3091,2.3535,2.3789,2.3789,2.418,2.4414,2.4414,2.4414,2.4414,2.4414,2.4844,2.5254,2.5635,2.5654,2.5693,2.5693,2.5693,2.5693,2.5693,2.5693,2.5693,2.5693,2.5693,2.5693,2.5693,2.5693,2.5732,2.5781,2.6004,2.6304,2.6602,2.6805,2.7081,2.7309,2.7309,2.7441,2.7726,2.7998,2.8781,2.9806,3.0722,3.1492,3.2098,3.2154,3.2277,3.2102,3.1009,3.0733,3.0583,2.9942,2.9792,2.9792,2.9792,2.9792,2.9792,2.9792,2.9792,2.9792,2.9792,2.9792,2.9792,2.9792,2.9792,2.9792,2.9792,2.9792,2.9792,2.9792,2.9792,2.9792,2.9792,2.9792,2.9792,2.9792,2.9792,2.9792,2.9792,2.9792,2.9792,2.9792,2.9792,2.9792,2.9792,2.9792,2.9792,2.9792,2.9792,2.9792,1.1469,1.223,1.2949,1.3232,1.3037,1.2768,1.2631,1.1966,1.141,1.141,1.1459,1.1731,1.2553,1.3418,1.4387,1.5606,1.7822,1.9824,2.0937,2.1816,2.2519,2.3033,2.3091,2.3091,2.3091,2.3535,2.3789,2.3789,2.418,2.4414,2.4414,2.4414,2.4414,2.4414,2.4844,2.5145,2.5166,2.5547,2.5693,2.5693,2.5693,2.5693,2.5693,2.5693,2.5693,2.5693,2.5693,2.5693,2.5693,2.5693,2.582,2.6052,2.6091,2.64,2.6853,2.69,2.7081,2.7309,2.7309,2.7584,2.7987,2.8445,2.9279,3.0261,3.1226,3.1869,3.2308,3.2209,3.2566,3.2679,3.1562,3.1273,3.1022,3.003,2.9792,2.9792,2.9792,2.9792,2.9792,2.9792,2.9792,2.9792,2.9792,2.9792,2.9792,2.9792,2.9792,2.9792,2.9792,2.9792,2.9792,2.9792,2.9792,2.9792,2.9792,2.9792,2.9792,2.9792,2.9792,2.9792,2.9792,2.9792,2.9792,2.9792,2.9792,2.9792,2.9792,2.9792,2.9792,2.9792,2.9792,2.9792,1.1398,1.223,1.3062,1.3656,1.3701,1.3496,1.3271,1.2758,1.2299,1.2299,1.2475,1.2881,1.3776,1.4805,1.6161,1.8208,1.9492,2.0654,2.1726,2.2266,2.2666,2.3042,2.3091,2.3091,2.3091,2.3276,2.3437,2.3437,2.3569,2.3686,2.3686,2.3686,2.3686,2.3686,2.415,2.4375,2.4375,2.5039,2.5498,2.5693,2.5693,2.5693,2.5693,2.5693,2.5693,2.5693,2.5693,2.5693,2.5684,2.5868,2.6004,2.6149,2.64,2.6699,2.69,2.7081,2.7167,2.7309,2.7309,2.7678,2.8337,2.8921,2.9795,3.0758,3.1749,3.2288,3.2587,3.2669,3.2641,3.2353,3.1248,3.0972,3.0771,2.998,2.9792,2.9792,2.9792,2.9792,2.9792,2.9792,2.9792,2.9792,2.9792,2.9792,2.9792,2.9792,2.9792,2.9792,2.9792,2.9792,2.9792,2.9792,2.9792,2.9792,2.9792,2.9792,2.9792,2.9792,2.9792,2.9792,2.9792,2.9792,2.9792,2.9792,2.9792,2.9792,2.9792,2.9792,2.9792,2.9792,2.9792,2.9792,1.1222,1.2074,1.291,1.3627,1.4036,1.4202,1.4004,1.3623,1.3375,1.3482,1.373,1.418,1.4951,1.623,1.7886,2.0233,2.0781,2.13,2.2353,2.2598,2.274,2.3052,2.3091,2.3091,2.3091,2.3091,2.3091,2.3091,2.3091,2.3091,2.3091,2.3091,2.3091,2.3091,2.3564,2.3789,2.3789,2.4639,2.5244,2.5586,2.5635,2.5693,2.5693,2.5693,2.5693,2.5693,2.5693,2.5732,2.583,2.6004,2.6197,2.6352,2.6747,2.6948,2.7034,2.7214,2.7309,2.7309,2.7309,2.782,2.8617,2.9382,3.0306,3.1261,3.2245,3.268,3.2853,3.3025,3.2754,3.219,3.1235,3.0984,3.0859,3.0294,3.008,2.998,2.998,2.988,2.9792,2.9792,2.9792,2.9792,2.9792,2.9792,2.9792,2.9792,2.9792,2.9792,2.9792,2.9792,2.9792,2.9792,2.9792,2.9792,2.9792,2.9792,2.9792,2.9792,2.9792,2.9792,2.9792,2.9792,2.9792,2.9792,2.9792,2.9792,2.9792,2.9792,2.9792,2.9792,2.9792,2.9792,1.083,1.158,1.2369,1.2852,1.3893,1.4834,1.5195,1.4951,1.4756,1.5146,1.5225,1.542,1.5919,1.7353,1.8919,2.038,2.129,2.1963,2.2441,2.2808,2.3062,2.3091,2.3091,2.3091,2.3091,2.3091,2.3091,2.3091,2.3091,2.3091,2.3091,2.3091,2.3091,2.3091,2.3564,2.3789,2.3789,2.4639,2.5135,2.5174,2.5537,2.5693,2.5693,2.5693,2.5693,2.5693,2.5693,2.582,2.6052,2.61,2.64,2.6853,2.69,2.7034,2.7262,2.7309,2.7309,2.7309,2.7309,2.7961,2.8932,2.9863,3.0824,3.1793,3.2766,3.3081,3.3081,3.3068,3.3056,3.2867,3.2252,3.2089,3.1951,3.1399,3.0909,3.0557,3.0557,3.0156,2.9792,2.9792,2.9792,2.9792,2.9792,2.9792,2.9792,2.9792,2.9792,2.9792,2.9792,2.9792,2.9792,2.9792,2.9792,2.9792,2.9792,2.9792,2.9792,2.9792,2.9792,2.9792,2.9792,2.9792,2.9792,2.9792,2.9792,2.9792,2.9792,2.9792,2.9792,2.9792,2.9792,2.9792,1.1213,1.1963,1.2803,1.3486,1.4424,1.5215,1.5381,1.5683,1.6113,1.6543,1.6846,1.7158,1.7588,1.8633,1.9738,2.081,2.1484,2.2129,2.2769,2.2994,2.3091,2.3091,2.3091,2.3091,2.3091,2.3091,2.3091,2.3091,2.3091,2.3091,2.3091,2.3091,2.3091,2.3091,2.3257,2.3344,2.3344,2.3975,2.4359,2.4506,2.5311,2.5693,2.5693,2.5693,2.5693,2.5684,2.5868,2.6004,2.6149,2.6448,2.6699,2.69,2.7081,2.7214,2.7309,2.7309,2.7309,2.7309,2.7309,2.7961,2.8932,2.9909,3.0869,3.1881,3.281,3.3124,3.3124,3.3124,3.3124,3.2943,3.2365,3.2215,3.2077,3.1524,3.1248,3.1009,3.0683,3.0457,3.0206,2.9854,2.9792,2.9792,2.9792,2.9792,2.9792,2.9792,3.008,3.0306,3.0306,3.0583,3.067,3.0331,2.9993,2.9792,2.9792,2.9792,2.9792,2.9792,2.9792,2.9792,2.9792,2.9792,2.9792,2.9792,2.9792,2.9792,2.9792,2.9792,2.9792,2.9792,2.9792,2.9792,1.1518,1.2132,1.2852,1.3539,1.4482,1.5322,1.5732,1.6473,1.7223,1.7686,1.8115,1.8545,1.8929,1.9485,2.0244,2.1279,2.1689,2.2178,2.2974,2.3091,2.3091,2.3091,2.3091,2.3091,2.3091,2.3091,2.3091,2.3091,2.3091,2.3091,2.3091,2.3091,2.3091,2.3091,2.3091,2.3091,2.3091,2.3574,2.3924,2.4113,2.5159,2.5624,2.5624,2.5761,2.583,2.583,2.6004,2.6197,2.64,2.6757,2.6948,2.7034,2.7214,2.7309,2.7309,2.7309,2.7309,2.7309,2.7309,2.7951,2.8921,2.9909,3.0869,3.1881,3.281,3.3124,3.3124,3.3124,3.3124,3.298,3.2591,3.2491,3.239,3.2014,3.1788,3.1499,3.0972,3.0733,3.0457,2.9892,2.993,3.0055,3.0055,3.0181,3.0294,3.0294,3.062,3.0859,3.0859,3.1173,3.1248,3.0896,3.052,3.0231,3.0068,3.0055,2.998,2.9804,2.9792,2.9792,2.9792,2.9792,2.9792,2.9792,2.9792,2.9792,2.9792,2.9792,2.9792,2.9792,2.9792,2.9792,1.1616,1.1904,1.233,1.2793,1.3893,1.5146,1.6414,1.7369,1.8135,1.8529,1.8994,1.9424,1.9844,1.9922,2.0352,2.167,2.1885,2.2187,2.2974,2.3091,2.3091,2.3091,2.3091,2.3091,2.3091,2.3091,2.3091,2.3091,2.3091,2.3091,2.3091,2.3091,2.3091,2.3091,2.3091,2.3091,2.3091,2.3564,2.3914,2.4103,2.503,2.5446,2.5399,2.5892,2.61,2.61,2.61,2.64,2.69,2.69,2.7081,2.7309,2.7309,2.7309,2.7309,2.7309,2.7309,2.7309,2.7309,2.7904,2.8852,2.9897,3.0869,3.1881,3.281,3.3124,3.3124,3.3124,3.3124,3.3124,3.3124,3.3124,3.3124,3.3124,3.2641,3.2064,3.1512,3.0984,3.0457,2.9905,3.0231,3.062,3.062,3.1047,3.1386,3.1386,3.1399,3.1399,3.1411,3.1399,3.1399,3.1399,3.1386,3.1185,3.067,3.062,3.0382,2.9829,2.9792,2.9792,2.9792,2.9792,2.9792,2.9792,2.9792,2.9792,2.9792,2.9792,2.9792,2.9792,2.9804,2.9804,1.2426,1.2803,1.3344,1.4404,1.541,1.6416,1.7369,1.8022,1.8705,1.9785,2.0136,2.0137,1.9951,2.0381,2.0927,2.1327,2.1934,2.2519,2.3023,2.3091,2.3091,2.3091,2.3091,2.3091,2.3091,2.3091,2.3091,2.3091,2.3091,2.3091,2.3091,2.3091,2.3091,2.3091,2.3091,2.3188,2.3363,2.3501,2.3692,2.3911,2.4856,2.5345,2.5399,2.6094,2.6294,2.61,2.6496,2.6747,2.69,2.7081,2.7214,2.7309,2.7309,2.7309,2.7309,2.7309,2.7404,2.7536,2.7726,2.8456,2.9428,3.0362,3.127,3.2045,3.2853,3.3124,3.3124,3.3124,3.3124,3.3124,3.3124,3.3124,3.3124,3.3124,3.2943,3.2554,3.1599,3.1273,3.0884,2.9967,3.0231,3.062,3.062,3.1047,3.1386,3.1386,3.1725,3.2114,3.2528,3.2227,3.1964,3.1964,3.1625,3.1336,3.1173,3.0821,3.0545,3.0382,3.0005,2.9792,2.9792,2.9792,2.9792,2.9792,2.9792,2.9792,2.9792,2.9792,2.9792,2.9804,3.0193,3.0369,1.2764,1.3311,1.3997,1.5137,1.6211,1.7305,1.8496,1.8919,1.9414,2.04,2.0605,2.0576,2.0459,2.0839,2.1307,2.1648,2.2178,2.2656,2.3033,2.3091,2.3091,2.3091,2.3091,2.3091,2.3091,2.3091,2.3091,2.3091,2.3091,2.3091,2.3091,2.3091,2.3091,2.3091,2.3091,2.3232,2.3503,2.3503,2.358,2.3807,2.4846,2.5365,2.5348,2.6119,2.6448,2.6448,2.689,2.7081,2.7081,2.7214,2.7309,2.7309,2.7309,2.7309,2.7309,2.7309,2.7489,2.7809,2.8175,2.8921,2.9932,3.0857,3.1625,3.2276,3.2896,3.3124,3.3124,3.3124,3.3124,3.3124,3.3124,3.3124,3.3124,3.3124,3.3124,3.283,3.1913,3.1725,3.1461,3.0595,3.0871,3.1248,3.1248,3.17,3.2064,3.2064,3.234,3.2679,3.3031,3.2767,3.2554,3.2554,3.2265,3.1964,3.1738,3.1424,3.116,3.0934,3.0608,3.0432,3.0432,3.0018,2.9792,2.9792,2.9792,2.9792,2.9792,2.9792,2.9905,3.0131,3.0457,3.0721,1.2822,1.3555,1.4377,1.5274,1.6553,1.7978,1.9609,1.9971,2.0088,2.0517,2.0635,2.0752,2.1122,2.1259,2.157,2.2383,2.2549,2.2705,2.3042,2.3091,2.3091,2.3091,2.3091,2.3091,2.3091,2.3091,2.3091,2.3135,2.3144,2.3144,2.3144,2.3144,2.3144,2.3144,2.3144,2.3276,2.3503,2.3547,2.3624,2.3807,2.495,2.5366,2.5194,2.6121,2.6699,2.6948,2.7167,2.7309,2.7309,2.7309,2.7309,2.7309,2.7309,2.7309,2.7309,2.7347,2.7678,2.8186,2.8678,2.9474,3.0442,3.1371,3.2013,3.2519,3.2952,3.3124,3.3124,3.3124,3.3124,3.3124,3.3124,3.3124,3.3124,3.3124,3.3124,3.2918,3.234,3.2215,3.2051,3.1499,3.1838,3.2215,3.2215,3.2692,3.3124,3.3124,3.3124,3.3124,3.3124,3.3124,3.3124,3.3124,3.3124,3.2867,3.234,3.224,3.2001,3.1499,3.1411,3.1386,3.1386,3.0457,2.9942,2.9942,2.9942,2.9942,2.9942,2.9942,3.0193,3.0683,3.0733,3.1022,1.3262,1.3994,1.4932,1.6112,1.7676,1.915,2.0224,2.0458,2.0488,2.0586,2.084,2.1123,2.1181,2.1746,2.2295,2.248,2.275,2.2994,2.3081,2.3091,2.3091,2.3091,2.3091,2.3091,2.3091,2.3091,2.3188,2.3406,2.3406,2.3406,2.3406,2.3406,2.3406,2.3406,2.3406,2.3503,2.3711,2.3754,2.3754,2.3807,2.4438,2.4844,2.5019,2.6449,2.7167,2.7214,2.7262,2.7309,2.7309,2.7309,2.7309,2.7309,2.7309,2.7404,2.7536,2.7762,2.8279,2.8978,2.9623,3.0397,3.1172,3.1981,3.2419,3.268,3.3025,3.3124,3.3124,3.3124,3.3124,3.3124,3.3124,3.3124,3.3124,3.3124,3.3124,3.2918,3.234,3.2215,3.2051,3.1499,3.1838,3.2215,3.2215,3.2692,3.3124,3.3124,3.3124,3.3124,3.3124,3.3124,3.3124,3.3124,3.3124,3.3074,3.2905,3.2466,3.2164,3.2039,3.1625,3.1386,3.1386,3.1173,3.1047,3.1047,3.1047,3.1047,3.1047,3.1047,3.111,3.1235,3.1675,3.1926,1.3086,1.4131,1.5547,1.7471,1.8623,1.9512,2.041,2.0605,2.0605,2.0605,2.0918,2.1259,2.1504,2.207,2.2578,2.2783,2.2955,2.3091,2.3091,2.3091,2.3091,2.3091,2.3091,2.3091,2.3091,2.3091,2.3232,2.3503,2.3363,2.3363,2.3503,2.3363,2.3373,2.3503,2.3503,2.359,2.3797,2.3937,2.3937,2.3807,2.4524,2.5026,2.5396,2.6233,2.6646,2.6646,2.6646,2.677,2.6978,2.6978,2.7102,2.7309,2.7309,2.7489,2.7857,2.8222,2.8874,2.976,3.0566,3.1294,3.1937,3.2562,3.2822,3.2896,3.3081,3.3124,3.3124,3.3124,3.3124,3.3124,3.3124,3.3124,3.3124,3.3124,3.3124,3.2993,3.2692,3.2629,3.2541,3.2252,3.2428,3.2629,3.2629,3.288,3.3124,3.3124,3.3124,3.3124,3.3124,3.3124,3.3124,3.3124,3.3124,3.3124,3.3124,3.2805,3.2629,3.2629,3.2353,3.2202,3.2202,3.2202,3.1951,3.1399,3.1386,3.1386,3.1386,3.1386,3.1524,3.1788,3.2077,3.2353,1.2764,1.4228,1.623,1.8672,1.9287,1.9512,2.041,2.0605,2.0605,2.0605,2.0977,2.1455,2.1816,2.2295,2.2691,2.3042,2.3091,2.3091,2.3091,2.3091,2.3091,2.3091,2.3091,2.3135,2.3144,2.3188,2.3276,2.3547,2.3363,2.3319,2.3503,2.3276,2.3276,2.3547,2.3547,2.3667,2.3884,2.4067,2.4067,2.3894,2.4705,2.5295,2.5647,2.5647,2.5775,2.5965,2.601,2.6326,2.68,2.6846,2.7118,2.7536,2.7536,2.7857,2.8315,2.8771,2.9566,3.0532,3.1415,3.2057,3.2519,3.2952,3.3124,3.3124,3.3124,3.3124,3.3124,3.3124,3.3124,3.3124,3.3124,3.3124,3.3124,3.3124,3.3124,3.3124,3.3124,3.3124,3.3124,3.3124,3.3124,3.3124,3.3124,3.3124,3.3124,3.3124,3.3124,3.3124,3.3124,3.3124,3.3124,3.3124,3.3124,3.3124,3.3124,3.3124,3.3124,3.3124,3.3124,3.3124,3.3124,3.3124,3.2641,3.17,3.1687,3.1687,3.1687,3.1687,3.1913,3.2365,3.2365,3.2616,1.2764,1.4678,1.696,1.8828,1.9287,1.9512,2.041,2.0605,2.0605,2.0605,2.1221,2.1816,2.1875,2.2519,2.3033,2.3081,2.3091,2.3091,2.3091,2.3091,2.3091,2.3091,2.3091,2.3188,2.3416,2.346,2.3537,2.3754,2.3711,2.3667,2.3503,2.346,2.3547,2.3754,2.3754,2.3884,2.4153,2.4163,2.4163,2.4163,2.443,2.4621,2.4673,2.4673,2.5228,2.619,2.6425,2.6926,2.7581,2.7718,2.808,2.8491,2.8491,2.8828,2.9347,2.9852,3.0487,3.1261,3.2025,3.2463,3.2723,3.2982,3.3124,3.3124,3.3124,3.3124,3.3124,3.3124,3.3124,3.3124,3.3124,3.3124,3.3124,3.3124,3.3124,3.3124,3.3124,3.3124,3.3124,3.3124,3.3124,3.3124,3.3124,3.3124,3.3124,3.3124,3.3124,3.3124,3.3124,3.3124,3.3124,3.3124,3.3124,3.3124,3.3124,3.3124,3.3124,3.3124,3.3124,3.3124,3.3124,3.3124,3.3048,3.2898,3.2855,3.2855,3.2855,3.2855,3.2893,3.2968,3.2968,3.3006,1.3633,1.5155,1.6768,1.8496,1.9102,1.9453,2.0059,2.0429,2.0605,2.0605,2.1269,2.1885,2.1885,2.2578,2.3091,2.3091,2.3091,2.3091,2.3091,2.3091,2.3091,2.3091,2.3091,2.3188,2.346,2.3503,2.358,2.3797,2.3711,2.359,2.3503,2.3503,2.359,2.3797,2.3937,2.4067,2.4206,2.4292,2.4378,2.4378,2.4454,2.4497,2.4497,2.4497,2.4919,2.5676,2.6012,2.6813,2.7911,2.8265,2.8847,2.9532,2.9532,2.9863,3.0329,3.0824,3.1383,3.1981,3.2605,3.2865,3.2939,3.3081,3.3124,3.3124,3.3124,3.3124,3.3124,3.3124,3.3124,3.3124,3.3124,3.3124,3.3124,3.3124,3.3124,3.3124,3.3124,3.3124,3.3124,3.3124,3.3124,3.3124,3.3124,3.3124,3.3124,3.3124,3.3124,3.3124,3.3124,3.3124,3.3124,3.3124,3.3124,3.3124,3.3124,3.3124,3.3124,3.3124,3.3124,3.3124,3.3124,3.3124,3.3124,3.3124,3.3124,3.3124,3.3124,3.3124,3.3124,3.3124,3.3124,3.3124,1.3896,1.5028,1.6153,1.7711,1.8564,1.9102,1.9639,2.0088,2.0468,2.0586,2.1182,2.1758,2.1865,2.2578,2.3091,2.3091,2.3091,2.3091,2.3091,2.3091,2.3091,2.3091,2.3091,2.3232,2.3547,2.359,2.3634,2.3797,2.3667,2.3537,2.3503,2.3503,2.3624,2.3884,2.411,2.4196,2.4292,2.4411,2.4497,2.4497,2.4497,2.4497,2.4497,2.4497,2.4743,2.5232,2.5642,2.6685,2.8136,2.8666,2.9526,3.0498,3.0543,3.0812,3.1214,3.1637,3.2101,3.2562,3.2939,3.3124,3.3124,3.3124,3.3124,3.3124,3.3124,3.3124,3.3124,3.3124,3.3124,3.3124,3.3124,3.3124,3.3124,3.3124,3.3124,3.3124,3.3124,3.3124,3.3124,3.3124,3.3124,3.3124,3.3124,3.3124,3.3124,3.3124,3.3124,3.3124,3.3124,3.3124,3.3124,3.3124,3.3124,3.3124,3.3124,3.3124,3.3124,3.3124,3.3124,3.3124,3.3124,3.3124,3.3124,3.3124,3.3124,3.3124,3.3124,3.3124,3.3124,3.3124,3.3124,3.3124,1.2749,1.3923,1.5166,1.6473,1.7428,1.8291,1.9131,1.9648,2.0068,2.0517,2.0937,2.1356,2.1807,2.2578,2.3091,2.3091,2.3091,2.3091,2.3091,2.3091,2.3091,2.3091,2.3091,2.3276,2.3754,2.3797,2.3797,2.3797,2.3797,2.3711,2.3503,2.3503,2.3721,2.4163,2.4206,2.4292,2.4497,2.4497,2.4497,2.4497,2.4497,2.4497,2.4497,2.4497,2.4743,2.5242,2.5675,2.6856,2.843,2.9087,3.0095,3.1261,3.1528,3.1737,3.1989,3.2245,3.2506,3.2723,3.2982,3.3124,3.3124,3.3124,3.3124,3.3124,3.3124,3.3124,3.3124,3.3124,3.3124,3.3124,3.3124,3.3124,3.3124,3.3124,3.3124,3.3124,3.3124,3.3124,3.3124,3.3124,3.3124,3.3124,3.3124,3.3124,3.3124,3.3124,3.3124,3.3124,3.3124,3.3124,3.3124,3.3124,3.3124,3.3124,3.3124,3.3124,3.3124,3.3124,3.3124,3.3124,3.3124,3.3124,3.3124,3.3124,3.3124,3.3124,3.3124,3.3124,3.3124,3.3124,3.3124,3.3124,1.2148,1.2998,1.3903,1.5156,1.6133,1.7024,1.7871,1.8809,1.9629,2.0059,2.0723,2.1239,2.1405,2.2116,2.2779,2.3052,2.3091,2.3091,2.3091,2.3091,2.3091,2.3091,2.3091,2.3266,2.3754,2.3797,2.3797,2.3797,2.3797,2.3711,2.3503,2.3624,2.3851,2.4206,2.4335,2.4411,2.4497,2.4497,2.4497,2.4497,2.4497,2.4497,2.4497,2.4497,2.4743,2.5242,2.5686,2.6763,2.8207,2.9005,3.017,3.1534,3.1865,3.2302,3.2711,3.281,3.2896,3.2982,3.3068,3.3124,3.3124,3.3124,3.3124,3.3124,3.3124,3.3124,3.3124,3.3124,3.3124,3.3124,3.3124,3.3124,3.3124,3.3124,3.3124,3.3124,3.3124,3.3124,3.3124,3.3124,3.3124,3.3124,3.3124,3.3124,3.3124,3.3124,3.3124,3.3124,3.3124,3.3124,3.3124,3.3124,3.3124,3.3124,3.3124,3.3124,3.3124,3.3124,3.3124,3.3124,3.3124,3.3124,3.3124,3.3124,3.3124,3.3124,3.3124,3.3124,3.3124,3.3124,3.3124,3.3124,1.1492,1.2109,1.2739,1.3893,1.4813,1.5684,1.6741,1.7822,1.8848,1.9561,2.0283,2.0839,2.1142,2.1658,2.2266,2.2789,2.3003,2.3091,2.3091,2.3091,2.3091,2.3091,2.3091,2.3266,2.3754,2.3797,2.3797,2.3797,2.3797,2.3754,2.3634,2.3711,2.3927,2.4292,2.4411,2.4497,2.4497,2.4497,2.4497,2.4497,2.4497,2.4497,2.4497,2.4497,2.4743,2.5232,2.5664,2.6682,2.8057,2.8928,3.0226,3.1637,3.2047,3.2566,3.3124,3.3124,3.3124,3.3124,3.3124,3.3124,3.3124,3.3124,3.3124,3.3124,3.3124,3.3124,3.3124,3.3124,3.3124,3.3124,3.3124,3.3124,3.3124,3.3124,3.3124,3.3124,3.3124,3.3124,3.3124,3.3124,3.3124,3.3124,3.3124,3.3124,3.3124,3.3124,3.3124,3.3124,3.3124,3.3124,3.3124,3.3124,3.3124,3.3124,3.3124,3.3124,3.3124,3.3124,3.3124,3.3124,3.3124,3.3124,3.3124,3.3124,3.3124,3.3124,3.3124,3.3124,3.3124,3.3124,3.3124,3.3124,0.0,0.0,0.0,1.2631,1.3457,1.4387,1.5723,1.6721,1.7738,1.8965,1.958,2.0118,2.0995,2.1181,2.1463,2.2334,2.2789,2.3081,2.3091,2.3091,2.3091,2.3091,2.3091,2.3266,2.3754,2.3797,2.3797,2.3797,2.3797,2.3797,2.3797,2.3797,2.4013,2.4497,2.4497,2.4497,2.4497,2.4497,2.4497,2.4497,2.4497,2.4497,2.4497,2.4497,2.4743,2.5232,2.5631,2.6649,2.8045,2.8892,3.0172,3.1607,3.2034,3.2554,3.3124,3.3124,3.3124,3.3124,3.3124,3.3124,3.3124,3.3124,3.3124,3.3124,3.3124,3.3124,3.3124,3.3124,3.3124,3.3124,3.3124,3.3124,3.3124,3.3124,3.3124,3.3124,3.3124,3.3124,3.3124,3.3124,3.3124,3.3124,3.3124,3.3124,3.3124,3.3124,3.3124,3.3124,3.3124,3.3124,3.3124,3.3124,3.3124,3.3124,3.3124,3.3124,3.3124,3.3124,3.3124,3.3124,3.3124,3.3124,3.3124,3.3124,3.3124,3.3124,3.3124,3.3124,3.3124,3.3124,3.3124,3.3124,1.0332,0.0,0.0,0.0,0.0,0.0,1.3994,1.539,1.6741,1.7705,1.874,1.9629,2.0176,2.0761,2.1268,2.1512,2.2165,2.275,2.3052,2.3091,2.3091,2.3091,2.3091,2.3266,2.3754,2.3797,2.3797,2.3797,2.398,2.398,2.3797,2.411,2.4368,2.4497,2.4497,2.4497,2.4497,2.4497,2.4497,2.4497,2.4497,2.4497,2.4497,2.4497,2.4743,2.5242,2.5664,2.6368,2.7291,2.8277,2.9642,3.1058,3.1447,3.2215,3.3124,3.3124,3.3124,3.3124,3.3124,3.3124,3.3124,3.3124,3.3124,3.3124,3.3124,3.3124,3.3124,3.3124,3.3124,3.3124,3.3124,3.3124,3.3124,3.3124,3.3124,3.3124,3.3124,3.3124,3.3124,3.3124,3.3124,3.3124,3.3124,3.3124,3.3124,3.3124,3.3124,3.3124,3.3124,3.3124,3.3124,3.3124,3.3124,3.3124,3.3124,3.3124,3.3124,3.3124,3.3124,3.3124,3.3124,3.3124,3.3124,3.3124,3.3124,3.3124,3.3124,3.3124,3.3124,3.3124,3.3124,3.3124,1.0762,1.0841,1.0939,1.1326,0.0,0.0,1.351,1.4687,1.586,1.6894,1.7988,1.8887,1.927,1.9913,2.0478,2.0615,2.126,2.1914,2.2529,2.2617,2.2617,2.2617,2.2773,2.301,2.3408,2.3567,2.3711,2.3797,2.3937,2.4024,2.398,2.4325,2.4497,2.4497,2.4497,2.4497,2.4497,2.4497,2.4497,2.4497,2.4497,2.4497,2.4497,2.4497,2.4743,2.5232,2.5664,2.6207,2.6787,2.7568,2.8925,3.0533,3.0976,3.1868,3.2939,3.3081,3.3124,3.3124,3.3124,3.3124,3.3124,3.3124,3.3124,3.3124,3.3124,3.3124,3.3124,3.3124,3.3124,3.3124,3.3124,3.3124,3.3124,3.3124,3.3124,3.3124,3.3124,3.3124,3.3124,3.3124,3.3124,3.3124,3.3124,3.3124,3.3124,3.3124,3.3124,3.3124,3.3124,3.3124,3.3124,3.3124,3.3124,3.3124,3.3124,3.3124,3.3124,3.3124,3.3124,3.3124,3.3124,3.3124,3.3124,3.3124,3.3124,3.3124,3.3124,3.3124,3.3124,3.3124,3.3124,3.3124,1.1731,1.1731,1.1819,1.2116,1.2242,0.0,1.3646,1.4336,1.5059,1.6239,1.7165,1.7939,1.8373,1.8848,1.9287,1.9707,2.0137,2.0791,2.168,2.1855,2.1885,2.1885,2.2217,2.2536,2.279,2.3176,2.3511,2.3727,2.381,2.398,2.4196,2.4411,2.4497,2.4497,2.4497,2.4497,2.4497,2.4497,2.4497,2.4497,2.4497,2.4497,2.4497,2.4497,2.4743,2.52,2.5589,2.6008,2.6445,2.6876,2.8192,3.0001,3.0509,3.1482,3.2624,3.2957,3.3124,3.3124,3.3124,3.3124,3.3124,3.3124,3.3124,3.3124,3.3124,3.3124,3.3124,3.3124,3.3124,3.3124,3.3124,3.3124,3.3124,3.3124,3.3124,3.3124,3.3124,3.3124,3.3124,3.3124,3.3124,3.3124,3.3124,3.3124,3.3124,3.3124,3.3124,3.3124,3.3124,3.3124,3.3124,3.3124,3.3124,3.3124,3.3124,3.3124,3.3124,3.3124,3.3124,3.3162,3.3237,3.3224,3.3206,3.3257,3.3257,3.3232,3.3212,3.3106,3.3124,3.3124,3.3144,3.3212,1.2651,1.2651,1.2559,1.2272,1.2467,0.0,1.2603,1.3432,1.4406,1.5039,1.585,1.6721,1.748,1.7969,1.8398,1.8783,1.9258,1.9961,2.1191,2.167,2.1885,2.1885,2.1963,2.2085,2.2334,2.273,2.3115,2.3317,2.3821,2.4196,2.4411,2.4497,2.4497,2.4497,2.4497,2.4497,2.4497,2.4497,2.4497,2.4497,2.4497,2.4497,2.4497,2.4497,2.4668,2.4988,2.5189,2.558,2.6063,2.6445,2.7529,2.8982,2.9869,3.0857,3.1932,3.2777,3.3124,3.3124,3.3124,3.3124,3.3124,3.3124,3.3124,3.3124,3.3124,3.3124,3.3124,3.3124,3.3124,3.3124,3.3124,3.3124,3.3124,3.3124,3.3124,3.3124,3.3124,3.3124,3.3124,3.3124,3.3124,3.3124,3.3124,3.3124,3.3124,3.3124,3.3124,3.3124,3.3124,3.3124,3.3124,3.3124,3.3124,3.3124,3.3124,3.3124,3.3124,3.3124,3.3124,3.3388,3.3979,3.3822,3.3947,3.4399,3.4399,3.4186,3.3734,3.3294,3.3124,3.3124,3.3533,3.3734,1.4082,1.3994,1.3721,1.3266,1.3315,0.0,0.0,1.3821,1.4521,1.4736,1.5498,1.6163,1.6357,1.6934,1.7408,1.7613,1.8057,1.8643,1.9502,2.0361,2.0986,2.1201,2.1426,2.1593,2.1675,2.2119,2.2589,2.3018,2.3525,2.4004,2.4315,2.4464,2.4497,2.4497,2.4497,2.4497,2.4497,2.4497,2.4497,2.4497,2.4497,2.4497,2.4497,2.4497,2.4572,2.47,2.4828,2.5126,2.5591,2.5977,2.6858,2.8034,2.9517,3.0724,3.1711,3.2739,3.3124,3.3124,3.3124,3.3124,3.3124,3.3124,3.3124,3.3124,3.3124,3.3124,3.3124,3.3124,3.3124,3.3124,3.3124,3.3124,3.3124,3.3124,3.3124,3.3124,3.3124,3.3124,3.3124,3.3124,3.3124,3.3124,3.3124,3.3124,3.3124,3.3124,3.3124,3.3124,3.3124,3.3124,3.3124,3.3124,3.3124,3.3124,3.3124,3.3124,3.3124,3.3124,3.3124,3.3451,3.418,3.3997,3.4161,3.4668,3.468,3.4449,3.3897,3.3897,3.3759,3.3495,3.406,3.4311,1.5576,1.5361,1.4902,1.4358,1.4172,1.4065,0.0,0.0,0.0,1.4658,1.5302,1.5762,1.5459,1.5898,1.6385,1.6541,1.6894,1.7334,1.793,1.8896,1.9736,2.0292,2.0644,2.0849,2.0927,2.1417,2.1971,2.2613,2.3018,2.3461,2.3921,2.4236,2.4373,2.4373,2.4456,2.4497,2.4497,2.4497,2.4497,2.4497,2.4497,2.4497,2.4497,2.4497,2.4497,2.4497,2.4497,2.4786,2.5274,2.5757,2.6561,2.7661,2.9416,3.0664,3.1588,3.2702,3.3124,3.3124,3.3124,3.3124,3.3124,3.3124,3.3124,3.3124,3.3124,3.3124,3.3124,3.3124,3.3124,3.3124,3.3124,3.3124,3.3124,3.3124,3.3124,3.3124,3.3124,3.3124,3.3124,3.3124,3.3124,3.3124,3.3124,3.3124,3.3124,3.3124,3.3124,3.3124,3.3124,3.3124,3.3124,3.3124,3.3124,3.3162,3.3275,3.3269,3.3325,3.3325,3.3463,3.3866,3.4607,3.4449,3.4587,3.5027,3.5039,3.4763,3.4223,3.4776,3.465,3.3922,3.4575,3.4831,1.6541,1.626,1.5752,1.494,1.4424,1.3909,1.3193,0.0,1.4182,1.4182,0.0,1.5029,1.5352,0.0,0.0,1.6046,1.6212,1.6672,1.7842,1.8135,1.8525,1.9336,1.9482,1.9658,2.0029,2.0642,2.1204,2.173,2.213,2.2533,2.3033,2.365,2.395,2.395,2.429,2.4497,2.4497,2.4497,2.4497,2.4497,2.4497,2.4497,2.4497,2.4497,2.4497,2.4497,2.4497,2.4871,2.5538,2.6155,2.7231,2.8616,2.9684,3.042,3.1087,3.2552,3.3124,3.3124,3.3124,3.3124,3.3124,3.3124,3.3124,3.3124,3.3124,3.3124,3.3124,3.3124,3.3124,3.3124,3.3124,3.3124,3.3124,3.3124,3.3124,3.3124,3.3124,3.3124,3.3124,3.3124,3.3124,3.3124,3.3124,3.3124,3.3124,3.3124,3.3124,3.3124,3.3124,3.3124,3.3124,3.3124,3.3124,3.3269,3.3771,3.3947,3.4092,3.4092,3.4708,3.5399,3.6128,3.6141,3.6153,3.6216,3.6216,3.5906,3.5307,3.5906,3.5391,3.3922,3.4919,3.5408,1.774,1.7126,1.624,1.5371,1.4824,1.4355,1.375,1.4082,1.4512,1.4512,0.0,0.0,0.0,0.0,0.0,0.0,1.5684,1.5967,1.6768,1.6917,1.7513,1.9102,1.9287,1.9258,1.9143,1.9193,1.9511,2.0228,2.0627,2.1278,2.2261,2.332,2.3919,2.3919,2.427,2.4497,2.4497,2.4497,2.4497,2.4497,2.4497,2.4497,2.4497,2.4497,2.4497,2.4497,2.4497,2.4967,2.5801,2.6558,2.7707,2.9181,3.0372,3.1079,3.1559,3.2694,3.3124,3.3124,3.3124,3.3124,3.3124,3.3124,3.3124,3.3124,3.3124,3.3124,3.3124,3.3124,3.3124,3.3124,3.3124,3.3124,3.3124,3.3124,3.3124,3.3124,3.3124,3.3124,3.3124,3.3124,3.3124,3.3262,3.3677,3.34,3.3124,3.3124,3.3124,3.3124,3.3124,3.3124,3.3124,3.3124,3.3124,3.3307,3.3847,3.4462,3.4846,3.4846,3.5537,3.594,3.5893,3.6194,3.6405,3.6405,3.6405,3.6094,3.5495,3.6094,3.5843,3.4831,3.5655,3.6019,1.8549,1.7759,1.6638,1.5664,1.5,1.4492,1.4036,1.427,1.4678,1.4912,1.5293,0.0,0.0,0.0,1.5586,1.5586,0.0,1.5566,1.6036,1.6095,1.6672,1.8247,1.8613,1.8682,1.8451,1.8256,1.8437,1.9062,1.9607,2.0377,2.1495,2.2807,2.3598,2.3681,2.4126,2.4373,2.4497,2.4497,2.4497,2.4497,2.4497,2.4497,2.4497,2.4497,2.4497,2.4497,2.4497,2.5052,2.5979,2.6764,2.8064,2.9632,3.0897,3.1743,3.2304,3.2875,3.3124,3.3124,3.3124,3.3124,3.3124,3.3124,3.3124,3.3124,3.3124,3.3124,3.3124,3.3124,3.3124,3.3124,3.3124,3.3124,3.3124,3.3124,3.3124,3.3124,3.3124,3.3124,3.3124,3.3124,3.3124,3.3307,3.4092,3.3778,3.3407,3.3508,3.3533,3.3533,3.3533,3.3608,3.3715,3.3715,3.3583,3.3759,3.4299,3.4964,3.5403,3.56,3.6116,3.6182,3.578,3.6157,3.6405,3.6405,3.6405,3.6157,3.5768,3.6169,3.6157,3.578,3.6182,3.6405,1.8715,1.8018,1.7051,1.5732,1.4747,1.4016,1.3623,1.3831,1.4358,1.5225,1.5732,1.6202,1.656,1.6328,1.6075,0.0,1.5693,0.0,0.0,1.6095,1.6114,1.6193,1.6956,1.7598,1.7988,1.8354,1.8588,1.8617,1.9427,2.0105,2.0619,2.1853,2.2749,2.3194,2.366,2.4105,2.4497,2.4497,2.4497,2.4497,2.4497,2.4497,2.4497,2.4497,2.4497,2.4497,2.4497,2.5052,2.5979,2.6764,2.8275,3.0181,3.1046,3.2064,3.3056,3.3111,3.3124,3.3124,3.3124,3.3124,3.3124,3.3124,3.3124,3.3124,3.3124,3.3124,3.3124,3.3124,3.3124,3.3124,3.3124,3.3124,3.3124,3.3124,3.3124,3.3124,3.3124,3.3124,3.3124,3.3124,3.3124,3.3307,3.4092,3.4192,3.4248,3.4613,3.4675,3.4675,3.4675,3.4977,3.5248,3.5248,3.4876,3.4856,3.5395,3.547,3.5768,3.6342,3.6392,3.6405,3.638,3.6405,3.6405,3.6405,3.6405,3.6405,3.638,3.6405,3.6405,3.638,3.6405,3.6405,1.9485,1.8822,1.7978,1.6973,1.6279,1.5634,1.4932,1.5098,1.5576,1.6132,1.6631,1.707,1.75,1.6992,1.6504,0.0,0.0,1.5049,0.0,1.4971,1.5,1.5566,1.6416,1.6894,1.677,1.6951,1.734,1.7878,1.8315,1.9026,2.0058,2.1219,2.2058,2.252,2.3433,2.395,2.4105,2.4352,2.4497,2.4497,2.4497,2.4497,2.4497,2.4497,2.4497,2.4497,2.4497,2.5052,2.5979,2.6764,2.8286,3.0205,3.1046,3.2077,3.3124,3.3124,3.3124,3.3124,3.3124,3.3124,3.3124,3.3124,3.3124,3.3124,3.3124,3.3124,3.3124,3.3124,3.3124,3.3124,3.3124,3.3124,3.3124,3.3124,3.3124,3.3124,3.3124,3.3501,3.3815,3.3646,3.3922,3.4361,3.4977,3.5031,3.524,3.573,3.5805,3.5629,3.514,3.5236,3.5223,3.4926,3.4801,3.4906,3.5445,3.5881,3.6157,3.6405,3.6405,3.6405,3.6405,3.6405,3.6405,3.6405,3.6405,3.6405,3.6405,3.6405,3.6405,3.6405,3.6405,3.6405,2.043,1.9863,1.9121,1.8271,1.7617,1.697,1.6279,1.6369,1.6692,1.71,1.7529,1.7959,1.8389,1.7891,1.733,0.0,0.0,0.0,0.0,1.4668,1.465,1.4903,1.5703,1.6269,1.6299,1.6453,1.6751,1.7241,1.7678,1.8318,1.9284,2.0433,2.1318,2.1931,2.3072,2.3712,2.3919,2.4322,2.4497,2.4497,2.4497,2.4497,2.4497,2.4497,2.4497,2.4497,2.4497,2.5052,2.6001,2.6998,2.8462,3.0229,3.1257,3.2252,3.3124,3.3124,3.3124,3.3124,3.3124,3.3124,3.3124,3.3124,3.3124,3.3124,3.3124,3.3124,3.3124,3.3124,3.3124,3.3124,3.3124,3.3124,3.3124,3.3124,3.3124,3.3131,3.3319,3.3746,3.4098,3.4173,3.4474,3.4856,3.5408,3.5495,3.5683,3.6329,3.6405,3.6241,3.5764,3.5701,3.5613,3.5328,3.5303,3.5441,3.5805,3.6157,3.6405,3.6405,3.6405,3.6405,3.6405,3.6405,3.6405,3.6405,3.6405,3.6405,3.6405,3.6405,3.6405,3.6405,3.6405,3.6405]}]]